     2              OBSERVATION DATA    GPS                 RINEX VERSION / TYPE
teqc 2000Feb29 20020409 20:44:38UTC                         PGM / RUN BY / DATE
                                                            COMMENT
L2: 1 -> 1; 150 -> 5; 250 -> 9                              COMMENT
L2: 1 -> 1; 150 -> 5; 250 -> 9                              COMMENT
L2: 1 -> 1; 150 -> 5; 250 -> 9                              COMMENT
L2: 1 -> 1; 150 -> 5; 250 -> 9                              COMMENT
L2: 1 -> 1; 150 -> 5; 250 -> 9                              COMMENT
Original Marker Name: SFBC                                  COMMENT
Campaign Name: Northern Baja                                COMMENT
4-Character Station Name: SFBC                              COMMENT
6-Character Antenna Code: DMRCHT                            COMMENT
Vertical Measurement Point: BCR                             COMMENT
Vertical Offset to Rinex Ref. Point: 0.0348                 COMMENT
Radial Measurement Point: ECF                               COMMENT
Radial Offset to Rinex Ref. Point: 0.1897                   COMMENT
Antenna Height from Field Measurement: 1.2370 m             COMMENT
Additional Antenna Identification Info.:                    COMMENT
Turborogue and Ashtech Choke Ring                           COMMENT
Original XYZ: -2297518.3719 -4970668.0743 3259305.3743      COMMENT
New XYZ position is based on association with SCEC monument COMMENT
E1C1R2L8+0011. Position of that monument is believed to be  COMMENT
valid to within 1 m horizontally; vertical accuracy         COMMENT
should be no worse than 3-times this value.                 COMMENT
                                                            COMMENT
Revised Rinex header created by UCSD GPS archive for        COMMENT
GSAC on 27-Jun-2003 (2003:178) 15:35:55 GMT                 COMMENT
For assistance contact dagnew@ucsd.edu                      COMMENT
or anderson@python.ucsd.edu                                 COMMENT
                                                            COMMENT
3030-S                                                      MARKER NAME
JGG CICESE (ENSENADA)                                       OBSERVER / AGENCY
734 ASHTECH Z-XII3 CC00                                     REC # / TYPE / VERS
05003 DORNE-MARGOL. TYPE T                                  ANT # / TYPE
 -2297511.7601 -4970654.4025  3259287.3200                  APPROX POSITION XYZ
        1.1876        0.0000        0.0000                  ANTENNA: DELTA H/E/N
     1     1     0                                          WAVELENGTH FACT L1/2
     7    C1    L1    L2    P1    P2    S1    S2            # / TYPES OF OBSERV
     0                                                      INTERVAL
  2002     2    11     0     0   30.000000                  TIME OF FIRST OBS
  2002     2    11    17    15   30.000000                  TIME OF LAST OBS
                                                            END OF HEADER
 02  2 11  0  0 30.0000000  0  7G24G30G23G 5G17G10G 6
  23482946.726   -11740718.13049  -9120235.97746  23482946.494    23482962.629
       221.000         164.000
  20467031.187   -27905224.36149 -21388942.84047  20467031.399    20467042.177
       245.000         212.000
  21940088.336   -20034728.64249 -15586894.04247  21940087.483    21940101.845
       232.000         190.000
  21351738.417   -20811625.15349 -16204284.63947  21351738.189    21351750.857
       239.000         202.000
  23484735.778    -8298176.91849  -6434225.25746  23484734.936    23484751.881
       218.000         164.000
  20714801.420   -24523336.51749 -18760976.91547  20714800.662    20714812.540
       244.000         210.000
  21641465.583   -20971902.56349 -15256012.19047  21641465.115    21641477.251
       238.000         200.000
 02  2 11  0  1  0.0000000  0  7G24G30G23G 5G17G10G 6
  23497333.428   -11665116.05749  -9061325.34146  23497334.014    23497349.805
       222.000         165.000
  20470451.443   -27887250.65849 -21374937.35247  20470451.821    20470462.394
       245.000         211.000
  21924490.781   -20116693.95849 -15650762.94647  21924489.852    21924504.367
       232.000         191.000
  21366122.936   -20736034.39449 -16145382.82347  21366122.831    21366135.382
       239.000         201.000
  23472298.748    -8363533.04949  -6485151.90746  23472297.956    23472314.570
       219.000         163.000
  20718865.621   -24501979.05549 -18744334.70947  20718865.038    20718876.513
       244.000         210.000
  21630171.320   -21031253.82949 -15302259.83847  21630170.794    21630182.929
       237.000         199.000
 02  2 11  0  1 30.0000000  0  7G24G30G23G 5G17G10G 6
  23511715.796   -11589536.07149  -9002431.92346  23511715.088    23511731.885
       221.000         165.000
  20473982.974   -27868692.22549 -21360476.23047  20473983.346    20473994.112
       244.000         211.000
  21908958.995   -20198313.20049 -15714362.17547  21908958.114    21908972.215
       232.000         190.000
  21380579.662   -20660064.20449 -16086185.34947  21380579.483    21380592.277
       238.000         201.000
  23459898.062    -8428697.71649  -6535929.37746  23459897.161    23459914.812
       217.000         163.000
  20723045.495   -24480013.68949 -18727218.80947  20723044.775    20723056.605
       244.000         210.000
  21618899.056   -21090489.49049 -15348417.40247  21618898.658    21618910.897
       237.000         200.000
 02  2 11  0  2  0.0000000  0  7G24G30G23G 5G17G10G 6
  23526093.845   -11513979.12949  -8943556.44846  23526093.614    23526110.279
       222.000         165.000
  20477625.670   -27849549.54349 -21345559.85547  20477626.005    20477636.660
       244.000         211.000
  21893493.592   -20279583.70949 -15777689.67247  21893493.020    21893506.905
       233.000         191.000
  21395108.149   -20583716.76449 -16026693.91747  21395107.845    21395120.724
       239.000         201.000
  23447533.902    -8493670.81349  -6586557.56346  23447534.140    23447549.986
       217.000         163.000
  20727340.861   -24457441.15549 -18709629.78947  20727340.261    20727352.023
       244.000         210.000
  21607649.084   -21149607.85749 -15394483.56747  21607648.646    21607660.859
       237.000         200.000
 02  2 11  0  2 30.0000000  0  7G24G30G23G 5G17G10G 6
  23540467.137   -11438446.86349  -8884700.21346  23540467.254    23540482.869
       224.000         166.000
  20481379.270   -27829824.19749 -21330189.44947  20481379.826    20481390.248
       244.000         211.000
  21878094.863   -20360504.03549 -15840744.29747  21878093.911    21878108.089
       233.000         191.000
  21409707.880   -20506995.23749 -15966910.98447  21409707.528    21409720.499
       238.000         201.000
  23435206.144    -8558453.38149  -6637037.27846  23435204.965    23435222.121
       218.000         163.000
  20731751.415   -24434263.44449 -18691569.20147  20731750.748    20731762.451
       244.000         210.000
  21596421.561   -21208608.40349 -15440457.92847  21596421.149    21596433.427
       237.000         200.000
 02  2 11  0  3  0.0000000  0  7G24G30G23G 5G17G10G 6
  23554835.759   -11362939.71549  -8825863.54046  23554835.886    23554851.557
       222.000         166.000
  20485243.752   -27809516.25649 -21314365.07747  20485244.151    20485254.922
       244.000         211.000
  21862763.272   -20441071.25649 -15903523.76847  21862762.105    21862776.730
       233.000         192.000
  21424378.380   -20429901.26249 -15906837.83447  21424378.112    21424390.944
       238.000         200.000
  23422914.584    -8623044.74949  -6687368.01046  23422912.845    23422930.191
       216.000         163.000
  20736277.069   -24410480.94849 -18673037.35447  20736276.265    20736288.222
       243.000         210.000
  21585216.822   -21267489.14549 -15486338.93747  21585216.376    21585228.631
       237.000         200.000
 02  2 11  0  3 30.0000000  0  7G24G30G23G 5G17G10G 6
  23569199.366   -11287458.38149  -8767046.98946  23569198.763    23569215.824
       222.000         166.000
  20489218.971   -27788626.33949 -21298087.21947  20489219.339    20489229.860
       244.000         211.000
  21847499.269   -20521283.15249 -15966026.35947  21847498.232    21847512.382
       233.000         192.000
  21439119.345   -20352437.34049 -15846476.40947  21439119.147    21439131.817
       239.000         200.000
  23410659.311    -8687445.02949  -6737549.85746  23410659.158    23410674.729
       218.000         163.000
  20740917.497   -24386095.22349 -18654035.46147  20740916.842    20740928.575
       244.000         210.000
  21574035.205   -21326248.52549 -15532125.38247  21574034.896    21574046.732
       238.000         200.000
 02  2 11  0  4  0.0000000  0  7G24G30G23G 5G17G10G 6
  23583557.920   -11212003.82849  -8708251.31646  23583557.143    23583574.760
       221.000         165.000
  20493304.793   -27767155.20849 -21281356.46647  20493305.150    20493315.619
       244.000         211.000
  21832303.404   -20601137.34449 -16028250.23347  21832302.382    21832316.307
       233.000         192.000
  21453930.298   -20274605.63149 -15785828.39847  21453930.123    21453942.926
       238.000         200.000
  23398440.615    -8751654.17149  -6787582.75846  23398439.857    23398456.662
       220.000         164.000
  20745672.562   -24361107.16749 -18634564.22447  20745671.730    20745683.618
       244.000         210.000
  21562876.996   -21384884.93449 -15577815.99947  21562876.591    21562888.822
       238.000         201.000
 02  2 11  0  4 30.0000000  0  7G24G30G23G 5G17G10G 6
  23597911.029   -11136578.03149  -8649478.04246  23597910.726    23597927.950
       221.000         165.000
  20497500.857   -27745104.71549 -21264174.25847  20497501.285    20497511.753
       244.000         211.000
  21817175.867   -20680632.50649 -16090194.33447  21817174.734    21817188.882
       234.000         193.000
  21468810.526   -20196409.77849 -15724896.64047  21468810.292    21468823.182
       237.000         199.000
  23386258.221    -8815673.18749  -6837467.50346  23386257.881    23386273.735
       222.000         166.000
  20750541.790   -24335519.02349 -18614625.38847  20750541.049    20750552.893
       244.000         210.000
  21551742.231   -21443398.16649 -15623410.64247  21551742.029    21551753.877
       238.000         201.000
 02  2 11  0  5  0.0000000  0  7G24G30G23G 5G17G10G 6
  23612258.668   -11061181.11749  -8590727.27346  23612258.494    23612275.596
       221.000         166.000
  20501807.171   -27722474.99149 -21246540.70747  20501807.504    20501818.246
       244.000         211.000
  21802117.190   -20759765.83249 -16151856.48347  21802116.429    21802130.176
       234.000         193.000
  21483759.669   -20117851.78749 -15663682.69747  21483759.383    21483772.343
       237.000         199.000
  23374111.982    -8879501.63749  -6887203.76746  23374110.500    23374127.559
       221.000         167.000
  20755525.071   -24309331.52449 -18594219.52747  20755524.290    20755536.164
       244.000         209.000
  21540631.307   -21501786.03449 -15668907.59447  21540631.121    21540643.019
       238.000         201.000
 02  2 11  0  5 30.0000000  0  7G24G30G23G 5G17G10G 6
  23626600.726   -10985813.44449  -8531999.30446  23626601.254    23626617.659
       221.000         165.000
  20506223.514   -27699266.88649 -21228456.46947  20506223.987    20506234.630
       244.000         211.000
  21787127.789   -20838534.89449 -16213234.78447  21787126.836    21787140.402
       234.000         193.000
  21498777.300   -20038933.77749 -15602188.22247  21498776.886    21498789.923
       238.000         199.000
  23362001.824    -8943139.53549  -6936791.55946  23362000.354    23362018.071
       221.000         167.000
  20760622.252   -24282545.52049 -18573347.30647  20760621.571    20760633.186
       244.000         209.000
  21529544.621   -21560046.79849 -15714305.50947  21529544.526    21529556.370
       239.000         202.000
 02  2 11  0  6  0.0000000  0  7G24G30G23G 5G17G10G 6
  23640936.940   -10910476.13449  -8473294.98246  23640937.240    23640953.110
       220.000         164.000
  20510749.851   -27675480.85349 -21209921.89747  20510750.223    20510760.811
       244.000         211.000
  21772208.215   -20916937.14049 -16274327.26547  21772207.514    21772221.327
       235.000         194.000
  21513863.014   -19959657.98549 -15540414.95647  21513862.833    21513876.033
       237.000         199.000
  23349928.178    -9006586.73449  -6986230.73946  23349927.052    23349943.915
       222.000         167.000
  20765833.105   -24255162.20549 -18552009.64647  20765832.413    20765844.130
       244.000         209.000
  21518482.414   -21618178.86749 -15759603.14047  21518482.215    21518493.875
       239.000         202.000
 02  2 11  0  6 30.0000000  0  8G24G30G23G 5G17G10G15G 6
  23655267.171   -10835170.69149  -8414615.50746  23655267.319    23655283.992
       219.000         163.000
  20515385.845   -27651118.63349 -21190938.34447  20515386.124    20515396.958
       244.000         211.000
  21757358.695   -20994971.26649 -16335132.89547  21757357.715    21757371.288
       235.000         195.000
  21529016.241   -19880027.65149 -15478365.42447  21529015.842    21529029.170
       236.000         199.000
  23337890.669    -9069844.08249  -7035521.99146  23337890.085    23337905.357
       222.000         168.000
  20771157.180   -24227184.00749 -18530208.44547  20771156.428    20771167.988
       244.000         209.000
                  -1034888.62349   -787038.82444                  24666261.720
       214.000         122.000
  21507444.829   -21676181.54149 -15804799.94347  21507444.696    21507456.446
       239.000         202.000
 02  2 11  0  7  0.0000000  0  8G24G30G23G 5G17G10G15G 6
  23669591.010   -10759898.69349  -8355962.08845  23669590.234    23669607.021
       220.000         162.000
  20520131.216   -27626181.60249 -21171506.89347  20520131.479    20520142.178
       244.000         211.000
  21742579.558   -21072635.54649 -16395650.33547  21742578.756    21742592.157
       235.000         195.000
  21544236.307   -19800045.67549 -15416041.88747  21544235.766    21544249.057
       236.000         198.000
  23325889.050    -9132912.01049  -7084665.65346  23325887.504    23325903.861
       221.000         167.000
  20776594.140   -24198612.39949 -18507944.85147  20776593.554    20776605.172
       244.000         209.000
  24650911.548    -1115430.68249   -849798.49845  24650911.469    24650935.019
       213.000         139.000
  21496432.049   -21734053.84749 -15849895.16247  21496431.850    21496443.764
       239.000         203.000
 02  2 11  0  7 30.0000000  0  8G24G30G23G 5G17G10G15G 6
  23683907.848   -10684663.90749  -8297337.66045  23683908.082    23683923.740
       220.000         162.000
  20524985.174   -27600673.78649 -21151630.67347  20524985.508    20524996.307
       244.000         211.000
  21727870.621   -21149930.76949 -16455880.19747  21727869.229    21727883.205
       234.000         194.000
  21559522.275   -19719717.70949 -15353448.74147  21559522.123    21559534.782
       236.000         197.000
  23313922.726    -9195793.99749  -7133664.43146  23313921.138    23313938.640
       220.000         167.000
  20782143.205   -24169452.01449 -18485222.47147  20782142.592    20782154.033
       244.000         209.000
  24635612.739    -1195828.31249   -912445.62445  24635613.060    24635635.822
       215.000         143.000
  21485443.774   -21791797.42749 -15894890.06747  21485443.437    21485455.208
       239.000         203.000
 02  2 11  0  8  0.0000000  0  8G24G30G23G 5G17G10G15G 6
  23698217.820   -10609464.82949  -8238741.06245  23698218.765    23698234.166
       221.000         162.000
  20529948.007   -27574593.92549 -21131308.70847  20529948.542    20529958.974
       244.000         211.000
  21713232.679   -21226852.61249 -16515819.10547  21713231.892    21713245.650
       234.000         195.000
  21574874.002   -19639044.06649 -15290586.24047  21574873.566    21574886.771
       236.000         197.000
  23301992.417    -9258487.90749  -7182516.64146  23301991.857    23302007.049
       219.000         167.000
  20787804.414   -24139702.16649 -18462040.77047  20787803.783    20787815.448
       244.000         209.000
  24620341.876    -1276079.15949   -974978.36745  24620342.322    24620363.595
       216.000         143.000
  21474480.665   -21849408.49249 -15939781.71947  21474480.447    21474491.972
       239.000         203.000
 02  2 11  0  8 30.0000000  0  8G24G30G23G 5G17G10G15G 6
  23712521.164   -10534300.76849  -8180171.75745  23712521.173    23712537.497
       220.000         161.000
  20535019.797   -27547941.51449 -21110540.59747  20535020.191    20535030.700
       244.000         211.000
  21698666.583   -21303397.12949 -16575463.99347  21698665.876    21698679.549
       234.000         196.000
  21590291.327   -19558025.73649 -15227455.15047  21590290.993    21590304.312
       236.000         197.000
  23290098.208    -9320992.14149  -7231221.04446  23290096.422    23290112.715
       219.000         167.000
  20793577.895   -24109362.33449 -18438399.34247  20793577.126    20793589.091
       244.000         209.000
  24605099.115    -1356181.00149  -1037394.99245  24605098.685    24605119.733
       213.000         143.000
  21463543.400   -21906883.85849 -15984567.62947  21463542.878    21463554.992
       239.000         203.000
 02  2 11  0  9  0.0000000  0  8G24G30G23G 5G17G10G15G 6
  23726818.421   -10459168.90149  -8121627.54045  23726818.395    23726835.116
       221.000         161.000
  20540200.940   -27520714.40049 -21089324.66747  20540201.325    20540211.994
       243.000         211.000
  21684173.305   -21379559.22049 -16634810.89047  21684172.440    21684185.876
       235.000         196.000
  21605774.356   -19476662.04249 -15164054.95147  21605774.134    21605787.123
       236.000         197.000
  23278240.373    -9383303.80849  -7279775.41746  23278239.450    23278254.865
       217.000         166.000
  20799463.934   -24078431.02549 -18414297.02147  20799463.341    20799474.813
       244.000         209.000
  24589884.971    -1436130.78849  -1099693.14045  24589883.528    24589905.304
       212.000         142.000
  21452632.747   -21964219.07549 -16029244.33147  21452632.412    21452644.298
       239.000         203.000
 02  2 11  0  9 30.0000000  0  8G24G30G23G 5G17G10G15G 6
  23741109.234   -10384070.58749  -8063109.47045  23741109.862    23741125.938
       220.000         161.000
  20545491.163   -27492913.91049 -21067661.95247  20545491.492    20545502.294
       243.000         211.000
  21669753.139   -21455336.93449 -16693858.27547  21669752.033    21669765.825
       235.000         196.000
  21621322.643   -19394955.69549 -15100387.74847  21621322.300    21621335.625
       236.000         197.000
  23266419.155    -9445423.20949  -7328179.97646  23266418.903    23266434.867
       219.000         167.000
  20805462.204   -24046909.83849 -18389735.05247  20805461.349    20805473.341
       244.000         209.000
  24574699.799    -1515928.16849  -1161872.52845  24574699.100    24574721.520
       209.000         141.000
  21441749.039   -22021412.60149 -16073810.62247  21441748.746    21441760.681
       239.000         203.000
 02  2 11  0 10  0.0000000  0  8G24G30G23G 5G17G10G15G 6
  23755393.162   -10309008.07349  -8004619.28945  23755393.533    23755410.457
       221.000         160.000
  20550890.101   -27464542.24449 -21045554.16747  20550890.395    20550901.135
       243.000         210.000
  21655406.231   -21530729.54349 -16752605.57847  21655405.255    21655418.768
       235.000         196.000
  21636935.376   -19312910.60049 -15036456.58747  21636935.521    21636948.482
       236.000         196.000
  23254634.589    -9507351.80549  -7376435.84046  23254634.362    23254650.155
       222.000         168.000
  20811572.135   -24014801.71449 -18364715.73247  20811571.479    20811583.131
       243.000         209.000
  24559543.537    -1595574.18149  -1223933.96245  24559541.953    24559565.012
       208.000         140.000
  21430892.407   -22078464.23649 -16118266.35647  21430892.152    21430903.998
       239.000         203.000
 02  2 11  0 10 30.0000000  0  8G24G30G23G 5G17G10G15G 6
  23769670.120   -10233982.71449  -7946158.05745  23769670.370    23769687.562
       221.000         160.000
  20556397.344   -27435601.23949 -21023002.74347  20556397.822    20556408.453
       244.000         210.000
  21641132.926   -21605735.50549 -16811051.60147  21641132.166    21641145.485
       236.000         196.000
  21652611.914   -19230529.90249 -14972263.91447  21652611.579    21652624.952
       235.000         196.000
  23242886.118    -9569090.47149  -7424543.72046  23242885.046    23242900.977
       221.000         169.000
  20817793.335   -23982108.96849 -18339240.85847  20817792.682    20817804.466
       243.000         209.000
  24544415.939    -1675069.53849  -1285877.97445  24544414.785    24544435.915
       204.000         138.000
  21420062.937   -22135373.02249 -16162610.77247  21420062.779    21420074.610
       239.000         203.000
 02  2 11  0 11  0.0000000  0  8G24G30G23G 5G17G10G15G 6
  23783939.760   -10158995.18849  -7887726.29645  23783939.411    23783955.626
       220.000         158.000
  20562012.798   -27406091.96449 -21000008.50947  20562013.145    20562023.889
       243.000         210.000
  21626933.641   -21680352.57449 -16869194.59447  21626932.916    21626946.059
       235.000         197.000
  21668351.915   -19147815.99949 -14907811.60447  21668351.552    21668365.092
       236.000         195.000
  23231173.506    -9630639.23449  -7472503.63046  23231172.784    23231188.186
       221.000         169.000
  20824125.581   -23948832.90449 -18313311.45147  20824124.868    20824136.607
       244.000         209.000
  24529316.759    -1754413.76049  -1347704.22945  24529315.738    24529337.745
       202.000         136.000
  21409261.022   -22192137.37249 -16206842.64247  21409260.777    21409272.534
       240.000         203.000
 02  2 11  0 11 30.0000000  0  8G24G30G23G 5G17G10G15G 6
  23798202.149   -10084046.16049  -7829324.54045  23798202.187    23798218.541
       217.000         157.000
  20567736.248   -27376015.15349 -20976572.04547  20567736.692    20567747.333
       244.000         210.000
  21612808.758   -21754578.37849 -16927032.71147  21612807.954    21612821.176
       235.000         197.000
  21684154.853   -19064771.25949 -14843101.49347  21684154.662    21684167.818
       235.000         195.000
  23219497.215    -9691998.00749  -7520315.48646  23219496.257    23219512.105
       223.000         170.000
  20830568.613   -23914974.52049 -18286928.28747  20830568.008    20830579.604
       244.000         209.000
  24514246.395    -1833606.29249  -1409412.31645  24514245.501    24514266.126
       200.000         137.000
  21398486.905   -22248755.49349 -16250960.57347  21398486.746    21398498.167
       241.000         204.000
 02  2 11  0 12  0.0000000  0  8G24G30G23G 5G17G10G15G 6
  23812456.947   -10009136.77749  -7770953.68445  23812456.060    23812473.825
       217.000         157.000
  20573567.282   -27345372.88349 -20952694.96147  20573567.775    20573578.411
       244.000         211.000
  21598758.656   -21828411.44649 -16984564.79447  21598757.671    21598771.102
       235.000         197.000
  21700020.180   -18981398.93849 -14778136.13847  21700019.799    21700033.129
       235.000         195.000
  23207857.053    -9753167.72449  -7567980.00646  23207856.365    23207872.295
       223.000         171.000
  20837121.961   -23880536.41649 -18260093.39447  20837121.261    20837133.018
       244.000         209.000
  24499205.166    -1912647.89649  -1471002.74945  24499204.494    24499225.899
       199.000         138.000
  21387740.802   -22305226.66949 -16294963.99647  21387740.655    21387752.311
       240.000         204.000
 02  2 11  0 12 30.0000000  0  8G24G30G23G 5G17G10G15G 6
  23826704.015    -9934267.95149  -7712614.42845  23826703.187    23826719.847
       217.000         156.000
  20579505.692   -27314166.55949 -20928378.35747  20579506.394    20579516.798
       244.000         211.000
  21584783.613   -21901850.03149 -17041789.49747  21584782.696    21584796.131
       236.000         197.000
  21715947.248   -18897701.92849 -14712917.77047  21715947.173    21715960.509
       235.000         195.000
  23196252.661    -9814148.79649  -7615497.55046  23196251.010    23196268.321
       221.000         171.000
  20843785.297   -23845520.47749 -18232808.23447  20843784.568    20843796.173
       244.000         208.000
  24484192.535    -1991538.28149  -1532475.40545  24484191.247    24484212.730
       201.000         138.000
  21377022.888   -22361549.48049 -16338851.81447  21377022.925    21377034.479
       241.000         205.000
 02  2 11  0 13  0.0000000  0  8G24G30G23G 5G17G10G15G 6
  23840943.350    -9859439.92649  -7654306.96145  23840942.969    23840960.469
       217.000         155.000
  20585551.376   -27282396.49649 -20903622.47747  20585551.859    20585562.345
       244.000         211.000
  21570884.196   -21974891.49449 -17098704.75747  21570883.388    21570896.522
       237.000         198.000
  21731935.781   -18813682.11649 -14647447.86647  21731935.614    21731948.803
       235.000         194.000
  23184683.988    -9874940.69349  -7662867.68746  23184683.518    23184699.543
       220.000         171.000
  20850558.370   -23809927.57549 -18205073.49547  20850557.689    20850569.150
       244.000         208.000
  24469208.753    -2070276.81149  -1593829.74045  24469206.661    24469228.625
       199.000         139.000
  21366333.635   -22417721.59249 -16382622.20247  21366333.315    21366344.903
       240.000         205.000
 02  2 11  0 13 30.0000000  0  8G24G30G23G 5G17G10G15G 6
  23855174.802    -9784653.95149  -7596032.27545  23855174.926    23855190.674
       217.000         154.000
  20591703.910   -27250064.71149 -20878428.89447  20591704.320    20591714.997
       244.000         210.000
  21557060.665   -22047534.10449 -17155309.22447  21557059.778    21557072.970
       237.000         199.000
  21747985.106   -18729342.60049 -14581728.84147  21747984.703    21747998.243
       235.000         194.000
  23173151.399    -9935544.05549  -7710090.89146  23173151.101    23173165.308
       223.000         171.000
  20857440.867   -23773759.83549 -18176890.83247  20857440.085    20857451.772
       243.000         208.000
  24454253.752    -2148863.67949  -1655065.91345  24454253.373    24454273.954
       202.000         141.000
  21355673.237   -22473741.82949 -16426274.24347  21355672.755    21355684.501
       240.000         205.000
 02  2 11  0 14  0.0000000  0  8G24G30G23G 5G17G10G15G 6
  23869398.024    -9709911.04049  -7537791.11045  23869398.729    23869413.901
       217.000         153.000
  20597963.077   -27217172.62049 -20852798.70847  20597963.417    20597974.080
       244.000         210.000
  21543313.303   -22119776.27549 -17211601.65847  21543312.375    21543325.408
       236.000         199.000
  21764094.783   -18644686.23349 -14515762.92547  21764094.591    21764107.932
       235.000         194.000
  23161654.779    -9995959.64249  -7757167.75946  23161654.180    23161669.189
       222.000         171.000
  20864432.289   -23737019.58649 -18148262.05647  20864431.515    20864443.293
       243.000         208.000
  24439327.911    -2227299.08049  -1716184.06245  24439327.366    24439347.851
       205.000         144.000
  21345041.953   -22529609.03449 -16469807.03847  21345041.185    21345053.177
       239.000         205.000
 02  2 11  0 14 30.0000000  0  8G24G30G23G 5G17G10G15G 6
  23883612.925    -9635211.84149  -7479584.01745  23883612.879    23883629.057
       215.000         152.000
  20604328.639   -27183721.39949 -20826732.83847  20604328.820    20604339.691
       243.000         210.000
  21529642.533   -22191615.76349 -17267580.31847  21529641.719    21529654.682
       237.000         199.000
  21780264.206   -18559715.66649 -14449552.18647  21780263.927    21780277.522
       235.000         194.000
  23150193.610   -10056187.18949  -7804098.12346  23150192.545    23150208.905
       220.000         171.000
  20871532.408   -23699708.03449 -18119188.11047  20871531.619    20871543.442
       243.000         208.000
  24424430.923    -2305582.40749  -1777183.72945  24424429.479    24424451.265
       206.000         145.000
  21334440.113   -22585321.45649 -16513219.22247  21334439.595    21334451.706
       239.000         204.000
 02  2 11  0 15  0.0000000  0  8G24G30G23G 5G17G10G15G 6
  23897819.416    -9560556.65949  -7421411.24545  23897819.504    23897836.845
       216.000         152.000
  20610800.329   -27149712.32349 -20800232.27447  20610800.560    20610811.236
       243.000         210.000
  21516048.840   -22263050.59149 -17323243.66147  21516048.020    21516060.885
       237.000         200.000
  21796492.983   -18474433.49749 -14383098.63147  21796492.682    21796505.830
       235.000         194.000
  23138768.065   -10116227.24949  -7850882.39946  23138767.664    23138783.416
       220.000         171.000
  20878740.915   -23661826.93049 -18089670.35147  20878739.979    20878751.890
       243.000         208.000
  24409562.699    -2383713.70349  -1838064.95245  24409561.003    24409582.581
       204.000         146.000
  21323868.036   -22640877.52049 -16556509.56947  21323867.564    21323879.335
       240.000         204.000
 02  2 11  0 15 30.0000000  0  8G24G30G23G 5G17G10G15G 6
  23912017.470    -9485946.01549  -7363273.15745  23912017.705    23912033.340
       215.000         153.000
  20617377.999   -27115146.46849 -20773297.85847  20617378.486    20617389.123
       243.000         210.000
  21502532.593   -22334078.53449 -17378589.94747  21502531.667    21502544.745
       237.000         200.000
  21812780.627   -18388841.66049 -14316403.77047  21812780.226    21812793.256
       234.000         193.000
  23127378.459   -10176079.47249  -7897520.29246  23127377.380    23127394.013
       222.000         171.000
  20886057.562   -23623377.67349 -18059709.87847  20886057.014    20886068.581
       243.000         208.000
  24394723.622    -2461692.46249  -1898827.31345  24394722.565    24394743.731
       207.000         147.000
  21313326.118   -22696275.14549 -16599676.46347  21313325.842    21313337.503
       240.000         204.000
 02  2 11  0 16  0.0000000  0  8G24G30G23G 5G17G10G15G 6
  23926206.894    -9411380.60749  -7305170.32345  23926207.121    23926223.185
       216.000         154.000
  20624061.319   -27080025.22349 -20745930.67047  20624061.729    20624072.410
       243.000         210.000
  21489094.046   -22404697.88349 -17433617.85347  21489093.110    21489105.988
       237.000         200.000
  21829126.614   -18302943.03849 -14249469.86647  21829126.260    21829139.732
       233.000         192.000
  23116024.597   -10235744.34549  -7944012.19346  23116023.580    23116039.278
       222.000         171.000
  20893482.020   -23584362.09549 -18029308.11747  20893481.434    20893493.004
       243.000         208.000
  24379913.625    -2539518.68249  -1959470.80745  24379912.068    24379933.480
       207.000         148.000
  21302814.625   -22751512.98049 -16642718.84047  21302814.368    21302825.907
       240.000         204.000
 02  2 11  0 16 30.0000000  0  8G24G30G23G 5G17G10G15G 6
  23940387.632    -9336860.68649  -7247102.92945  23940387.635    23940404.041
       217.000         156.000
  20630850.264   -27044349.24749 -20718131.22447  20630850.559    20630861.627
       244.000         210.000
  21475733.806   -22474905.78249 -17488325.14947  21475732.620    21475745.848
       237.000         200.000
  21845530.598   -18216739.57349 -14182298.42447  21845530.064    21845543.826
       233.000         192.000
  23104706.162   -10295221.39749  -7990357.75446  23104704.916    23104720.758
       221.000         171.000
  20901013.934   -23544781.67049 -17998466.21747  20901013.330    20901024.946
       242.000         208.000
  24365132.758    -2617191.44049  -2019994.71945  24365130.831    24365152.959
       209.000         149.000
  21292334.023   -22806588.58949 -16685634.80847  21292333.834    21292345.027
       241.000         205.000
 02  2 11  0 17  0.0000000  0  8G24G30G23G 5G17G10G15G 6
  23954559.517    -9262387.22049  -7189071.72845  23954559.723    23954576.560
       218.000         158.000
  20637744.478   -27008120.15349 -20689900.77347  20637745.036    20637755.474
       244.000         210.000
  21462452.205   -22544700.43349 -17542710.43347  21462451.574    21462464.146
       238.000         200.000
  21861992.105   -18130234.14849 -14114891.68947  21861992.058    21862005.379
       234.000         192.000
  23093423.553   -10354510.77349  -8036557.07546  23093422.646    23093437.952
       223.000         172.000
  20908652.934   -23504638.41349 -17967185.74847  20908652.161    20908664.053
       243.000         208.000
  24350380.950    -2694710.80049  -2080399.10645  24350379.723    24350399.861
       210.000         149.000
  21281884.606   -22861500.56149 -16728423.27147  21281884.478    21281895.844
       241.000         205.000
 02  2 11  0 17 30.0000000  0  8G24G30G23G 5G17G10G15G 6
  23968722.505    -9187960.53949  -7131076.98745  23968722.639    23968739.016
       218.000         159.000
  20644743.600   -26971339.63649 -20661240.64147  20644743.901    20644754.683
       243.000         210.000
  21449249.524   -22614080.24149 -17596772.46947  21449248.714    21449261.397
       237.000         201.000
  21878510.539   -18043429.71549 -14047251.95147  21878509.903    21878523.601
       233.000         192.000
  23082176.703   -10413613.46849  -8082610.93546  23082176.112    23082191.753
       224.000         174.000
  20916398.696   -23463934.09049 -17935468.08447  20916397.809    20916409.736
       242.000         207.000
  24335658.510    -2772076.87249  -2140684.03745  24335657.935    24335678.112
       211.000         149.000
  21271466.576   -22916247.62249 -16771083.22847  21271466.390    21271477.519
       241.000         206.000
 02  2 11  0 18  0.0000000  0  8G24G30G23G 5G17G10G15G 6
  23982876.346    -9113581.84349  -7073119.62945  23982876.080    23982893.248
       219.000         159.000
  20651847.268   -26934009.65949 -20632152.35747  20651847.513    20651858.289
       243.000         210.000
  21436126.060   -22683043.75249 -17650510.11247  21436125.209    21436138.063
       238.000         201.000
  21895085.242   -17956329.38949 -13979381.65647  21895084.528    21895098.263
       233.000         191.000
  23070965.229   -10472529.83649  -8128519.60846  23070964.444    23070980.058
       223.000         174.000
  20924250.743   -23422671.07849 -17903315.08047  20924249.913    20924261.695
       242.000         207.000
  24320965.323    -2849289.75949  -2200849.59845  24320964.267    24320985.129
       211.000         148.000
  21261080.143   -22970828.52049 -16813613.71547  21261080.081    21261091.069
       241.000         206.000
 02  2 11  0 18 30.0000000  0  8G24G30G23G 5G17G10G15G 6
  23997020.845    -9039251.63849  -7015200.08445  23997020.768    23997037.047
       218.000         159.000
  20659055.282   -26896131.21049 -20602636.69147  20659055.693    20659066.489
       243.000         210.000
  21423082.302   -22751588.53249 -17703921.48347  21423081.719    21423094.258
       239.000         202.000
  21911715.836   -17868935.12949 -13911282.32347  21911715.575    21911728.869
       232.000         190.000
  23059789.065   -10531259.62149  -8174282.89646  23059788.031    23059803.349
       222.000         173.000
  20932208.907   -23380850.54049 -17870727.64247  20932208.084    20932219.986
       242.000         206.000
  24306301.081    -2926348.98049  -2260895.41345  24306298.899    24306319.939
       208.000         145.000
  21250725.809   -23025240.80249 -16856012.81547  21250725.819    21250736.674
       242.000         206.000
 02  2 11  0 19  0.0000000  0  8G24G30G23G 5G17G10G15G 6
  24011156.305    -8964969.75349  -6957318.16745  24011156.702    24011173.403
       220.000         160.000
  20666367.520   -26857705.19449 -20572694.35047  20666367.931    20666378.612
       242.000         209.000
  21410118.692   -22819712.38849 -17757004.86047  21410117.974    21410130.693
       238.000         202.000
  21928401.924   -17781249.39149 -13842955.86547  21928401.693    21928415.775
       233.000         190.000
  23048648.529   -10589802.78449  -8219900.76546  23048647.503    23048663.596
       225.000         173.000
  20940272.857   -23338473.99049 -17837706.95347  20940272.231    20940284.192
       242.000         206.000
  24291666.093    -3003253.97249  -2320821.06745  24291664.351    24291685.125
       211.000         143.000
  21240403.932   -23079482.50649 -16898278.99647  21240403.695    21240414.770
       241.000         207.000
 02  2 11  0 19 30.0000000  0  8G24G30G23G 5G17G10G15G 6
  24025282.202    -8890737.73449  -6899475.11145  24025282.353    24025299.373
       219.000         160.000
  20673783.488   -26818733.90049 -20542327.12247  20673784.017    20673794.829
       243.000         209.000
  21397235.398   -22887414.00849 -17809759.22647  21397234.423    21397247.045
       239.000         202.000
  21945142.898   -17693275.42749 -13774404.81547  21945142.734    21945156.358
       233.000         190.000
  23037543.415   -10648160.10549  -8265373.82846  23037542.411    23037558.245
       224.000         174.000
  20948442.146   -23295544.13449 -17804255.11847  20948441.366    20948453.170
       242.000         206.000
  24277060.740    -3080005.15149  -2380626.86145  24277059.721    24277079.258
       212.000         143.000
  21230114.627   -23133552.73749 -16940411.56347  21230114.188    21230125.497
       240.000         207.000
 02  2 11  0 20  0.0000000  0  8G24G30G23G 5G17G10G15G 6
  24039398.576    -8816556.08449  -6841671.30345  24039398.591    24039415.914
       220.000         162.000
  20681302.952   -26779218.94549 -20511536.25847  20681302.992    20681314.102
       242.000         209.000
  21384432.752   -22954691.75349 -17862183.30547  21384431.966    21384444.630
       238.000         202.000
  21961938.177   -17605016.18049 -13705631.47147  21961937.857    21961951.700
       232.000         190.000
  23026473.443   -10706332.13149  -8310702.50846  23026472.305    23026488.090
       223.000         174.000
  20956716.317   -23252063.11249 -17770373.80447  20956715.728    20956727.187
       243.000         206.000
  24262484.731    -3156602.35049  -2440312.65545  24262484.082    24262502.846
       213.000         143.000
  21219858.215   -23187450.02349 -16982409.37047  21219857.688    21219869.386
       241.000         206.000
 02  2 11  0 20 30.0000000  0  9G26G24G30G23G 5G17G10G15G 6
  24468539.537    -9083631.06149  -6746666.82045  24468539.443    24468557.642
       203.000         135.000
  24053505.047    -8742426.58749  -6783908.11145  24053504.995    24053521.911
       220.000         162.000
  20688925.305   -26739163.05449 -20480323.88047  20688925.575    20688936.403
       243.000         209.000
  21371710.893   -23021544.80449 -17914276.44847  21371710.093    21371722.662
       238.000         203.000
  21978786.997   -17516475.33249 -13636638.70047  21978786.433    21978800.185
       231.000         189.000
  23015438.472   -10764320.21049  -8355887.86446  23015437.544    23015452.655
       224.000         173.000
  20965094.799   -23208034.06949 -17736065.45547  20965094.117    20965105.804
       243.000         206.000
  24247937.499    -3233046.84749  -2499879.47245  24247935.244    24247956.570
       209.000         143.000
  21209634.872   -23241173.61749 -17024271.83047  21209634.346    21209645.697
       240.000         206.000
 02  2 11  0 21  0.0000000  0  9G26G24G30G23G 5G17G10G15G 6
  24451992.425    -9170585.97049  -6814423.65245  24451992.668    24452010.695
       204.000         136.000
  24067601.887    -8668347.39949  -6726184.13745  24067601.656    24067618.285
       220.000         161.000
  20696650.744   -26698565.57049 -20448689.48747  20696651.197    20696661.776
       243.000         208.000
  21359070.647   -23087969.17349 -17966035.55247  21359070.093    21359082.600
       239.000         203.000
  21995689.248   -17427653.45249 -13567426.93247  21995688.941    21995702.562
       232.000         189.000
  23004439.015   -10822122.51249  -8400928.44846  23004438.369    23004453.018
       223.000         173.000
  20973577.665   -23163456.59349 -17701329.75947  20973577.015    20973588.668
       243.000         206.000
  24233419.552    -3309336.53549  -2559325.65345  24233417.044    24233439.067
       212.000         143.000
  21199445.242   -23294719.72149 -17065995.98847  21199444.880    21199456.312
       240.000         206.000
 02  2 11  0 21 30.0000000  0  9G26G24G30G23G 5G17G10G15G 6
  24435433.896    -9257600.31149  -6882226.81145  24435432.882    24435452.139
       204.000         136.000
  24081689.022    -8594319.17549  -6668499.86645  24081688.514    24081706.375
       219.000         160.000
  20704478.928   -26657428.31049 -20416634.48747  20704479.467    20704490.038
       243.000         208.000
  21346512.313   -23153963.22849 -18017459.35147  21346511.578    21346523.987
       239.000         203.000
  22012644.497   -17338553.38149 -13497998.39847  22012644.483    22012657.825
       232.000         189.000
  22993474.746   -10879739.44649  -8445824.59646  22993474.209    22993488.283
       224.000         174.000
  20982164.443   -23118332.74949 -17666168.32447  20982163.610    20982175.636
       242.000         206.000
  24218931.467    -3385471.37349  -2618651.19745  24218930.713    24218950.535
       215.000         146.000
  21189289.700   -23348086.88649 -17107580.71347  21189289.350    21189300.865
       240.000         206.000
 02  2 11  0 22  0.0000000  0  9G26G24G30G23G 5G17G10G15G 6
  24418864.550    -9344671.68649  -6950074.35645  24418864.252    24418883.534
       204.000         137.000
  24095766.228    -8520343.13349  -6610856.25845  24095766.738    24095782.712
       217.000         159.000
  20712409.459   -26615753.25449 -20384160.42747  20712409.787    20712420.506
       243.000         209.000
  21334036.139   -23219525.54849 -18068546.73747  21334035.415    21334047.980
       239.000         203.000
  22029652.148   -17249178.21849 -13428355.50747  22029651.500    22029666.031
       232.000         189.000
  22982545.633   -10937171.55349  -8490576.74646  22982545.035    22982559.984
       224.000         174.000
  20990854.708   -23072665.09549 -17630583.13947  20990853.904    20990865.546
       242.000         206.000
  24204472.768    -3461451.80649  -2677856.40945  24204471.753    24204491.249
       214.000         147.000
  21179168.493   -23401273.82949 -17149025.01047  21179168.027    21179179.587
       241.000         206.000
 02  2 11  0 22 30.0000000  0  9G26G24G30G23G 5G17G10G15G 6
  24402285.080    -9431796.72449  -7017963.72845  24402285.699    24402303.373
       205.000         136.000
  24109833.451    -8446419.49249  -6553253.48145  24109833.240    24109850.872
       217.000         158.000
  20720442.030   -26573541.87349 -20351268.45447  20720442.276    20720453.152
       242.000         209.000
  21321642.367   -23284654.43449 -18119296.37747  21321641.485    21321653.982
       238.000         203.000
  22046711.658   -17159530.51649 -13358500.25547  22046711.489    22046724.881
       231.000         189.000
  22971651.698   -10994419.13149  -8535185.09146  22971651.117    22971666.345
       224.000         175.000
  20999648.051   -23026455.54349 -17594575.70047  20999647.327    20999659.125
       242.000         206.000
  24190043.351    -3537277.32549  -2736940.92145  24190041.633    24190061.031
       214.000         149.000
  21169081.921   -23454278.68149 -17190327.42147  21169081.690    21169093.158
       241.000         207.000
 02  2 11  0 23  0.0000000  0  9G26G24G30G23G 5G17G10G15G 6
  24385696.117    -9518972.82449  -7085892.88845  24385694.885    24385713.584
       203.000         137.000
  24123890.481    -8372549.42649  -6495692.44445  24123890.598    24123906.655
       217.000         156.000
  20728576.259   -26530796.19549 -20317960.14647  20728576.455    20728587.038
       242.000         208.000
  21309331.404   -23349348.30549 -18169707.04647  21309330.657    21309343.044
       239.000         203.000
  22063822.367   -17069613.25749 -13288434.95847  22063822.084    22063835.973
       230.000         188.000
  22960792.729   -11051482.75949  -8579650.10446  22960791.405    22960806.049
       225.000         175.000
  21008544.115   -22979706.31449 -17558147.72947  21008543.128    21008554.995
       241.000         206.000
  24175643.275    -3612948.12349  -2795904.88545  24175642.211    24175662.347
       216.000         150.000
  21159030.299   -23507099.93749 -17231486.77447  21159030.308    21159041.341
       241.000         207.000
 02  2 11  0 23 30.0000000  0  9G26G24G30G23G 5G17G10G15G 6
  24369097.817    -9606196.94549  -7153859.43345  24369096.875    24369114.715
       202.000         137.000
  24137937.288    -8298733.36449  -6438173.47745  24137937.434    24137954.632
       215.000         155.000
  20736811.835   -26487517.84849 -20284236.77647  20736812.294    20736822.965
       242.000         208.000
  21297103.622   -23413605.27449 -18219777.27047  21297102.932    21297115.096
       239.000         204.000
  22080983.941   -16979429.06549 -13218161.64846  22080983.973    22080997.453
       231.000         187.000
  22949968.717   -11108362.62249  -8623971.91946  22949967.038    22949982.998
       224.000         175.000
  21017542.477   -22932419.35849 -17521300.75447  21017541.699    21017553.814
       241.000         205.000
  24161272.906    -3688464.06749  -2854748.18245  24161272.379    24161291.933
       216.000         152.000
  21149014.057   -23559735.74449 -17272501.61947  21149014.122    21149024.980
       242.000         207.000
 02  2 11  0 24  0.0000000  0  9G26G24G30G23G 5G17G10G15G 6
  24352490.650    -9693465.77049  -7221860.82445  24352489.842    24352507.402
       200.000         138.000
  24151973.748    -8224971.40649  -6380696.68645  24151973.207    24151990.877
       213.000         153.000
  20745148.535   -26443708.20349 -20250099.40847  20745149.042    20745159.832
       242.000         208.000
  21284959.332   -23477423.34849 -18269505.50147  21284958.520    21284970.828
       239.000         204.000
  22098195.846   -16888980.35249 -13147682.22246  22098195.777    22098209.563
       231.000         187.000
  22939179.624   -11165058.76449  -8668150.56746  22939178.617    22939193.758
       225.000         175.000
  21026642.839   -22884596.54049 -17484036.22547  21026642.079    21026653.791
       242.000         205.000
  24146932.200    -3763824.66049  -2913470.44345  24146930.728    24146951.154
       217.000         154.000
  21139033.456   -23612184.16549 -17313370.44947  21139033.342    21139044.406
       243.000         208.000
 02  2 11  0 24 30.0000000  0  9G26G24G30G23G 5G17G10G15G 6
  24335875.656    -9780776.52149  -7289894.89245  24335876.064    24335893.883
       205.000         139.000
  24165999.834    -8151264.28749  -6323262.61645  24166000.196    24166016.210
       212.000         151.000
  20753585.946   -26399369.30549 -20215549.63947  20753586.281    20753597.213
       242.000         208.000
  21272898.814   -23540801.17349 -18318890.68047  21272897.959    21272910.402
       239.000         204.000
  22115457.494   -16798270.07449 -13076998.97846  22115457.317    22115470.924
       230.000         186.000
  22928425.513   -11221571.83449  -8712186.56646  22928424.702    22928439.912
       224.000         175.000
  21035844.735   -22836240.32249 -17446356.05947  21035844.028    21035855.749
       242.000         205.000
  24132620.807    -3839030.14749  -2972071.85945  24132619.265    24132639.583
       217.000         154.000
  21129088.762   -23664443.79449 -17354092.16547  21129088.476    21129099.595
       243.000         208.000
 02  2 11  0 25  0.0000000  0  9G26G24G30G23G 5G17G10G15G 6
  24319253.511    -9868126.08049  -7357959.16645  24319253.051    24319270.634
       207.000         142.000
  24180015.405    -8077612.29949  -6265871.50245  24180015.014    24180031.995
       211.000         151.000
  20762123.772   -26354502.98049 -20180588.88647  20762124.191    20762134.864
       242.000         208.000
  21260922.366   -23603737.04749 -18367931.47947  21260921.760    21260933.999
       239.000         204.000
  22132768.374   -16707301.04249 -13006114.11846  22132768.233    22132782.208
       230.000         186.000
  22917706.060   -11277902.06649  -8756080.09046  22917704.663    22917720.517
       224.000         175.000
  21045147.749   -22787352.62549 -17408261.75147  21045147.278    21045158.884
       242.000         205.000
  24118338.811    -3914080.84449  -3030552.66145  24118337.333    24118355.853
       218.000         154.000
  21119180.299   -23716512.77749 -17394665.32647  21119180.036    21119191.278
       243.000         208.000
 02  2 11  0 25 30.0000000  0  9G26G24G30G23G 5G17G10G15G 6
  24302624.528    -9955511.47349  -7426051.38845  24302624.313    24302641.776
       207.000         143.000
  24194020.414    -8004015.98349  -6208523.78345  24194020.598    24194036.898
       209.000         149.000
  20770761.601   -26309110.83449 -20145218.40647  20770761.961    20770772.991
       242.000         208.000
  21249030.408   -23666229.24249 -18416626.55947  21249029.683    21249041.751
       239.000         204.000
  22150128.007   -16616075.81649 -12935029.61946  22150127.626    22150141.723
       230.000         186.000
  22907021.351   -11334049.74249  -8799831.35746  22907020.210    22907035.012
       223.000         174.000
  21054551.513   -22737935.68849 -17369755.04647  21054551.078    21054562.510
       242.000         205.000
  24104086.587    -3988976.68749  -3088912.77645  24104085.529    24104104.458
       215.000         153.000
  21109308.428   -23768389.41949 -17435088.60647  21109308.080    21109319.464
       242.000         208.000
 02  2 11  0 26  0.0000000  0  9G26G24G30G23G 5G17G10G15G 6
  24285989.210   -10042929.81349  -7494169.28745  24285988.830    24286006.171
       207.000         145.000
  24208014.562    -7930476.14849  -6151220.07145  24208013.771    24208031.392
       209.000         148.000
  20779499.123   -26263194.97149 -20109439.83547  20779499.382    20779510.537
       242.000         208.000
  21237223.128   -23728276.33249 -18464974.80647  21237222.057    21237234.582
       239.000         204.000
  22167535.849   -16524597.27549 -12863747.73246  22167535.225    22167549.432
       230.000         186.000
  22896371.323   -11390015.46249  -8843440.83446  22896370.473    22896384.758
       225.000         174.000
  21064055.550   -22687991.85949 -17330837.77247  21064054.918    21064066.665
       242.000         205.000
  24089863.672    -4063717.52749  -3147152.11445  24089862.115    24089882.325
       213.000         152.000
  21099473.463   -23820072.14949 -17475360.78747  21099473.059    21099484.323
       242.000         208.000
 02  2 11  0 26 30.0000000  0  9G26G24G30G23G 5G17G10G15G 6
  24269348.274   -10130377.35949  -7562309.94545  24269347.231    24269365.311
       207.000         147.000
  24221998.006    -7856992.53249  -6093960.15045  24221998.070    24222015.518
       211.000         147.000
  20788336.087   -26216756.37249 -20073253.93647  20788336.514    20788347.112
       243.000         208.000
  21225500.966   -23789875.99749 -18512974.40447  21225500.082    21225512.598
       240.000         205.000
  22184991.442   -16432867.56349 -12792270.12546  22184991.390    22185005.246
       229.000         184.000
  22885755.992   -11445798.82849  -8886908.21446  22885755.421    22885769.448
       224.000         175.000
  21073659.558   -22637522.60449 -17291511.07647  21073658.800    21073670.629
       242.000         205.000
  24075670.168    -4138302.59249  -3205270.08245  24075669.191    24075687.476
       212.000         150.000
  21089675.832   -23871558.64349 -17515480.05447  21089675.541    21089686.702
       243.000         209.000
 02  2 11  0 27  0.0000000  0 10G26G24G30G23G18G 5G17G10G15G 6
  24252701.891   -10217853.84049  -7630473.16545  24252700.805    24252718.690
       207.000         147.000
  24235970.155    -7783568.53149  -6036746.68245  24235970.886    24235987.212
       210.000         146.000
  20797271.664   -26169799.86849 -20036664.47347  20797271.858    20797282.642
       242.000         208.000
  21213863.805   -23851029.34249 -18560626.22347  21213862.978    21213875.203
       240.000         205.000
  24774547.649    -1838645.75949  -1376043.21445  24774547.318    24774567.274
       206.000         133.000
  22202493.807   -16340892.26449 -12720601.15446  22202493.604    22202507.552
       229.000         184.000
  22875174.697   -11501403.06049  -8930236.03146  22875173.617    22875188.622
       225.000         176.000
  21083362.513   -22586533.16249 -17251779.04247  21083361.942    21083373.442
       241.000         205.000
  24061506.100    -4212734.49849  -3263268.70145  24061504.537    24061523.316
       211.000         148.000
  21079915.364   -23922849.95349 -17555447.22947  21079915.168    21079926.340
       243.000         209.000
 02  2 11  0 27 30.0000000  0 10G26G24G30G23G18G 5G17G10G15G 6
  24236050.433   -10305356.41549  -7698656.73445  24236050.901    24236067.712
       208.000         148.000
  24249930.772    -7710204.60549  -5979580.02745  24249930.962    24249947.602
       212.000         146.000
  20806305.355   -26122327.58249 -19999673.10247  20806305.954    20806316.430
       242.000         207.000
  21202311.767   -23911735.21049 -18607929.36147  21202311.016    21202323.104
       241.000         206.000
  24753530.323    -1949091.10349  -1462103.95445  24753529.708    24753548.716
       210.000         137.000
  22220042.430   -16248674.34649 -12648743.13646  22220042.315    22220056.251
       230.000         184.000
  22864627.454   -11556828.74349  -8973424.70946  22864626.558    22864641.519
       225.000         177.000
  21093164.010   -22535025.84549 -17211643.47247  21093163.297    21093175.062
       241.000         205.000
  24047371.159    -4287013.64249  -3321148.26145  24047371.061    24047388.719
       210.000         145.000
  21070192.338   -23973944.44949 -17595261.03847  21070191.940    21070203.310
       243.000         209.000
 02  2 11  0 28  0.0000000  0 10G26G24G30G23G18G 5G17G10G15G 6
  24219395.638   -10392877.31349  -7766854.58045  24219395.421    24219413.178
       209.000         148.000
  24263880.865    -7636896.58249  -5922456.91545  24263880.305    24263897.219
       211.000         145.000
  20815437.749   -26074336.61049 -19962277.55647  20815438.172    20815449.083
       242.000         207.000
  21190846.074   -23971987.18849 -18654878.82147  21190845.273    21190857.471
       241.000         206.000
  24732523.199    -2059482.82849  -1548122.91445  24732521.662    24732544.012
       211.000         139.000
  22237637.576   -16156211.89649 -12576694.56346  22237637.404    22237651.270
       231.000         185.000
  22854114.995   -11612071.62349  -9016470.95046  22854113.856    22854128.418
       225.000         177.000
  21103064.562   -22482998.03249 -17171102.32247  21103063.613    21103075.819
       241.000         204.000
  24033265.960    -4361135.28149  -3378905.10545  24033264.177    24033282.091
       205.000         143.000
  21060507.997   -24024835.77249 -17634916.52947  21060507.864    21060518.925
       243.000         209.000
 02  2 11  0 28 30.0000000  0 10G26G24G30G23G18G 5G17G10G15G 6
  24202737.876   -10480413.51449  -7835064.35845  24202738.023    24202754.778
       212.000         147.000
  24277820.066    -7563645.16949  -5865377.93645  24277819.905    24277837.605
       211.000         146.000
  20824668.466   -26025828.96949 -19924479.41847  20824668.992    20824679.716
       242.000         207.000
  21179467.039   -24031783.92649 -18701473.55347  21179466.231    21179478.024
       242.000         206.000
  24711526.512    -2169819.11149  -1634098.71145  24711525.217    24711545.508
       212.000         139.000
  22255278.711   -16063507.96249 -12504457.82946  22255278.361    22255292.453
       230.000         185.000
  22843637.166   -11667132.07349  -9059375.04646  22843636.530    22843650.819
       224.000         176.000
  21113063.694   -22430451.98049 -17130157.35647  21113063.041    21113074.809
       241.000         204.000
  24019190.535    -4435099.43849  -3436539.22845  24019188.742    24019208.947
       205.000         142.000
  21050862.632   -24075522.35549 -17674412.48447  21050862.371    21050873.410
       243.000         209.000
 02  2 11  0 29  0.0000000  0 10G26G24G30G23G18G 5G17G10G15G 6
  24186077.638   -10567963.19149  -7903284.64545  24186077.087    24186094.133
       211.000         147.000
  24291748.239    -7490452.09549  -5808344.41445  24291748.293    24291765.213
       212.000         145.000
  20833996.868   -25976807.84949 -19886281.16347  20833997.274    20834008.251
       242.000         207.000
  21168174.758   -24091124.96749 -18747713.20147  21168173.978    21168185.787
       242.000         206.000
  24690540.630    -2280098.92049  -1720030.51245  24690539.235    24690559.798
       212.000         138.000
  22272964.972   -15970566.38849 -12432035.91146  22272964.168    22272978.817
       229.000         184.000
  22833193.713   -11722011.73149  -9102138.26446  22833192.420    22833207.636
       224.000         176.000
  21123160.834   -22377391.24949 -17088811.33847  21123160.230    21123171.921
       241.000         204.000
  24005145.094    -4508907.55349  -3494051.77845  24005144.005    24005162.952
       208.000         142.000
  21041256.327   -24126003.51549 -17713748.36947  21041255.942    21041266.916
       243.000         209.000
 02  2 11  0 29 30.0000000  0 10G26G24G30G23G18G 5G17G10G15G 6
  24169415.277   -10655523.60049  -7971513.29845  24169414.413    24169431.804
       212.000         147.000
  24305665.292    -7417317.80349  -5751356.67545  24305664.629    24305682.213
       209.000         146.000
  20843422.592   -25927275.43049 -19847684.49647  20843423.168    20843433.877
       242.000         207.000
  21156969.346   -24150009.28649 -18793596.95647  21156968.575    21156980.529
       241.000         207.000
  24669565.950    -2390320.27049  -1805916.76545  24669564.736    24669584.414
       209.000         136.000
  22290695.834   -15877390.23149 -12359431.22046  22290695.603    22290709.952
       228.000         183.000
  22822784.634   -11776711.25549  -9144761.10846  22822783.536    22822798.562
       225.000         177.000
  21133355.404   -22323818.51849 -17047066.36747  21133354.793    21133366.267
       241.000         204.000
  23991129.457    -4582559.95649  -3551442.99445  23991127.808    23991146.947
       209.000         143.000
  21031689.421   -24176277.68849 -17752922.96647  21031689.205    21031700.092
       243.000         209.000
 02  2 11  0 30  0.0000000  0 10G26G24G30G23G18G 5G17G10G15G 6
  24152751.299   -10743091.81649  -8039748.05545  24152750.779    24152767.566
       213.000         147.000
  24319570.972    -7344243.12249  -5694415.40245  24319570.622    24319587.542
       212.000         146.000
  20852945.197   -25877234.06049 -19808691.23647  20852945.656    20852956.257
       242.000         207.000
  21145851.084   -24208435.59349 -18839123.81547  21145850.292    21145862.260
       242.000         207.000
  24648602.722    -2500481.08149  -1891755.84045  24648600.099    24648620.901
       208.000         133.000
  22308470.728   -15783982.55149 -12286646.11546  22308470.327    22308484.955
       228.000         182.000
  22812409.689   -11831231.28649  -9187244.10246  22812408.678    22812423.622
       224.000         177.000
  21143646.943   -22269736.19849 -17004924.30647  21143646.308    21143657.792
       241.000         204.000
  23977143.128    -4656056.91349  -3608713.08445  23977142.070    23977161.288
       211.000         144.000
  21022162.128   -24226343.51949 -17791935.21647  21022161.920    21022172.693
       243.000         209.000
 02  2 11  0 30 30.0000000  0 10G26G24G30G23G18G 5G17G10G15G 6
  24136086.697   -10830664.27549  -8107986.13345  24136085.676    24136103.464
       213.000         146.000
  24333465.289    -7271228.15649  -5637520.63845  24333465.163    24333482.351
       211.000         147.000
  20862564.370   -25826685.08149 -19769302.44047  20862564.707    20862575.494
       241.000         206.000
  21134820.354   -24266401.76449 -18884292.13147  21134819.729    21134831.372
       242.000         207.000
  24627651.522    -2610578.50349  -1977545.56044  24627652.401    24627670.545
       206.000         129.000
  22326289.352   -15690345.65549 -12213682.39246  22326289.511    22326303.069
       230.000         183.000
  22802068.879   -11885571.75649  -9229587.18146  22802067.277    22802082.546
       224.000         177.000
  21154035.061   -22215146.28749 -16962386.71847  21154034.447    21154045.928
       241.000         204.000
  23963186.599    -4729398.07949  -3665861.79345  23963185.532    23963204.055
       214.000         146.000
  21012674.888   -24276198.82749 -17830783.42147  21012674.508    21012685.240
       243.000         209.000
 02  2 11  0 31  0.0000000  0 10G26G24G30G23G18G 5G17G10G15G 6
  24119421.637   -10918238.26549  -8176225.40445  24119421.442    24119438.049
       215.000         146.000
  24347348.127    -7198273.71549  -5580673.06145  24347347.682    24347364.864
       213.000         147.000
  20872279.602   -25775631.20949 -19729520.22447  20872280.111    20872290.900
       242.000         206.000
  21123877.404   -24323907.03849 -18929101.31047  21123876.525    21123888.421
       242.000         207.000
  24606712.520    -2720611.09649  -2063284.75244  24606710.579    24606733.340
       205.000         128.000
  22344150.983   -15596482.77049 -12140542.56746  22344150.636    22344164.207
       229.000         183.000
  22791762.098   -11939733.61749  -9271791.07846  22791762.181    22791775.418
       226.000         177.000
  21164519.221   -22160051.58749 -16919455.79347  21164518.549    21164530.333
       241.000         204.000
  23949259.721    -4802583.64849  -3722889.24945  23949258.973    23949277.435
       214.000         147.000
  21003227.966   -24325842.26849 -17869466.53847  21003227.658    21003238.507
       243.000         209.000
 02  2 11  0 31 30.0000000  0 10G26G24G30G23G18G 5G17G10G15G 6
  24102757.078   -11005810.11649  -8244462.98545  24102756.189    24102772.889
       214.000         146.000
  24361219.501    -7125379.52549  -5523872.40145  24361220.218    24361236.468
       216.000         149.000
  20882090.651   -25724073.90849 -19689345.71947  20882091.059    20882101.725
       242.000         206.000
  21113022.470   -24380949.44949 -18973549.81747  21113021.729    21113033.599
       242.000         207.000
  24585786.503    -2830575.82849  -2148971.02144  24585784.765    24585806.327
       204.000         129.000
  22362055.057   -15502396.20349 -12067228.46346  22362054.542    22362068.948
       227.000         182.000
  22781489.412   -11993716.64849  -9313855.63246  22781488.444    22781502.803
       226.000         178.000
  21175099.081   -22104454.06749 -16876133.05947  21175098.344    21175110.273
       241.000         203.000
  23935362.569    -4875613.25149  -3779795.17145  23935361.164    23935379.822
       214.000         149.000
  20993821.817   -24375271.59549 -17907982.81347  20993821.640    20993832.443
       243.000         209.000
 02  2 11  0 32  0.0000000  0 10G26G24G30G23G18G 5G17G10G15G 6
  24086093.435   -11093377.11849  -8312696.76545  24086092.885    24086109.652
       213.000         145.000
  24375079.269    -7052546.39349  -5467119.32445  24375080.163    24375095.779
       213.000         149.000
  20891997.072   -25672015.43649 -19648780.69847  20891997.491    20892008.420
       242.000         206.000
  21102255.784   -24437528.17949 -19017637.01447  21102254.983    21102266.832
       242.000         208.000
  24564873.696    -2940471.04049  -2234603.12645  24564872.862    24564892.269
       204.000         133.000
  22380001.028   -15408089.41549 -11993742.75646  22380000.598    22380014.667
       228.000         182.000
  22771250.513   -12047521.73949  -9355781.52846  22771249.452    22771263.519
       226.000         179.000
  21185774.070   -22048356.56749 -16832420.73347  21185773.264    21185785.296
       241.000         203.000
  23921494.833    -4948487.47249  -3836580.02145  23921493.665    23921511.794
       213.000         150.000
  20984456.660   -24424485.40349 -17946331.15047  20984456.393    20984467.255
       243.000         210.000
 02  2 11  0 32 30.0000000  0 10G26G24G30G23G18G 5G17G10G15G 6
  24069431.258   -11180935.92549  -8380924.16045  24069431.229    24069448.300
       212.000         146.000
  24388927.345    -6979774.62349  -5410414.06445  24388927.007    24388944.598
       216.000         150.000
  20901998.421   -25619458.04849 -19607826.91147  20901998.927    20902009.571
       242.000         206.000
  21091577.681   -24493641.50349 -19061361.55947  21091577.155    21091588.603
       243.000         208.000
  24543974.754    -3050294.11749  -2320179.00945  24543972.771    24543993.608
       204.000         136.000
  22397988.533   -15313564.98849 -11920087.45446  22397988.505    22398002.211
       229.000         182.000
  22761045.439   -12101148.96449  -9397568.82546  22761044.487    22761058.749
       227.000         178.000
  21196543.848   -21991761.13549 -16788320.41547  21196543.248    21196554.951
       241.000         203.000
  23907656.694    -5021206.01849  -3893243.56445  23907655.275    23907673.923
       213.000         152.000
  20975132.935   -24473481.67149 -17984509.97747  20975132.788    20975143.536
       243.000         210.000
 02  2 11  0 33  0.0000000  0 10G26G24G30G23G18G 5G17G10G15G 6
  24052771.291   -11268483.91349  -8449143.09445  24052771.883    24052788.259
       210.000         143.000
  24402763.569    -6907065.13249  -5353757.33645  24402763.508    24402781.184
       216.000         151.000
  20912094.265   -25566404.18649 -19566486.26247  20912094.468    20912105.514
       242.000         206.000
  21080988.381   -24549288.47649 -19104722.71447  21080987.916    21080999.411
       243.000         209.000
  24523089.775    -3160043.39149  -2405697.36345  24523087.520    24523108.341
       203.000         138.000
  22416016.934   -15218826.12449 -11846265.05446  22416017.214    22416030.619
       229.000         182.000
  22750874.040   -12154599.45549  -9439218.41046  22750874.148    22750887.451
       228.000         179.000
  21207407.819   -21934670.64649 -16743834.33147  21207407.367    21207418.804
       240.000         202.000
  23893848.132    -5093769.65449  -3949786.37845  23893847.194    23893865.294
       213.000         153.000
  20965850.832   -24522259.11549 -18022518.28847  20965850.374    20965861.415
       243.000         210.000
 02  2 11  0 33 30.0000000  0 10G26G24G30G23G18G 5G17G10G15G 6
  24036114.014   -11356017.10149  -8517350.51345  24036114.094    24036130.068
       211.000         142.000
  24416588.062    -6834417.52349  -5297148.81345  24416587.928    24416605.665
       214.000         150.000
  20922284.360   -25512855.06449 -19524759.69247  20922284.534    20922295.659
       241.000         206.000
  21070488.160   -24604466.94749 -19147718.80447  21070487.355    21070499.137
       243.000         209.000
  24502219.388    -3269715.75249  -2491155.78845  24502217.438    24502238.389
       205.000         140.000
  22434085.742   -15123874.74949 -11772277.06246  22434085.106    22434099.189
       228.000         182.000
  22740736.413   -12207872.81649  -9480729.97046  22740735.706    22740750.284
       226.000         179.000
  21218365.760   -21877086.42449 -16698963.53047  21218365.171    21218376.955
       241.000         202.000
  23880069.193    -5166177.55649  -4006207.84445  23880067.383    23880086.629
       212.000         155.000
  20956610.870   -24570815.18449 -18060354.09847  20956610.590    20956621.367
       242.000         210.000
 02  2 11  0 34  0.0000000  0 10G26G24G30G23G18G 5G17G10G15G 6
  24019460.370   -11443532.37049  -8585543.96345  24019460.474    24019476.215
       209.000         139.000
  24430400.656    -6761832.11149  -5240588.75545  24430400.626    24430417.627
       215.000         150.000
  20932568.197   -25458813.00449 -19482649.01747  20932568.614    20932579.298
       241.000         205.000
  21060077.334   -24659175.65649 -19190348.84847  21060076.552    21060088.168
       243.000         208.000
  24481363.995    -3379309.10049  -2576552.64545  24481361.836    24481382.485
       203.000         140.000
  22452194.385   -15028713.67049 -11698125.67346  22452193.560    22452207.907
       228.000         181.000
  22730632.280   -12260969.49049  -9522103.85646  22730630.962    22730645.863
       227.000         179.000
  21229417.151   -21819011.21949 -16653710.14047  21229416.691    21229428.028
       241.000         202.000
  23866319.849    -5238429.75149  -4062507.99145  23866317.912    23866337.057
       213.000         155.000
  20947413.349   -24619148.19449 -18098016.10047  20947413.048    20947423.568
       243.000         210.000
 02  2 11  0 34 30.0000000  0 10G26G24G30G23G18G 5G17G10G15G 6
  24002810.503   -11531026.60549  -8653721.02245  24002809.221    24002826.760
       206.000         137.000
  24444201.374    -6689308.82849  -5184077.11045  24444200.552    24444218.553
       212.000         150.000
  20942945.478   -25404280.06449 -19440155.84147  20942946.110    20942956.634
       242.000         205.000
  21049756.142   -24713413.42249 -19232611.92347  21049755.448    21049767.046
       243.000         208.000
  24460524.114    -3488821.31749  -2661886.26345  24460522.123    24460542.303
       203.000         140.000
  22470342.317   -14933345.76449 -11623813.12746  22470341.916    22470356.384
       226.000         180.000
  22720561.781   -12313889.81349  -9563340.33446  22720561.473    22720575.487
       229.000         180.000
  21240561.454   -21760447.56949 -16608076.15047  21240560.636    21240572.396
       241.000         203.000
  23852600.099    -5310526.25049  -4118686.81745  23852599.319    23852617.602
       216.000         156.000
  20938258.600   -24667256.38649 -18135502.91647  20938258.405    20938269.104
       243.000         210.000
 02  2 11  0 35  0.0000000  0 10G26G24G30G23G18G 5G17G10G15G 6
  23986165.138   -11618496.46749  -8721879.13145  23986164.774    23986181.126
       204.000         137.000
  24457990.098    -6616848.24149  -5127614.31645  24457990.496    24458006.638
       213.000         150.000
  20953415.833   -25349258.25049 -19397281.72247  20953416.212    20953427.251
       241.000         206.000
  21039524.852   -24767178.61249 -19274506.76047  21039524.071    21039535.628
       242.000         209.000
  24439699.956    -3598249.80149  -2747154.67145  24439698.299    24439718.271
       201.000         140.000
  22488529.046   -14837773.81549 -11549341.58146  22488528.885    22488542.747
       226.000         179.000
  22710524.850   -12366634.22249  -9604439.72046  22710524.031    22710538.216
       228.000         181.000
  21251798.283   -21701397.49149 -16562063.12347  21251797.637    21251809.484
       241.000         203.000
  23838910.112    -5382466.89149  -4174744.18145  23838908.967    23838927.273
       215.000         157.000
  20929146.974   -24715137.79849 -18172813.02647  20929146.603    20929157.324
       243.000         210.000
 02  2 11  0 35 30.0000000  0 10G26G24G30G23G18G 5G17G10G15G 6
  23969525.177   -11705938.75949  -8790015.72545  23969524.673    23969542.330
       206.000         137.000
  24471766.927    -6544450.86749  -5071200.76945  24471767.308    24471784.029
       214.000         150.000
  20963978.723   -25293749.88149 -19354028.46947  20963979.069    20963989.988
       241.000         205.000
  21029383.716   -24820470.08149 -19316032.46647  21029383.111    21029394.654
       242.000         209.000
  24418892.324    -3707592.43649  -2832356.17945  24418890.634    24418910.950
       207.000         142.000
  22506754.079   -14742000.68649 -11474713.26946  22506753.659    22506768.161
       226.000         178.000
  22700521.186   -12419203.20449  -9645402.41046  22700520.017    22700534.290
       228.000         181.000
  21263127.158   -21641863.88449 -16515673.32047  21263126.374    21263138.177
       241.000         202.000
  23825249.634    -5454251.86749  -4230680.25245  23825247.814    23825267.055
       214.000         157.000
  20920078.876   -24762790.70249 -18209945.08147  20920078.541    20920089.359
       242.000         210.000
 02  2 11  0 36  0.0000000  0 10G26G24G30G23G18G 5G17G10G15G 6
  23952891.144   -11793350.31249  -8858128.37245  23952890.629    23952907.809
       206.000         137.000
  24485531.449    -6472117.21249  -5014836.88245  24485530.960    24485548.776
       209.000         148.000
  20974633.791   -25237757.20249 -19310397.83847  20974634.173    20974645.128
       241.000         205.000
  21019332.934   -24873286.74149 -19357188.19047  21019332.389    21019343.862
       242.000         209.000
  24398101.584    -3816847.13649  -2917489.16945  24398100.117    24398120.391
       209.000         145.000
  22525016.877   -14646029.19649 -11399930.38746  22525016.625    22525030.915
       226.000         177.000
  22690550.746   -12471597.21949  -9686228.76446  22690549.969    22690564.654
       228.000         181.000
  21274547.592   -21581849.06749 -16468908.53747  21274547.058    21274558.615
       241.000         202.000
  23811618.754    -5525881.51849  -4286495.28945  23811617.690    23811635.264
       215.000         157.000
  20911054.594   -24810213.21749 -18246897.60747  20911054.338    20911065.066
       242.000         210.000
 02  2 11  0 36 30.0000000  0 10G26G24G30G23G18G 5G17G10G15G 6
  23936263.583   -11880728.12749  -8926214.72745  23936264.619    23936279.693
       207.000         140.000
  24499283.818    -6399847.51049  -4958522.83945  24499282.650    24499301.013
       209.000         148.000
  20985380.577   -25181282.43849 -19266391.54947  20985380.833    20985391.899
       241.000         205.000
  21009372.821   -24925627.22649 -19397972.87347  21009372.324    21009383.411
       243.000         209.000
  24377327.946    -3926011.60249  -3002551.88445  24377326.268    24377346.250
       212.000         146.000
  22543316.982   -14549862.05349 -11324995.05346  22543316.587    22543330.301
       226.000         177.000
  22680613.647   -12523816.73649  -9726919.13846  22680612.808    22680627.353
       231.000         182.000
  21286059.160   -21521355.48749 -16421770.69747  21286058.578    21286070.174
       240.000         202.000
  23798017.465    -5597355.90349  -4342189.33545  23798016.466    23798034.368
       216.000         158.000
  20902074.502   -24857403.57549 -18283669.23447  20902074.175    20902084.859
       243.000         210.000
 02  2 11  0 37  0.0000000  0 10G26G24G30G23G18G 5G17G10G15G 6
  23919643.819   -11968065.33649  -8994269.43145  23919642.956    23919660.152
       207.000         142.000
  24513024.718    -6327638.55449  -4902256.11845  24513024.416    24513042.172
       209.000         148.000
  20996219.371   -25124324.34649 -19222008.64447  20996219.979    20996230.677
       241.000         205.000
  20999504.175   -24977486.81249 -19438382.83447  20999503.366    20999514.808
       242.000         209.000
  24356572.571    -4035080.16949  -3087539.87345  24356570.617    24356589.475
       213.000         147.000
  22561654.440   -14453498.61149 -11249906.76246  22561654.562    22561668.820
       226.000         176.000
  22670710.334   -12575858.64249  -9767471.11646  22670709.075    22670723.548
       230.000         181.000
  21297661.994   -21460382.23849 -16374259.08747  21297661.236    21297672.773
       240.000         202.000
  23784446.424    -5668671.58949  -4397759.72845  23784445.251    23784463.092
       216.000         158.000
  20893139.575   -24904356.49649 -18320255.85247  20893139.401    20893150.030
       243.000         211.000
 02  2 11  0 37 30.0000000  0 10G26G24G30G23G18G 5G17G10G15G 6
  23903031.294   -12055363.15049  -9062293.46545  23903029.897    23903047.086
       208.000         144.000
  24526753.120    -6255494.97149  -4846040.35645  24526753.412    24526769.958
       211.000         148.000
  21007148.806   -25066889.73149 -19177254.42147  21007149.243    21007159.976
       241.000         204.000
  20989726.393   -25028868.83849 -19478420.66747  20989725.665    20989737.306
       242.000         209.000
  24335834.980    -4144054.75849  -3172454.64545  24335833.373    24335852.347
       213.000         148.000
  22580027.864   -14356946.10049 -11174671.14346  22580027.312    22580041.441
       226.000         176.000
  22660839.774   -12627727.85749  -9807888.53846  22660839.038    22660853.247
       228.000         181.000
  21309354.762   -21398936.40749 -16326379.22947  21309354.131    21309365.979
       240.000         201.000
  23770904.603    -5739833.12849  -4453210.01045  23770903.536    23770921.638
       216.000         157.000
  20884249.370   -24951074.67749 -18356659.54947  20884249.115    20884259.902
       243.000         211.000
 02  2 11  0 38  0.0000000  0 10G26G24G30G23G18G 5G17G10G15G 6
  23886427.113   -12142618.13949  -9130284.15645  23886426.851    23886443.413
       210.000         147.000
  24540469.111    -6183416.93549  -4789875.64145  24540468.707    24540486.618
       208.000         147.000
  21018168.587   -25008980.50249 -19132130.37047  21018168.924    21018179.706
       241.000         204.000
  20980039.773   -25079771.93449 -19518085.31047  20980039.071    20980050.613
       241.000         209.000
  24315115.844    -4252933.29249  -3257294.57645  24315114.027    24315133.242
       213.000         148.000
  22598436.706   -14260207.18049 -11099290.26846  22598436.158    22598451.213
       226.000         176.000
  22651002.044   -12679424.78849  -9848171.70546  22651001.258    22651015.279
       229.000         182.000
  21321137.031   -21337020.06349 -16278132.73947  21321136.394    21321148.100
       240.000         201.000
  23757392.151    -5810840.27149  -4508539.96945  23757390.841    23757408.655
       217.000         158.000
  20875404.229   -24997555.92549 -18392878.62947  20875403.979    20875414.753
       243.000         211.000
 02  2 11  0 38 30.0000000  0 10G26G24G30G23G18G 5G17G10G15G 6
  23869831.415   -12229826.76549  -9198238.67545  23869831.689    23869848.196
       209.000         142.000
  24554172.668    -6111404.28349  -4733761.89145  24554172.400    24554188.421
       209.000         144.000
  21029278.289   -24950598.68949 -19086638.07247  21029278.633    21029289.627
       241.000         203.000
  20970444.619   -25130194.42249 -19557375.45047  20970443.704    20970455.473
       242.000         209.000
  24294415.240    -4361712.97849  -3342057.45445  24294412.128    24294432.489
       213.000         142.000
  22616880.566   -14163284.26049 -11023766.02546  22616881.159    22616894.463
       225.000         171.000
  22641197.153   -12730949.36649  -9888320.55946  22641196.096    22641209.985
       229.000         179.000
  21333008.475   -21274635.50749 -16229521.40347  21333007.756    21333019.548
       239.000         200.000
  23743909.243    -5881692.77749  -4563749.42645  23743908.334    23743926.241
       216.000         154.000
  20866604.557   -25043798.17849 -18428911.47747  20866604.260    20866614.955
       243.000         212.000
 02  2 11  0 39  0.0000000  0 10G26G24G30G23G18G 5G17G10G15G 6
  23853245.534   -12316985.42649  -9266154.38345  23853245.642    23853261.762
       210.000         149.000
  24567863.848    -6039456.99549  -4677699.06945  24567864.611    24567882.027
       210.000         145.000
  21040477.575   -24891746.16449 -19040778.99147  21040477.890    21040488.753
       241.000         204.000
  20960941.162   -25180134.84949 -19596289.96247  20960940.523    20960952.030
       242.000         210.000
  24273734.076    -4470391.25949  -3426741.40445  24273732.715    24273750.819
       212.000         145.000
  22635358.934   -14066179.85149 -10948100.34946  22635359.017    22635373.366
       225.000         173.000
  22631425.016   -12782301.64949  -9928335.17746  22631424.601    22631437.953
       229.000         182.000
  21344968.520   -21211784.88949 -16180546.90647  21344967.886    21344979.613
       239.000         200.000
  23730455.707    -5952390.53049  -4618838.31745  23730454.278    23730472.056
       217.000         157.000
  20857850.815   -25089799.19749 -18464756.35247  20857850.561    20857861.202
       243.000         211.000
 02  2 11  0 39 30.0000000  0 10G26G24G30G23G18G 5G17G10G15G 6
  23836670.069   -12404090.66649  -9334028.40945  23836669.757    23836686.266
       211.000         150.000
  24581542.467    -5967575.27449  -4621687.32645  24581541.683    24581560.646
       209.000         145.000
  21051766.028   -24832425.14349 -18994554.84347  21051766.305    21051777.514
       241.000         204.000
  20951529.681   -25229591.91649 -19634827.83147  20951529.108    20951540.562
       242.000         210.000
  24253072.734    -4578965.66549  -3511344.36845  24253070.359    24253089.340
       210.000         144.000
  22653871.391   -13968896.65849 -10872295.38246  22653871.711    22653885.840
       226.000         174.000
  22621685.485   -12833482.18449  -9968215.95846  22621684.134    22621698.591
       228.000         182.000
  21357016.841   -21148470.73849 -16131211.20947  21357016.185    21357027.874
       239.000         200.000
  23717031.563    -6022933.50649  -4673806.58945  23717030.891    23717048.686
       216.000         158.000
  20849143.273   -25135557.09949 -18500411.78547  20849142.939    20849153.551
       243.000         211.000
 02  2 11  0 40  0.0000000  0 10G26G24G30G23G18G 5G17G10G15G 6
  23820105.190   -12491139.25649  -9401858.28745  23820104.934    23820121.043
       208.000         150.000
  24595208.720    -5895758.98749  -4565726.57645  24595209.221    24595225.351
       208.000         144.000
  21063143.172   -24772637.87549 -18947967.38847  21063143.609    21063154.584
       241.000         204.000
  20942210.438   -25278564.53449 -19672988.20947  20942209.820    20942221.101
       242.000         210.000
  24232431.451    -4687434.03049  -3595864.74445  24232430.278    24232448.345
       213.000         142.000
  22672417.456   -13871437.42949 -10796353.21846  22672417.862    22672431.629
       227.000         174.000
  22611978.672   -12884491.22949 -10007963.11946  22611978.083    22611990.970
       228.000         182.000
  21369152.829   -21084695.50449 -16081516.23147  21369152.144    21369164.002
       239.000         199.000
  23703636.953    -6093321.55649  -4728654.12645  23703636.614    23703653.139
       215.000         158.000
  20840482.406   -25181069.94649 -18535876.26847  20840482.025    20840492.716
       243.000         211.000
 02  2 11  0 40 30.0000000  0 10G26G24G30G23G18G 5G17G10G15G 6
  23803551.653   -12578127.78949  -9469641.38045  23803551.324    23803566.750
       209.000         149.000
  24608862.386    -5824008.65849  -4509817.21145  24608862.069    24608879.982
       207.000         144.000
  21074608.652   -24712386.69349 -18901018.43947  21074609.322    21074619.824
       241.000         204.000
  20932983.599   -25327051.66049 -19710770.27947  20932983.047    20932994.240
       242.000         210.000
  24211810.981    -4795793.99349  -3680300.63445  24211809.443    24211828.046
       209.000         142.000
  22690996.474   -13773804.79449 -10720275.93746  22690996.240    22691010.313
       227.000         174.000
  22602304.470   -12935329.18949 -10047576.97046  22602303.661    22602317.096
       229.000         182.000
  21381376.169   -21020461.58249 -16031463.84147  21381375.672    21381387.343
       239.000         199.000
  23690271.804    -6163554.76649  -4783381.01945  23690270.517    23690287.741
       217.000         158.000
  20831868.540   -25226335.84949 -18571148.32747  20831868.268    20831878.822
       243.000         212.000
 02  2 11  0 41  0.0000000  0 10G26G24G30G23G18G 5G17G10G15G 6
  23787010.159   -12665052.66049  -9537374.86745  23787009.646    23787025.756
       210.000         149.000
  24622503.552    -5752324.28749  -4453959.26245  24622503.585    24622520.773
       207.000         143.000
  21086161.990   -24651673.65149 -18853709.60447  21086162.483    21086173.150
       241.000         204.000
  20923849.361   -25375051.88849 -19748172.95047  20923848.671    20923860.005
       242.000         210.000
  24191211.493    -4904043.01749  -3764650.10445  24191210.763    24191228.068
       211.000         141.000
  22709607.957   -13676001.31449 -10644065.52446  22709607.266    22709621.766
       225.000         174.000
  22592662.727   -12985996.38949 -10087057.76846  22592661.946    22592675.189
       227.000         182.000
  21393686.302   -20955771.41449 -15981055.93247  21393685.570    21393697.186
       239.000         200.000
  23676936.086    -6233633.14749  -4837987.26345  23676935.029    23676952.683
       215.000         158.000
  20823302.034   -25271352.73049 -18606226.34547  20823301.848    20823312.293
       243.000         212.000
 02  2 11  0 41 30.0000000  0 10G26G24G30G23G18G 5G17G10G15G 6
  23770481.435   -12751910.67949  -9605056.25045  23770481.458    23770497.138
       209.000         149.000
  24636132.022    -5680706.10449  -4398152.85945  24636131.761    24636148.603
       207.000         144.000
  21097802.705   -24590501.19049 -18806042.78147  21097802.915    21097813.897
       240.000         203.000
  20914808.001   -25422564.09749 -19785195.34847  20914807.500    20914818.618
       242.000         210.000
  24170633.527    -5012178.97049  -3848911.44845  24170632.829    24170650.610
       212.000         140.000
  22728251.368   -13578029.87549 -10567724.24346  22728251.299    22728265.498
       225.000         174.000
  22583053.366   -13036493.23049 -10126405.82546  22583052.458    22583065.911
       228.000         182.000
  21406082.771   -20890627.52149 -15930294.48247  21406082.288    21406094.008
       239.000         199.000
  23663629.796    -6303556.77849  -4892472.93145  23663628.891    23663646.613
       215.000         157.000
  20814783.313   -25316118.69849 -18641108.84447  20814783.155    20814793.559
       244.000         212.000
 02  2 11  0 42  0.0000000  0 10G26G24G30G23G18G 5G17G10G15G 6
  23753966.040   -12838698.45049  -9672682.89345  23753966.131    23753980.841
       212.000         149.000
  24649747.871    -5609154.24349  -4342398.15345  24649747.945    24649764.065
       209.000         144.000
  21109530.433   -24528871.66349 -18758019.79947  21109530.826    21109541.812
       240.000         203.000
  20905859.729   -25469587.25549 -19821836.67147  20905859.205    20905870.453
       243.000         211.000
  24150077.493    -5120199.48349  -3933082.82845  24150076.150    24150094.284
       210.000         141.000
  22746926.141   -13479893.37649 -10491254.35946  22746925.431    22746940.171
       225.000         174.000
  22573476.358   -13086820.12949 -10165621.43846  22573475.498    22573489.074
       228.000         182.000
  21418565.088   -20825032.53249 -15879181.52447  21418564.506    21418576.187
       238.000         199.000
  23650352.961    -6373325.96549  -4946838.25745  23650351.772    23650369.340
       215.000         157.000
  20806312.672   -25360631.94049 -18675794.41147  20806312.370    20806322.960
       243.000         212.000
 02  2 11  0 42 30.0000000  0 10G26G24G30G23G18G 5G17G10G15G 6
  23737464.892   -12925412.48949  -9740252.08645  23737464.925    23737480.768
       213.000         151.000
  24663351.208    -5537668.59349  -4286695.02545  24663350.398    24663367.955
       209.000         143.000
  21121344.778   -24466787.16349 -18709642.29847  21121344.957    21121356.154
       240.000         203.000
  20897004.742   -25516120.22549 -19858096.03247  20897004.145    20897015.181
       243.000         211.000
  24129543.858    -5228102.33649  -4017162.50945  24129542.585    24129560.448
       209.000         141.000
  22765631.930   -13381594.29849 -10414657.77846  22765632.001    22765646.209
       225.000         174.000
  22563931.644   -13136977.40949 -10204704.89146  22563931.335    22563944.170
       228.000         183.000
  21431132.772   -20758988.85749 -15827718.94347  21431132.166    21431144.115
       238.000         199.000
  23637105.545    -6442940.62449  -5001083.18045  23637104.183    23637121.925
       215.000         156.000
  20797890.554   -25404890.38549 -18710281.43847  20797890.300    20797900.760
       244.000         212.000
 02  2 11  0 43  0.0000000  0 10G26G24G30G23G18G 5G17G10G15G 6
  23720978.212   -13012049.81849  -9807761.50645  23720978.019    23720993.432
       215.000         153.000
  24676941.782    -5466249.61449  -4231043.84845  24676941.759    24676958.653
       208.000         143.000
  21133245.071   -24404250.60349 -18660912.54247  21133245.369    21133256.234
       240.000         203.000
  20888243.143   -25562162.31149 -19893972.88447  20888242.411    20888253.775
       243.000         211.000
  24109033.087    -5335885.31149  -4101148.77845  24109030.575    24109049.517
       208.000         142.000
  22784368.038   -13283135.75949 -10337936.93846  22784366.961    22784382.499
       225.000         174.000
  22554419.068   -13186965.76749 -10243656.70146  22554418.531    22554431.593
       228.000         183.000
  21443785.310   -20692499.34749 -15775908.96547  21443784.817    21443796.474
       238.000         199.000
  23623887.335    -6512401.03449  -5055207.90645  23623886.604    23623902.841
       214.000         155.000
  20789517.192   -25448892.39149 -18744568.63948  20789516.887    20789527.420
       244.000         213.000
 02  2 11  0 43 30.0000000  0 10G26G24G30G23G18G 5G17G10G15G 6
  23704506.867   -13098606.84349  -9875208.33845  23704506.192    23704521.925
       218.000         155.000
  24690519.540    -5394897.67449  -4175444.89145  24690518.520    24690535.621
       210.000         144.000
  21145231.029   -24341264.05849 -18611832.14747  21145231.461    21145242.373
       240.000         203.000
  20879575.163   -25607712.16849 -19929466.18147  20879574.451    20879585.830
       243.000         211.000
  24088545.623    -5443546.25349  -4185039.95345  24088544.618    24088562.142
       208.000         142.000
  22803133.971   -13184520.47849 -10261093.96646  22803134.209    22803148.714
       225.000         173.000
  22544938.587   -13236785.47649 -10282477.10246  22544938.224    22544951.270
       229.000         184.000
  21456522.249   -20625566.35849 -15723753.41047  21456521.649    21456533.415
       238.000         198.000
  23610698.601    -6581707.19049  -5109212.43945  23610697.414    23610714.792
       215.000         155.000
  20781193.009   -25492635.93949 -18778654.44648  20781192.670    20781203.156
       244.000         213.000
 02  2 11  0 44  0.0000000  0 10G26G24G30G23G18G 5G17G10G15G 6
  23688051.388   -13185080.36249  -9942590.09445  23688051.483    23688066.766
       216.000         157.000
  24704084.534    -5323612.74449  -4119898.15845  24704084.278    24704101.012
       210.000         144.000
  21157302.148   -24277830.07349 -18562403.09947  21157302.574    21157313.521
       240.000         202.000
  20871001.059   -25652769.06849 -19964575.35747  20871000.627    20871011.714
       243.000         211.000
  24068081.793    -5551082.61449  -4268834.06545  24068080.485    24068096.927
       207.000         142.000
  22821929.184   -13085751.42849 -10184131.17246  22821928.708    22821943.541
       223.000         173.000
  22535490.110   -13286437.20149 -10321166.60346  22535489.425    22535503.309
       228.000         184.000
  21469343.048   -20558192.57249 -15671254.37947  21469342.244    21469354.737
       238.000         198.000
  23597539.333    -6650859.25449  -5163096.91245  23597538.414    23597555.140
       215.000         156.000
  20772918.348   -25536119.19549 -18812537.42948  20772918.038    20772928.478
       244.000         213.000
 02  2 11  0 44 30.0000000  0 10G26G24G30G23G18G 5G17G10G15G 6
  23671612.376   -13271466.83949 -10009904.03845  23671612.304    23671627.551
       220.000         158.000
  24717636.942    -5252394.43349  -4064403.32245  24717637.146    24717653.240
       212.000         145.000
  21169457.963   -24213950.91049 -18512627.15847  21169458.349    21169469.257
       240.000         202.000
  20862520.964   -25697331.91949 -19999299.56447  20862520.368    20862531.399
       244.000         211.000
  24047642.106    -5658492.20949  -4352529.38545  24047640.845    24047657.809
       209.000         143.000
  22840753.081   -12986831.12249 -10107050.52246  22840752.646    22840768.189
       223.000         172.000
  22526073.544   -13335921.10649 -10359725.33646  22526072.824    22526085.797
       227.000         183.000
  21482247.184   -20490380.74349 -15618414.01347  21482246.630    21482258.692
       238.000         198.000
  23584409.291    -6719857.08449  -5216861.21345  23584407.744    23584424.498
       215.000         155.000
  20764693.630   -25579340.17949 -18846216.04848  20764693.382    20764703.789
       244.000         213.000
 02  2 11  0 45  0.0000000  0 10G26G24G30G23G18G 5G17G10G15G 6
  23655190.829   -13357763.22349 -10077147.75545  23655190.362    23655205.450
       218.000         159.000
  24731176.436    -5181243.49749  -4008960.97845  24731175.713    24731193.146
       209.000         143.000
  21181697.925   -24149629.40349 -18462506.53747  21181698.515    21181709.307
       240.000         202.000
  20854135.000   -25741400.00749 -20033638.24147  20854134.393    20854145.381
       243.000         212.000
  24027226.931    -5765773.08249  -4436124.41445  24027225.608    24027242.505
       211.000         145.000
  22859605.282   -12887762.65349 -10029854.42546  22859604.555    22859619.359
       224.000         173.000
  22516688.641   -13385237.92549 -10398153.86646  22516688.031    22516700.873
       227.000         182.000
  21495234.254   -20422133.51649 -15565234.37247  21495233.699    21495245.148
       238.000         197.000
  23571308.432    -6788701.19549  -5270505.71645  23571306.934    23571323.838
       214.000         155.000
  20756519.114   -25622297.18649 -18879688.96948  20756518.881    20756529.239
       243.000         213.000
 02  2 11  0 45 30.0000000  0 10G26G24G30G23G18G 5G17G10G15G 6
  23638786.800   -13443965.97549 -10144318.53245  23638786.049    23638801.217
       218.000         160.000
  24744703.087    -5110159.98549  -3953571.17145  24744702.829    24744719.911
       207.000         143.000
  21194021.721   -24084867.74749 -18412042.94047  21194022.264    21194033.069
       240.000         202.000
  20845843.429   -25784972.24149 -20067590.53747  20845842.913    20845853.687
       243.000         212.000
  24006836.777    -5872922.78349  -4519617.23245  24006835.224    24006852.603
       213.000         148.000
  22878485.223   -12788548.59849  -9952544.87146  22878485.034    22878500.388
       224.000         172.000
  22507335.563   -13434388.00349 -10436452.47346  22507335.196    22507347.555
       228.000         182.000
  21508303.679   -20353453.55249 -15511717.53447  21508303.361    21508314.771
       238.000         197.000
  23558236.936    -6857391.50149  -5324030.36445  23558235.323    23558252.009
       213.000         154.000
  20748395.228   -25664988.10849 -18912954.55248  20748394.925    20748405.337
       243.000         213.000
 02  2 11  0 46  0.0000000  0 10G26G24G30G23G18G 5G17G10G15G 6
  23622401.348   -13530071.40649 -10211413.47445  23622401.072    23622416.204
       216.000         159.000
  24758216.917    -5039143.95549  -3898233.97645  24758216.363    24758234.767
       210.000         143.000
  21206428.861   -24019668.04849 -18361238.01347  21206429.294    21206440.343
       240.000         202.000
  20837646.477   -25828047.45949 -20101155.55447  20837645.748    20837656.791
       243.000         212.000
  23986471.912    -5979938.70149  -4603005.82245  23986470.532    23986487.590
       213.000         151.000
  22897392.357   -12689191.27849  -9875123.70046  22897392.345    22897407.295
       223.000         171.000
  22498014.214   -13483371.50749 -10474621.28546  22498013.539    22498026.965
       229.000         184.000
  21521454.990   -20284343.06649 -15457865.22147  21521454.357    21521466.158
       237.000         197.000
  23545194.676    -6925927.80749  -5377435.02945  23545193.032    23545210.400
       214.000         154.000
  20740322.388   -25707410.69849 -18946011.04448  20740322.084    20740332.619
       243.000         213.000
 02  2 11  0 46 30.0000000  0 10G26G24G30G23G18G 5G17G10G15G 6
  23606034.912   -13616076.63449 -10278430.32745  23606035.012    23606049.466
       214.000         158.000
  24771717.965    -4968195.64349  -3842949.50245  24771717.667    24771734.819
       210.000         143.000
  21218918.720   -23954033.37349 -18310094.14647  21218919.128    21218930.358
       239.000         202.000
  20829544.107   -25870625.20749 -20134332.92447  20829543.587    20829554.487
       243.000         212.000
  23966132.905    -6086818.99449  -4686288.75145  23966131.293    23966148.568
       213.000         152.000
  22916326.186   -12589693.90849  -9797593.38346  22916325.378    22916341.188
       222.000         171.000
  22488724.397   -13532189.35349 -10512661.01546  22488723.631    22488736.641
       229.000         184.000
  21534687.658   -20214805.28349 -15403679.94547  21534686.956    21534698.903
       237.000         197.000
  23532181.618    -6994310.72049  -5430720.15745  23532180.331    23532197.857
       213.000         154.000
  20732300.872   -25749563.72749 -18978857.49048  20732300.627    20732311.059
       243.000         213.000
 02  2 11  0 47  0.0000000  0 10G26G24G30G23G18G 5G17G10G15G 6
  23589688.293   -13701977.92349 -10345366.18445  23589686.940    23589702.327
       210.000         155.000
  24785206.011    -4897314.85549  -3787717.63645  24785205.599    24785222.824
       207.000         142.000
  21231490.951   -23887965.84549 -18258612.99647  21231491.105    21231502.467
       240.000         202.000
  20821536.616   -25912704.42649 -20167121.83447  20821536.011    20821547.039
       242.000         212.000
  23945820.194    -6193561.26049  -4769464.13945  23945818.405    23945835.654
       214.000         152.000
  22935286.040   -12490059.13449  -9719956.00546  22935285.123    22935300.879
       221.000         169.000
  22479466.035   -13580841.74249 -10550571.82546  22479465.200    22479478.770
       229.000         184.000
  21548001.160   -20144842.50449 -15349163.50447  21548000.620    21548012.309
       237.000         197.000
  23519197.722    -7062540.21549  -5483885.74245  23519196.319    23519213.821
       215.000         154.000
  20724331.098   -25791444.83849 -19011492.05048  20724330.704    20724341.329
       242.000         213.000
 02  2 11  0 47 30.0000000  0 10G26G24G30G23G18G 5G17G10G15G 6
  23573362.026   -13787771.85049 -10412218.36845  23573361.501    23573377.291
       207.000         151.000
  24798681.234    -4826501.77649  -3732538.56545  24798681.210    24798698.446
       209.000         143.000
  21244145.052   -23821468.18649 -18206796.67247  21244145.794    21244156.749
       240.000         201.000
  20813624.144   -25954284.33449 -20199521.67047  20813623.618    20813634.416
       243.000         212.000
  23925534.233    -6300163.19849  -4852530.20145  23925533.098    23925549.550
       213.000         151.000
  22954271.486   -12390289.70549  -9642213.71046  22954271.279    22954286.893
       221.000         169.000
  22470239.025   -13629329.24849 -10588354.14846  22470238.248    22470251.710
       229.000         184.000
  21561394.985   -20074457.45649 -15294318.02347  21561394.327    21561406.318
       237.000         197.000
  23506243.104    -7130616.55549  -5536931.97245  23506241.897    23506258.123
       215.000         155.000
  20716413.449   -25833052.21949 -19043913.31448  20716413.216    20716423.649
       244.000         213.000
 02  2 11  0 48  0.0000000  0 10G26G24G30G23G18G 5G17G10G15G 6
  23557056.692   -13873455.21049 -10478984.38245  23557056.269    23557071.733
       207.000         149.000
  24812143.581    -4755756.62449  -3677412.39245  24812143.720    24812161.127
       209.000         141.000
  21256880.578   -23754542.81249 -18154647.06747  21256881.367    21256891.971
       240.000         201.000
  20805806.852   -25995364.07849 -20231531.76947  20805806.290    20805817.257
       244.000         212.000
  23905275.352    -6406622.64049  -4935485.24345  23905273.903    23905291.178
       213.000         151.000
  22973282.105   -12290388.49449  -9564368.72646  22973282.078    22973297.513
       222.000         168.000
  22461043.335   -13677652.24949 -10626008.29646  22461042.834    22461055.692
       229.000         184.000
  21574868.571   -20003652.97149 -15239145.71147  21574867.540    21574879.660
       236.000         196.000
  23493317.499    -7198539.68249  -5589858.81945  23493316.226    23493333.604
       215.000         155.000
  20708548.196   -25874384.17149 -19076119.95848  20708547.921    20708558.299
       244.000         213.000
 02  2 11  0 48 30.0000000  0 10G26G24G30G23G18G 5G17G10G15G 6
  23540773.213   -13959024.55849 -10545661.58845  23540772.832    23540789.161
       208.000         148.000
  24825592.886    -4685079.22949  -3622339.04245  24825592.320    24825609.993
       210.000         139.000
  21269697.002   -23687192.26949 -18102166.16147  21269697.465    21269708.227
       240.000         201.000
  20798084.872   -26035942.69149 -20263151.37747  20798084.146    20798095.202
       243.000         212.000
  23885044.118    -6512937.40749  -5018327.56845  23885042.349    23885059.732
       215.000         152.000
  22992317.413   -12190358.18349  -9486423.13346  22992317.520    22992331.799
       223.000         168.000
  22451878.875   -13725811.15849 -10663534.57646  22451878.028    22451891.141
       229.000         184.000
  21588421.540   -19932431.51949 -15183648.49147  21588420.677    21588432.966
       236.000         196.000
  23480421.070    -7266309.60649  -5642666.29445  23480419.724    23480436.154
       215.000         155.000
  20700735.747   -25915438.72249 -19108110.44548  20700735.629    20700745.891
       244.000         214.000
 02  2 11  0 49  0.0000000  0 10G26G24G30G23G18G 5G17G10G15G 6
  23524512.023   -14044476.58949 -10612247.37345  23524511.999    23524527.441
       210.000         149.000
  24839029.392    -4614470.07049  -3567318.84245  24839029.797    24839044.270
       209.000         141.000
  21282593.772   -23619419.36449 -18049356.14147  21282594.386    21282605.120
       240.000         201.000
  20790458.400   -26076019.76649 -20294380.17347  20790457.905    20790468.762
       244.000         212.000
  23864840.703    -6619105.20949  -5101055.39645  23864840.235    23864855.518
       216.000         152.000
  23011376.678   -12090201.82549  -9408379.32146  23011377.125    23011391.648
       222.000         169.000
  22442745.498   -13773806.74049 -10700933.59446  22442744.941    22442758.171
       229.000         185.000
  21602053.349   -19860796.05249 -15127828.65747  21602052.510    21602064.710
       236.000         196.000
  23467553.789    -7333926.75649  -5695354.72445  23467552.811    23467569.263
       217.000         156.000
  20692976.389   -25956214.12949 -19139883.41448  20692976.251    20692986.296
       244.000         214.000
 02  2 11  0 49 30.0000000  0 10G26G24G30G23G18G 5G17G10G15G 6
  23508273.927   -14129808.15249 -10678739.28145  23508273.261    23508287.970
       213.000         149.000
  24852452.895    -4543929.46349  -3512352.06945  24852453.335    24852469.492
       210.000         140.000
  21295570.419   -23551226.66149 -17996219.00847  21295570.873    21295582.132
       240.000         201.000
  20782927.524   -26115594.55349 -20325217.57948  20782926.999    20782937.894
       244.000         213.000
  23844665.760    -6725124.04049  -5183667.14545  23844664.232    23844681.423
       216.000         152.000
  23030459.301   -11989922.32249  -9330239.54946  23030458.825    23030474.970
       223.000         169.000
  22433643.129   -13821639.73349 -10738205.91946  22433642.492    22433655.553
       229.000         185.000
  21615763.383   -19788749.32849 -15071688.36847  21615762.859    21615775.135
       236.000         196.000
  23454715.482    -7401391.55549  -5747924.42445  23454714.169    23454729.978
       217.000         158.000
  20685270.509   -25996708.68349 -19171437.54148  20685270.265    20685280.547
       244.000         214.000
 02  2 11  0 50  0.0000000  0 10G26G24G30G23G18G 5G17G10G15G 6
  23492059.333   -14215015.34249 -10745134.27845  23492059.136    23492074.282
       214.000         150.000
  24865863.387    -4473457.02949  -3457438.41045  24865863.171    24865879.201
       209.000         140.000
  21308626.523   -23482616.67549 -17942756.72247  21308627.104    21308638.228
       239.000         200.000
  20775492.402   -26154666.13949 -20355662.87848  20775491.876    20775502.662
       244.000         213.000
  23824519.558    -6830991.53349  -5266160.98545  23824518.929    23824534.964
       212.000         150.000
  23049564.908   -11889522.11649  -9252005.73946  23049564.688    23049579.444
       222.000         168.000
  22424571.651   -13869310.11649 -10775351.54646  22424571.282    22424584.067
       231.000         185.000
  21629551.235   -19716293.79949 -15015229.52647  21629550.704    21629562.501
       236.000         195.000
  23441906.119    -7468703.92649  -5800375.36145  23441904.877    23441921.749
       218.000         159.000
  20677618.490   -26036919.96149 -19202770.93448  20677618.363    20677628.427
       244.000         214.000
 02  2 11  0 50 30.0000000  0  9G26G30G23G18G 5G17G10G15G 6
  23475869.111   -14300094.74849 -10811429.69745  23475867.495    23475882.835
       212.000         149.000
  21321761.558   -23413591.61149 -17888970.99547  21321762.031    21321772.973
       239.000         200.000
  20768153.207   -26193233.49449 -20385715.27548  20768152.507    20768163.349
       243.000         213.000
  23804402.656    -6936704.96949  -5348534.78845  23804400.397    23804417.160
       214.000         150.000
  23068693.046   -11789003.72549  -9173679.83146  23068693.246    23068707.341
       221.000         167.000
  22415531.077   -13916818.22349 -10812370.72146  22415529.991    22415542.950
       230.000         185.000
  21643416.447   -19643431.86649 -14958454.01047  21643415.775    21643427.759
       236.000         195.000
  23429125.844    -7535863.72049  -5852707.41245  23429124.994    23429141.843
       218.000         160.000
  20670020.784   -26076845.97049 -19233882.03848  20670020.573    20670030.694
       244.000         214.000
 02  2 11  0 51  0.0000000  0  9G26G30G23G18G 5G17G10G15G 6
  23459703.533   -14385043.62249 -10877623.40945  23459702.416    23459717.616
       213.000         150.000
  21334974.923   -23344154.95249 -17834864.54547  21334975.384    21334986.557
       240.000         200.000
  20760909.928   -26231296.81649 -20415374.91148  20760909.372    20760919.991
       244.000         213.000
  23784315.359    -7042263.00349  -5430787.49545  23784314.332    23784330.694
       213.000         151.000
  23087842.981   -11688370.67649  -9095264.58446  23087843.299    23087857.625
       221.000         167.000
  22406521.134   -13964165.24249 -10849264.37646  22406520.808    22406533.215
       230.000         185.000
  21657358.278   -19570167.25749 -14901364.71747  21657357.503    21657369.448
       236.000         195.000
  23416374.499    -7602871.80049  -5904921.24045  23416372.962    23416389.817
       221.000         161.000
  20662477.596   -26116485.47149 -19264769.88448  20662477.405    20662487.483
       244.000         214.000
 02  2 11  0 51 30.0000000  0  9G26G30G23G18G 5G17G10G15G 6
  23443563.734   -14469857.96349 -10943712.27445  23443563.389    23443578.644
       212.000         150.000
  21348266.289   -23274308.62249 -17780438.86447  21348266.862    21348277.640
       239.000         200.000
  20753762.838   -26268854.72649 -20444640.71948  20753762.289    20753772.842
       243.000         213.000
  23764258.152    -7147662.75149  -5512916.86245  23764257.767    23764273.875
       214.000         151.000
  23107014.397   -11587625.00149  -9016761.56446  23107014.007    23107029.633
       222.000         168.000
  22397541.905   -14011351.12749 -10886032.47046  22397541.754    22397554.048
       231.000         186.000
  21671376.382   -19496501.73349 -14843963.02147  21671375.769    21671387.581
       236.000         194.000
  23403652.079    -7669727.97149  -5957016.71845  23403651.389    23403666.980
       220.000         162.000
  20654989.366   -26155835.91549 -19295432.49448  20654989.248    20654999.349
       244.000         214.000
 02  2 11  0 52  0.0000000  0  9G26G30G23G18G 5G17G10G15G 6
  23427450.227   -14554534.11849 -11009693.43745  23427449.634    23427464.605
       214.000         151.000
  21361635.082   -23204055.18549 -17725695.96247  21361635.448    21361646.929
       239.000         199.000
  20746712.000   -26305906.48349 -20473512.12248  20746711.381    20746721.997
       243.000         213.000
  23744231.587    -7252901.83849  -5594921.04545  23744230.311    23744246.486
       214.000         152.000
  23126206.713   -11486769.38549  -8938172.87446  23126206.450    23126221.293
       220.000         167.000
  22388593.224   -14058376.23749 -10922675.28046  22388592.260    22388605.928
       229.000         186.000
  21685470.182   -19422438.15749 -14786251.15047  21685469.342    21685481.271
       235.000         194.000
  23390958.527    -7736432.12849  -6008993.75146  23390957.577    23390973.666
       219.000         163.000
  20647556.540   -26194895.39549 -19325868.38048  20647556.194    20647566.385
       244.000         214.000
 02  2 11  0 52 30.0000000  0  9G26G30G23G18G 5G17G10G15G 6
  23411363.664   -14639068.84449 -11075564.39545  23411363.101    23411378.365
       213.000         152.000
  21375080.874   -23133397.28849 -17670637.89947  21375081.199    21375092.342
       239.000         199.000
  20739757.639   -26342451.64249 -20501988.77648  20739757.035    20739767.733
       244.000         213.000
  23724235.843    -7357978.36749  -5676798.53445  23724234.904    23724251.429
       213.000         152.000
  23145419.305   -11385806.64349  -8859500.71546  23145418.950    23145434.383
       219.000         166.000
  22379674.953   -14105241.15849 -10959193.26746  22379674.214    22379687.046
       230.000         186.000
  21699639.184   -19347979.41249 -14728231.35947  21699638.583    21699650.397
       235.000         194.000
  23378293.872    -7802984.45249  -6060852.49646  23378292.275    23378308.053
       219.000         163.000
  20640179.428   -26233662.24049 -19356076.24248  20640179.261    20640189.007
       244.000         214.000
 02  2 11  0 53  0.0000000  0  9G26G30G23G18G 5G17G10G15G 6
  23395304.637   -14723458.33549 -11141322.17745  23395305.197    23395319.468
       215.000         154.000
  21388603.138   -23062337.22549 -17615266.45647  21388603.488    21388614.612
       239.000         199.000
  20732899.855   -26378489.11049 -20530069.82548  20732899.342    20732909.908
       244.000         213.000
  23704271.551    -7462889.59149  -5758547.20845  23704269.985    23704286.508
       212.000         153.000
  23164651.802   -11284739.30449  -8780747.05746  23164651.805    23164666.909
       217.000         164.000
  22370787.184   -14151945.95449 -10995586.48946  22370786.687    22370799.658
       230.000         186.000
  21713882.952   -19273127.69849 -14669905.35747  21713881.872    21713894.166
       234.000         193.000
  23365658.077    -7869384.72949  -6112592.76046  23365657.012    23365672.757
       221.000         163.000
  20632858.429   -26272133.98649 -19386054.15648  20632858.239    20632868.401
       243.000         214.000
 02  2 11  0 53 30.0000000  0  9G26G30G23G18G 5G17G10G15G 6
  23379273.921   -14807699.81649 -11206964.63845  23379273.016    23379288.506
       215.000         156.000
  21402201.307   -22990878.46049 -17559584.34547  21402201.804    21402213.171
       238.000         199.000
  20726138.684   -26414019.11449 -20557755.45048  20726138.033    20726148.631
       244.000         213.000
  23684339.042    -7567633.81349  -5840165.74545  23684337.654    23684354.049
       214.000         153.000
  23183903.572   -11183570.81949  -8701914.58746  23183902.978    23183918.383
       218.000         163.000
  22361929.743   -14198491.83149 -11031855.88846  22361929.109    22361941.791
       231.000         187.000
  21728200.863   -19197886.43349 -14611275.81447  21728200.140    21728212.468
       234.000         192.000
  23353051.118    -7935634.10149  -6164215.43746  23353049.840    23353065.996
       220.000         164.000
  20625593.785   -26310309.55349 -19415801.28748  20625593.399    20625603.692
       244.000         214.000
 02  2 11  0 54  0.0000000  0  9G26G30G23G18G 5G17G10G15G 6
  23363271.952   -14891789.53049 -11272488.84345  23363271.624    23363286.562
       217.000         158.000
  21415874.902   -22919023.15049 -17503593.23347  21415875.338    21415887.105
       238.000         199.000
  20719474.208   -26449040.83549 -20585045.01048  20719473.737    20719484.063
       244.000         213.000
  23664438.805    -7672208.66449  -5921652.29045  23664438.300    23664453.993
       214.000         153.000
  23203174.174   -11082303.55949  -8623005.13445  23203174.267    23203189.085
       217.000         162.000
  22353102.534   -14244878.83649 -11068001.49446  22353101.570    22353114.284
       231.000         187.000
  21742592.426   -19122258.19349 -14552344.73847  21742591.947    21742603.761
       235.000         192.000
  23340472.884    -8001732.30649  -6215720.33646  23340471.448    23340487.811
       221.000         165.000
  20618385.931   -26348186.71849 -19445315.89848  20618385.699    20618395.881
       244.000         214.000
 02  2 11  0 54 30.0000000  0  9G26G30G23G18G 5G17G10G15G 6
  23347299.538   -14975724.53449 -11337892.50245  23347299.101    23347313.689
       218.000         160.000
  21429623.362   -22846774.74649 -17447295.81147  21429623.790    21429634.936
       238.000         198.000
  20712906.464   -26483554.20749 -20611938.45248  20712905.884    20712916.561
       244.000         213.000
  23644571.177    -7776612.57049  -6003005.62345  23644570.934    23644586.644
       215.000         152.000
  23222462.932   -10980940.91849  -8544021.35445  23222462.824    23222478.789
       219.000         162.000
  22344305.266   -14291108.27849 -11104024.32846  22344304.460    22344317.174
       230.000         186.000
  21757057.019   -19046246.22349 -14493114.65047  21757056.663    21757068.476
       234.000         193.000
  23327923.208    -8067680.14449  -6267108.04446  23327922.795    23327937.484
       221.000         165.000
  20611235.125   -26385764.12249 -19474596.93548  20611234.989    20611245.171
       244.000         214.000
 02  2 11  0 55  0.0000000  0  9G26G30G23G18G 5G17G10G15G 6
  23331357.369   -15059500.78349 -11403172.45945  23331357.487    23331371.381
       218.000         160.000
  21443446.189   -22774135.31149 -17390693.68747  21443446.531    21443457.463
       238.000         198.000
  20706435.681   -26517557.91149 -20638434.74948  20706434.953    20706445.622
       244.000         213.000
  23624736.689    -7880842.55349  -6084223.43645  23624735.496    23624751.994
       214.000         152.000
  23241769.490   -10879484.68449  -8464964.65346  23241769.398    23241785.067
       217.000         163.000
  22335538.014   -14337179.84949 -11139924.14046  22335537.119    22335549.647
       230.000         187.000
  21771594.248   -18969852.89749 -14433587.39847  21771593.689    21771605.397
       234.000         193.000
  23315402.247    -8133477.15449  -6318378.23246  23315401.393    23315417.300
       220.000         165.000
  20604141.886   -26423039.10349 -19503642.31548  20604141.720    20604151.696
       244.000         214.000
 02  2 11  0 55 30.0000000  0  9G26G30G23G18G 5G17G10G15G 6
  23315445.750   -15143115.51649 -11468326.57645  23315444.863    23315459.204
       218.000         160.000
  21457342.865   -22701107.95049 -17333789.28147  21457343.230    21457354.908
       238.000         197.000
  20700061.845   -26551052.23649 -20664534.13048  20700061.366    20700071.701
       244.000         213.000
  23604935.524    -7984897.08149  -6165304.50945  23604933.455    23604950.492
       215.000         152.000
  23261093.163   -10777938.42649  -8385837.80846  23261092.880    23261108.853
       217.000         164.000
  22326800.618   -14383094.66949 -11175701.80046  22326800.118    22326812.500
       231.000         187.000
  21786203.456   -18893081.23849 -14373765.34247  21786202.846    21786214.933
       235.000         193.000
  23302909.898    -8199124.17249  -6369531.53446  23302908.742    23302925.025
       220.000         166.000
  20597106.457   -26460010.39249 -19532451.05148  20597106.310    20597116.280
       244.000         214.000
 02  2 11  0 56  0.0000000  0  9G26G30G23G18G 5G17G10G15G 6
  23299565.794   -15226564.68549 -11533351.69845  23299565.786    23299579.745
       217.000         160.000
  21471312.941   -22627694.85449 -17276584.30747  21471313.529    21471324.928
       238.000         197.000
  20693785.198   -26584035.98749 -20690235.66448  20693784.641    20693795.186
       244.000         213.000
  23585168.334    -8088773.28849  -6246246.62745  23585166.939    23585182.423
       215.000         154.000
  23280433.576   -10676304.23949  -8306642.45346  23280433.841    23280448.976
       217.000         164.000
  22318093.144   -14428852.58349 -11211357.19846  22318092.706    22318105.034
       231.000         187.000
  21800884.270   -18815933.30549 -14313650.09147  21800883.472    21800895.867
       235.000         193.000
  23290446.194    -8264620.59749  -6420567.49246  23290445.290    23290460.335
       219.000         166.000
  20590129.263   -26496675.44849 -19561021.16848  20590129.090    20590139.236
       244.000         214.000
 02  2 11  0 56 30.0000000  0  9G26G30G23G18G 5G17G10G15G 6
  23283717.905   -15309844.96849 -11598245.22845  23283717.918    23283731.835
       219.000         159.000
  21485355.826   -22553899.14149 -17219081.19347  21485356.167    21485367.873
       238.000         197.000
  20687605.737   -26616509.02549 -20715539.23948  20687605.019    20687615.745
       244.000         214.000
  23565435.333    -8192469.19349  -6327048.25045  23565434.059    23565449.990
       216.000         156.000
  23299790.049   -10574585.31049  -8227381.07146  23299789.761    23299804.535
       216.000         163.000
  22309415.315   -14474454.29549 -11246890.87946  22309414.674    22309427.366
       231.000         187.000
  21815636.050   -18738412.33449 -14253244.14647  21815635.450    21815647.261
       235.000         193.000
  23278011.013    -8329966.89549  -6471486.47146  23278009.869    23278025.620
       220.000         166.000
  20583210.637   -26533032.80349 -19589351.51648  20583210.330    20583220.433
       244.000         214.000
 02  2 11  0 57  0.0000000  0  9G26G30G23G18G 5G17G10G15G 6
  23267902.922   -15392952.84749 -11663004.42045  23267902.456    23267916.454
       218.000         159.000
  21499471.065   -22479723.39049 -17161281.94447  21499471.506    21499482.776
       237.000         197.000
  20681523.503   -26648470.93549 -20740444.53648  20681522.890    20681533.314
       244.000         214.000
  23545737.159    -8295982.56149  -6407707.62645  23545735.986    23545751.915
       217.000         157.000
  23319162.266   -10472784.13649  -8148055.58745  23319161.780    23319177.145
       215.000         162.000
  22300767.080   -14519900.45349 -11282303.34647  22300766.141    22300779.136
       231.000         188.000
  21830458.233   -18660521.13349 -14192549.71347  21830457.519    21830469.680
       235.000         192.000
  23265604.396    -8395163.22849  -6522288.58246  23265603.798    23265618.873
       219.000         166.000
  20576350.964   -26569080.35349 -19617440.46148  20576350.749    20576360.848
       244.000         214.000
 02  2 11  0 57 30.0000000  0  9G26G30G23G18G 5G17G10G15G 6
  23252121.232   -15475885.15249 -11727626.81645  23252120.272    23252135.373
       218.000         160.000
  21513658.054   -22405170.43649 -17103188.76347  21513658.614    21513669.631
       237.000         197.000
  20675538.583   -26679921.39249 -20764951.29848  20675538.043    20675548.469
       244.000         214.000
  23526074.031    -8399311.39849  -6488223.21045  23526072.299    23526088.312
       217.000         157.000
  23338549.522   -10370903.87449  -8068668.48545  23338549.778    23338565.048
       215.000         162.000
  22292148.415   -14565191.53349 -11317594.97147  22292147.437    22292160.783
       230.000         188.000
  21845350.365   -18582262.62649 -14131569.06747  21845349.289    21845361.703
       234.000         192.000
  23253226.229    -8460210.19749  -6572974.31246  23253225.097    23253240.404
       219.000         166.000
  20569550.562   -26604816.34249 -19645286.62748  20569550.257    20569560.428
       244.000         214.000
 02  2 11  0 58  0.0000000  0  9G26G30G23G18G 5G17G10G15G 6
  23236373.730   -15558637.89349 -11792109.28845  23236373.433    23236387.094
       214.000         159.000
  21527916.337   -22330242.69749 -17044803.54947  21527916.833    21527928.033
       237.000         197.000
  20669651.167   -26710859.61949 -20789058.91848  20669650.599    20669661.039
       244.000         214.000
  23506446.572    -8502453.19249  -6568593.06245  23506444.917    23506460.551
       216.000         157.000
  23357951.373   -10268946.68449  -7989221.43245  23357951.746    23357966.122
       214.000         161.000
  22283559.193   -14610327.64649 -11352765.83547  22283558.623    22283571.091
       232.000         188.000
  21860311.914   -18503639.04849 -14070303.95547  21860311.181    21860322.894
       234.000         191.000
  23240876.517    -8525107.46649  -6623543.38746  23240875.836    23240891.129
       219.000         165.000
  20562809.883   -26640238.56449 -19672888.29748  20562809.603    20562819.799
       244.000         214.000
 02  2 11  0 58 30.0000000  0  9G26G30G23G18G 5G17G10G15G 6
  23220660.956   -15641208.11649 -11856449.52545  23220660.711    23220674.609
       216.000         160.000
  21542245.347   -22254943.49749 -16986128.88547  21542245.953    21542256.893
       237.000         196.000
  20663861.192   -26741285.73849 -20812767.49348  20663860.497    20663871.091
       244.000         214.000
  23486854.933    -8605406.34749  -6648815.91745  23486854.079    23486868.566
       218.000         158.000
  23377367.340   -10166915.58249  -7909716.79445  23377367.685    23377382.522
       216.000         160.000
  22274999.309   -14655309.76649 -11387816.71147  22274998.320    22275010.446
       231.000         188.000
  21875342.383   -18424653.55249 -14008756.82247  21875341.486    21875353.175
       234.000         190.000
  23228555.181    -8589855.56749  -6673996.22446  23228554.456    23228569.561
       219.000         165.000
  20556129.172   -26675345.59549 -19700244.36548  20556128.998    20556139.018
       244.000         214.000
 02  2 11  0 59  0.0000000  0  9G26G30G23G18G 5G17G10G15G 6
  23204983.653   -15723591.95849 -11920644.54845  23204983.604    23204997.247
       218.000         162.000
  21556644.573   -22179275.08349 -16927166.52547  21556644.775    21556656.502
       237.000         196.000
  20658168.802   -26771199.03549 -20836076.46848  20658168.218    20658178.492
       244.000         214.000
  23467299.812    -8708168.13449  -6728889.66345  23467298.347    23467313.475
       218.000         159.000
  23396797.037   -10064812.93849  -7830156.39045  23396796.665    23396812.216
       217.000         161.000
  22266468.628   -14700138.22449 -11422747.84547  22266467.965    22266480.047
       232.000         188.000
  21890441.119   -18345308.93749 -13946929.86347  21890440.443    21890452.596
       233.000         189.000
  23216262.269    -8654454.34949  -6724332.71146  23216260.597    23216277.422
       222.000         164.000
  20549508.875   -26710135.39249 -19727353.22948  20549508.651    20549518.597
       244.000         214.000
 02  2 11  0 59 30.0000000  0  9G26G30G23G18G 5G17G10G15G 6
  23189342.410   -15805786.38049 -11984691.96846  23189341.813    23189356.222
       219.000         164.000
  21571113.478   -22103240.76149 -16867919.03547  21571113.779    21571125.350
       237.000         196.000
  20652573.992   -26800599.59049 -20858985.90548  20652573.371    20652583.833
       244.000         214.000
  23447781.278    -8810736.89349  -6808812.99645  23447779.910    23447795.062
       218.000         159.000
  23416239.662    -9962641.93249  -7750542.73845  23416239.585    23416254.999
       217.000         161.000
  22257967.063   -14744813.74049 -11457559.80647  22257966.331    22257978.887
       232.000         188.000
  21905607.704   -18265608.04249 -13884825.27847  21905607.004    21905619.021
       233.000         189.000
  23203997.639    -8718904.62549  -6774553.46846  23203995.818    23204011.752
       218.000         165.000
  20542949.277   -26744606.13149 -19754213.47548  20542949.132    20542958.960
       244.000         214.000
 02  2 11  1  0  0.0000000  0  9G26G30G23G18G 5G17G10G15G 6
  23173737.965   -15887787.65849 -12048588.90546  23173737.705    23173751.780
       218.000         164.000
  21585651.504   -22026843.10749 -16808388.43747  21585652.094    21585663.519
       237.000         195.000
  20647076.867   -26829486.96749 -20881495.46248  20647076.257    20647086.666
       244.000         214.000
  23428300.039    -8913110.10949  -6888583.95345  23428298.347    23428313.801
       218.000         159.000
  23435694.706    -9860405.14849  -7670877.82045  23435694.286    23435710.314
       217.000         161.000
  22249494.568   -14789336.53549 -11492252.76247  22249494.226    22249506.523
       232.000         189.000
  21920841.545   -18185553.69549 -13822445.27547  21920841.048    21920852.701
       233.000         189.000
  23191761.276    -8783206.12749  -6824658.30146  23191759.849    23191775.129
       219.000         165.000
  20536450.757   -26778755.76249 -19780823.51148  20536450.471    20536460.488
       244.000         214.000
 02  2 11  1  0 30.0000000  0  9G26G30G23G18G 5G17G10G15G 6
  23158170.878   -15969592.49549 -12112332.76046  23158170.412    23158184.273
       218.000         164.000
  21600258.147   -21950084.81149 -16748576.81547  21600258.642    21600270.195
       237.000         195.000
  20641677.388   -26857860.89649 -20903604.93348  20641676.725    20641686.925
       244.000         214.000
  23408856.378    -9015285.76049  -6968200.97545  23408855.457    23408870.230
       219.000         160.000
  23455161.806    -9758105.36449  -7591163.81245  23455161.610    23455177.134
       218.000         162.000
  22241051.020   -14833707.28549 -11526827.24947  22241050.181    22241062.657
       232.000         189.000
  21936142.203   -18105148.46349 -13759791.86247  21936141.255    21936153.334
       233.000         189.000
  23179553.153    -8847359.35749  -6874647.60046  23179552.510    23179566.991
       221.000         166.000
  20530013.700   -26812582.60949 -19807182.02448  20530013.507    20530023.356
       244.000         214.000
 02  2 11  1  1  0.0000000  0  9G26G30G23G18G 5G17G10G15G 6
  23142641.828   -16051197.39449 -12175920.82045  23142641.463    23142655.741
       217.000         161.000
  21614932.858   -21872969.07149 -16688486.66347  21614933.573    21614944.721
       237.000         196.000
  20636375.691   -26885721.20249 -20925314.17848  20636375.255    20636385.598
       244.000         214.000
  23389450.739    -9117261.82049  -7047662.48445  23389449.951    23389464.127
       219.000         161.000
  23474640.402    -9655745.32149  -7511402.85545  23474640.654    23474655.880
       218.000         162.000
  22232636.288   -14877926.59249 -11561283.72047  22232635.757    22232647.583
       232.000         189.000
  21951508.964   -18024395.55449 -13696867.53347  21951508.167    21951520.457
       233.000         190.000
  23167373.199    -8911364.66449  -6924521.63446  23167371.852    23167387.475
       220.000         166.000
  20523638.418   -26846084.74149 -19833287.51548  20523638.211    20523648.138
       244.000         214.000
 02  2 11  1  1 30.0000000  0  9G26G30G23G18G 5G17G10G15G 6
  23127151.489   -16132598.71849 -12239350.25645  23127150.887    23127164.682
       215.000         159.000
  21629675.074   -21795498.24749 -16628119.83147  21629675.657    21629686.853
       237.000         195.000
  20631171.816   -26913067.40249 -20946622.81648  20631171.157    20631181.365
       244.000         214.000
  23370083.524    -9219035.84349  -7126966.56345  23370082.938    23370095.889
       219.000         161.000
  23494129.888    -9553327.61249  -7431596.95445  23494130.042    23494145.618
       217.000         162.000
  22224250.297   -14921994.68249 -11595622.37247  22224249.452    22224261.461
       232.000         189.000
  21966941.444   -17943297.37149 -13633674.15447  21966940.763    21966952.771
       233.000         190.000
  23155221.334    -8975222.17549  -6974280.52346  23155220.185    23155235.291
       221.000         166.000
  20517325.331   -26879260.02949 -19859138.32048  20517325.331    20517334.701
       244.000         215.000
 02  2 11  1  2  0.0000000  0  9G26G30G23G18G 5G17G10G15G 6
  23111700.470   -16213793.04949 -12302618.40445  23111699.523    23111714.206
       217.000         158.000
  21644484.265   -21717675.37249 -16567478.67247  21644484.445    21644496.079
       237.000         195.000
  20626065.800   -26939899.30749 -20967530.70848  20626065.302    20626075.670
       244.000         214.000
  23350755.139    -9320605.82349  -7206111.65545  23350753.820    23350768.629
       217.000         161.000
  23513629.835    -9450854.90349  -7351748.20145  23513629.263    23513645.389
       216.000         160.000
  22215893.011   -14965912.22149 -11629843.71147  22215892.438    22215904.305
       233.000         189.000
  21982439.050   -17861856.91549 -13570214.07047  21982438.564    21982450.608
       233.000         190.000
  23143097.627    -9038932.03849  -7023924.35546  23143095.978    23143112.032
       221.000         167.000
  20511074.775   -26912106.82249 -19884733.15848  20511074.629    20511084.237
       245.000         215.000
 02  2 11  1  2 30.0000000  0  9G26G30G23G18G 5G17G10G15G 6
  23096289.681   -16294776.71149 -12365722.39045  23096289.891    23096303.593
       219.000         159.000
  21659359.980   -21639503.04149 -16506565.21347  21659360.537    21659371.751
       237.000         194.000
  20621057.746   -26966216.60549 -20988037.60348  20621057.209    20621067.591
       244.000         215.000
  23331465.966    -9421969.43749  -7285095.93045  23331464.513    23331477.999
       217.000         160.000
  23533139.687    -9348329.77149  -7271858.59545  23533139.367    23533154.794
       215.000         158.000
  22207564.333   -15009679.45449 -11663947.93547  22207563.514    22207575.581
       232.000         190.000
  21998001.310   -17780076.71749 -13506489.25647  21998000.971    21998012.819
       233.000         190.000
  23131001.938    -9102494.27349  -7073453.15146  23131001.211    23131016.278
       221.000         166.000
  20504887.181   -26944622.77049 -19910070.18848  20504887.032    20504896.511
       245.000         215.000
 02  2 11  1  3  0.0000000  0  9G26G30G23G18G 5G17G10G15G 6
  23080919.670   -16375546.64649 -12428659.83846  23080920.012    23080933.166
       220.000         163.000
  21674301.679   -21560984.42949 -16445381.91947  21674302.403    21674313.346
       237.000         194.000
  20616147.555   -26992019.54349 -21008143.70348  20616146.849    20616157.232
       244.000         215.000
  23312216.472    -9523124.73149  -7363917.89745  23312215.499    23312229.662
       219.000         160.000
  23552659.068    -9245755.21649  -7191930.49145  23552659.423    23552674.812
       214.000         157.000
  22199264.003   -15053297.34049 -11697935.77547  22199263.430    22199275.684
       232.000         190.000
  22013627.639   -17697959.96849 -13442502.20247  22013627.263    22013638.991
       233.000         189.000
  23118934.222    -9165909.42549  -7122867.35246  23118933.186    23118947.717
       221.000         166.000
  20498762.779   -26976806.60449 -19935148.42948  20498762.752    20498772.129
       245.000         215.000
 02  2 11  1  3 30.0000000  0  9G26G30G23G18G 5G17G10G15G 6
  23065590.979   -16456099.22549 -12491427.91146  23065590.754    23065604.305
       221.000         165.000
  21689308.684   -21482122.50449 -16383931.10947  21689309.264    21689320.605
       236.000         194.000
  20611335.278   -27017307.89149 -21027848.82548  20611334.700    20611344.907
       244.000         214.000
  23293006.943    -9624069.76549  -7442576.02145  23293005.218    23293021.016
       219.000         161.000
  23572187.382    -9143133.93249  -7111965.96445  23572186.975    23572202.910
       215.000         156.000
  22190992.029   -15096766.21949 -11731807.50347  22190991.376    22191003.432
       232.000         190.000
  22029317.514   -17615509.31849 -13378254.96047  22029316.781    22029328.565
       232.000         188.000
  23106894.510    -9229177.72049  -7172167.11746  23106893.670    23106908.730
       222.000         166.000
  20492701.977   -27008656.46449 -19959966.43548  20492701.878    20492711.141
       245.000         215.000
 02  2 11  1  4  0.0000000  0  9G26G30G23G18G 5G17G10G15G 6
  23050304.215   -16536430.99249 -12554023.92446  23050303.647    23050317.550
       220.000         166.000
  21704380.412   -21402920.04749 -16322214.95947  21704380.640    21704392.327
       236.000         194.000
  20606620.951   -27042081.36949 -21047152.75548  20606620.314    20606630.500
       244.000         214.000
  23273837.923    -9724802.40749  -7521068.65045  23273836.908    23273851.328
       219.000         162.000
  23591724.104    -9040468.55149  -7031967.07945  23591723.670    23591739.202
       214.000         156.000
  22182748.317   -15140086.64149 -11765563.54947  22182747.503    22182760.035
       232.000         190.000
  22045070.366   -17532727.48649 -13313749.66046  22045069.616    22045081.715
       231.000         187.000
  23094882.721    -9292299.38549  -7221352.63646  23094882.036    23094896.688
       223.000         167.000
  20486705.022   -27040170.50449 -19984522.76048  20486704.919    20486714.093
       245.000         215.000
 02  2 11  1  4 30.0000000  0  9G26G30G23G18G 5G17G10G15G 6
  23035060.171   -16616538.53449 -12616445.20046  23035059.110    23035073.457
       219.000         166.000
  21719516.428   -21323379.81849 -16260235.60447  21719516.921    21719528.322
       236.000         193.000
  20602004.663   -27066339.95649 -21066055.47148  20602004.019    20602014.288
       244.000         214.000
  23254709.710    -9825320.57449  -7599394.15345  23254708.380    23254722.907
       222.000         162.000
  23611268.681    -8937761.72549  -6951935.88645  23611267.739    23611284.996
       214.000         155.000
  22174532.717   -15183259.18649 -11799204.37847  22174532.141    22174544.459
       233.000         190.000
  22060885.616   -17449617.78949 -13248988.87946  22060884.927    22060897.254
       231.000         186.000
  23082898.757    -9355274.89149  -7270424.26746  23082897.533    23082912.518
       223.000         168.000
  20480772.343   -27071346.76849 -20008815.88448  20480772.146    20480781.567
       245.000         215.000
 02  2 11  1  5  0.0000000  0  9G26G30G23G18G 5G17G10G15G 6
  23019859.375   -16696418.15849 -12678688.87446  23019858.164    23019872.448
       216.000         164.000
  21734716.273   -21243504.55049 -16197995.17947  21734716.609    21734727.803
       236.000         193.000
  20597486.358   -27090083.36649 -21084556.75248  20597485.787    20597495.975
       244.000         214.000
  23235622.776    -9925621.86949  -7677550.66146  23235621.224    23235636.477
       221.000         163.000
  23630820.625    -8835016.02049  -6871874.41245  23630820.294    23630835.967
       214.000         154.000
  22166345.294   -15226284.02949 -11832730.09947  22166344.689    22166356.775
       232.000         190.000
  22076762.861   -17366182.37149 -13183974.29246  22076762.206    22076773.354
       230.000         186.000
  23070942.562    -9418104.27449  -7319382.03546  23070941.390    23070956.567
       222.000         168.000
  20474904.312   -27102183.11649 -20032844.13648  20474903.979    20474913.459
       245.000         216.000
 02  2 11  1  5 30.0000000  0  9G26G30G23G18G 5G17G10G15G 6
  23004702.607   -16776066.55049 -12740752.36145  23004702.456    23004715.005
       217.000         161.000
  21749979.303   -21163297.08849 -16135495.90247  21749979.792    21749990.862
       236.000         193.000
  20593066.059   -27113311.86649 -21102656.80648  20593065.617    20593075.816
       244.000         215.000
  23216577.503   -10025704.09549  -7755536.47546  23216576.039    23216589.866
       221.000         163.000
  23650379.500    -8732234.13249  -6791784.74945  23650379.143    23650394.809
       214.000         153.000
  22158185.795   -15269161.83949 -11866141.25747  22158184.758    22158197.205
       232.000         190.000
  22092701.551   -17282424.12949 -13118708.15246  22092701.001    22092713.126
       232.000         185.000
  23059014.126    -9480787.79849  -7368226.14946  23059013.097    23059027.075
       222.000         167.000
  20469101.297   -27132677.88949 -20056606.22648  20469101.046    20469110.545
       245.000         216.000
 02  2 11  1  6  0.0000000  0  9G26G30G23G18G 5G17G10G15G 6
  22989590.608   -16855480.09149 -12802632.86945  22989590.518    22989604.064
       220.000         161.000
  21765304.919   -21082760.36749 -16072740.06247  21765304.763    21765316.451
       235.000         192.000
  20588743.847   -27136025.03549 -21120355.30648  20588743.420    20588753.426
       245.000         215.000
  23197574.323   -10125565.08949  -7833349.90546  23197572.615    23197587.012
       221.000         163.000
  23669944.682    -8629418.62949  -6711668.88645  23669944.378    23669960.565
       212.000         152.000
  22150054.206   -15311892.95449 -11899438.11047  22150053.217    22150065.157
       232.000         190.000
  22108701.180   -17198346.00149 -13053192.75646  22108700.055    22108712.262
       231.000         186.000
  23047113.472    -9543325.51649  -7416956.64646  23047112.356    23047126.749
       223.000         166.000
  20463363.654   -27162829.02149 -20080100.54648  20463363.378    20463372.994
       245.000         216.000
 02  2 11  1  6 30.0000000  0  9G26G30G23G18G 5G17G10G15G 6
  22974523.869   -16934655.61849 -12864327.92245  22974523.938    22974537.549
       221.000         162.000
  21780692.615   -21001897.72449 -16009730.25147  21780693.110    21780704.245
       236.000         192.000
  20584519.561   -27158223.45549 -21137652.70248  20584518.954    20584529.189
       244.000         215.000
  23178613.493   -10225203.39949  -7910989.82845  23178612.181    23178625.623
       222.000         162.000
  23689515.721    -8526572.61749  -6631529.25645  23689515.640    23689530.110
       209.000         150.000
  22141950.360   -15354478.27349 -11932621.35447  22141949.857    22141961.547
       232.000         190.000
  22124760.923   -17113951.43549 -12987430.78046  22124760.627    22124772.249
       232.000         186.000
  23035240.444    -9605718.01649  -7465574.00146  23035239.076    23035254.449
       222.000         167.000
  20457691.673   -27192635.12449 -20103326.01248  20457691.365    20457700.973
       245.000         216.000
 02  2 11  1  7  0.0000000  0  9G26G30G23G18G 5G17G10G15G 6
  22959503.275   -17013589.31849 -12925834.54046  22959503.946    22959516.037
       222.000         164.000
  21796141.852   -20920711.68049 -15946468.44547  21796142.614    21796153.526
       235.000         192.000
  20580393.303   -27179906.74749 -21154548.70448  20580392.791    20580402.751
       245.000         215.000
  23159695.551   -10324616.32549  -7988454.13346  23159695.247    23159707.689
       222.000         163.000
  23709092.036    -8423698.33849  -6551367.59945  23709091.188    23709107.715
       210.000         148.000
  22133874.282   -15396918.02249 -11965691.16647  22133873.358    22133885.379
       232.000         190.000
  22140880.514   -17029242.50049 -12921423.83646  22140879.748    22140891.652
       231.000         186.000
  23023395.062    -9667965.09949  -7514078.03746  23023393.586    23023408.579
       223.000         168.000
  20452085.749   -27222093.96249 -20126280.88348  20452085.426    20452095.017
       244.000         216.000
 02  2 11  1  7 30.0000000  0  9G26G30G23G18G 5G17G10G15G 6
  22944529.486   -17092276.57549 -12987149.10746  22944528.713    22944542.110
       221.000         165.000
  21811652.270   -20839203.86349 -15882955.91747  21811652.947    21811663.821
       235.000         192.000
  20576365.350   -27201073.66149 -21171042.33348  20576364.689    20576374.860
       245.000         215.000
  23140821.028   -10423801.04849  -8065740.62746  23140820.763    23140834.231
       223.000         164.000
  23728673.580    -8320797.39349  -6471185.17345  23728673.151    23728688.683
       209.000         148.000
  22125825.961   -15439211.52349 -11998647.02247  22125825.550    22125837.241
       232.000         190.000
  22157059.588   -16944220.90249 -12855173.26146  22157058.498    22157070.815
       231.000         186.000
  23011577.495    -9730066.06949  -7562468.21046  23011576.487    23011591.330
       225.000         169.000
  20446546.435   -27251202.67449 -20148962.92948  20446546.131    20446555.729
       244.000         216.000
 02  2 11  1  8  0.0000000  0  9G26G30G23G18G 5G17G10G15G 6
  22929602.767   -17170715.74549 -13048270.34546  22929602.706    22929615.701
       221.000         166.000
  21827223.046   -20757378.99949 -15819196.33047  21827223.328    21827234.692
       235.000         191.000
  20572435.345   -27221725.83849 -21187134.86748  20572434.770    20572444.845
       245.000         215.000
  23121990.138   -10522757.02049  -8142848.88446  23121988.790    23122003.186
       222.000         164.000
  23748259.244    -8217874.08849  -6390985.32045  23748259.012    23748275.026
       210.000         149.000
  22117805.095   -15481360.99149 -12031490.65347  22117804.363    22117816.248
       232.000         191.000
  22173297.256   -16858891.18249 -12788682.59346  22173296.576    22173308.801
       231.000         186.000
  22999787.411    -9792022.80449  -7610745.99346  22999785.920    22999800.960
       223.000         170.000
  20441073.827   -27279961.04249 -20171371.98448  20441073.449    20441083.371
       245.000         216.000
 02  2 11  1  8 30.0000000  0  9G26G30G23G18G 5G17G10G15G 6
  22914724.125   -17248902.89249 -13109195.18046  22914723.677    22914737.083
       220.000         166.000
  21842853.661   -20675239.69749 -15755191.73347  21842853.997    21842865.110
       234.000         191.000
  20568603.281   -27241863.15249 -21202826.21148  20568602.583    20568612.643
       245.000         215.000
  23103203.223   -10621481.60849  -8219776.85746  23103202.146    23103215.933
       223.000         164.000
  23767848.862    -8114930.75149  -6310769.85845  23767848.891    23767864.472
       211.000         151.000
  22109811.606   -15523366.73049 -12064222.28447  22109811.026    22109823.237
       232.000         191.000
  22189593.127   -16773255.88449 -12721953.81246  22189592.575    22189604.356
       230.000         186.000
  22988024.710    -9853835.28649  -7658911.36746  22988024.072    22988037.557
       223.000         170.000
  20435668.265   -27308367.10749 -20193506.51748  20435668.011    20435677.720
       244.000         216.000
 02  2 11  1  9  0.0000000  0  9G26G30G23G18G 5G17G10G15G 6
  22899893.893   -17326834.98949 -13169921.28446  22899893.604    22899905.984
       221.000         166.000
  21858543.454   -20592789.21549 -15690944.66047  21858543.965    21858555.470
       235.000         191.000
  20564869.096   -27261486.11249 -21218116.75848  20564868.518    20564878.571
       244.000         215.000
  23084460.783   -10719972.87449  -8296523.01646  23084459.121    23084473.387
       222.000         165.000
  23787441.633    -8011970.38049  -6230541.12445  23787441.197    23787457.460
       212.000         153.000
  22101845.379   -15565229.22049 -12096842.28847  22101844.731    22101856.206
       233.000         191.000
  22205946.506   -16687318.24749 -12654989.44346  22205945.954    22205958.180
       230.000         186.000
  22976289.356    -9915504.18749  -7706964.85846  22976288.127    22976303.181
       222.000         170.000
  20430330.047   -27336419.29149 -20215365.30048  20430329.727    20430339.671
       245.000         216.000
 02  2 11  1  9 30.0000000  0  9G26G30G23G18G 5G17G10G15G 6
  22885112.906   -17404508.77649 -13230446.13146  22885113.206    22885125.828
       222.000         166.000
  21874291.973   -20510030.64149 -15626457.50647  21874292.692    21874303.928
       235.000         191.000
  20561232.740   -27280594.94149 -21233006.68148  20561232.185    20561242.240
       244.000         215.000
  23065763.051   -10818229.17149  -8373086.07046  23065761.456    23065774.754
       223.000         166.000
  23807037.094    -7908995.76749  -6150301.30445  23807037.341    23807053.661
       214.000         154.000
  22093906.160   -15606949.41849 -12129351.41247  22093905.208    22093917.098
       232.000         191.000
  22222356.887   -16601081.23749 -12587791.79846  22222356.503    22222368.177
       230.000         185.000
  22964581.221    -9977030.07249  -7754906.91146  22964580.422    22964594.759
       222.000         169.000
  20425059.486   -27364115.91449 -20236947.03048  20425059.256    20425069.083
       244.000         216.000
 02  2 11  1 10  0.0000000  0  9G26G30G23G18G 5G17G10G15G 6
  22870382.007   -17481919.94649 -13290766.34146  22870381.644    22870394.708
       222.000         166.000
  21890098.714   -20426966.03149 -15561731.89047  21890099.310    21890110.608
       235.000         191.000
  20557694.345   -27299188.93449 -21247495.43048  20557693.675    20557703.711
       244.000         215.000
  23047110.535   -10916247.77149  -8449463.91646  23047109.148    23047122.658
       222.000         167.000
  23826634.986    -7806008.77649  -6070051.81545  23826634.654    23826651.236
       212.000         154.000
  22085994.048   -15648526.97649 -12161749.39147  22085993.235    22086005.206
       232.000         191.000
  22238823.886   -16514546.75649 -12520362.35046  22238823.353    22238835.311
       230.000         185.000
  22952900.448   -10038412.14949  -7802736.91246  22952898.979    22952913.372
       225.000         169.000
  20419857.104   -27391454.44249 -20258249.72448  20419856.987    20419866.634
       244.000         216.000
 02  2 11  1 10 30.0000000  0  9G26G30G23G18G 5G17G10G15G 6
  22855701.615   -17559065.19149 -13350879.34446  22855701.257    22855714.490
       222.000         165.000
  21905963.066   -20343598.64649 -15496770.34447  21905963.457    21905974.660
       235.000         191.000
  20554253.891   -27317268.40749 -21261583.25248  20554253.347    20554263.188
       245.000         215.000
  23028503.615   -11014026.69949  -8525655.01346  23028501.960    23028515.922
       222.000         167.000
  23846234.734    -7703012.11449  -5989794.81245  23846234.246    23846250.629
       213.000         153.000
  22078109.035   -15689962.67149 -12194036.82947  22078108.274    22078120.100
       232.000         191.000
  22255346.918   -16427717.84749 -12452703.47646  22255346.504    22255358.419
       230.000         184.000
  22941247.021   -10099651.01749  -7850455.34246  22941245.986    22941260.603
       225.000         170.000
  20414723.142   -27418433.26549 -20279272.13148  20414722.861    20414732.667
       246.000         216.000
 02  2 11  1 11  0.0000000  0  9G26G30G23G18G 5G17G10G15G 6
  22841072.496   -17635941.08649 -13410782.44946  22841072.105    22841085.889
       221.000         165.000
  21921884.475   -20259931.28249 -15431575.04347  21921884.895    21921896.368
       234.000         190.000
  20550911.279   -27334833.66249 -21275270.38748  20550910.781    20550920.605
       245.000         215.000
  23009942.686   -11111564.01749  -8601657.83846  23009941.809    23009954.910
       223.000         167.000
  23865835.772    -7600008.62749  -5909532.48145  23865835.906    23865852.880
       214.000         153.000
  22070250.955   -15731256.81249 -12226213.97047  22070250.264    22070262.081
       232.000         191.000
  22271925.481   -16340597.30649 -12384817.35646  22271925.177    22271937.205
       230.000         183.000
  22929620.730   -10160746.99049  -7898062.41546  22929619.585    22929633.918
       225.000         171.000
  20409658.056   -27445050.42249 -20300012.72048  20409657.898    20409667.552
       247.000         216.000
 02  2 11  1 11 30.0000000  0  9G26G30G23G18G 5G17G10G15G 6
  22826495.289   -17712544.10549 -13470472.90146  22826495.446    22826507.871
       220.000         166.000
  21937862.323   -20175967.09549 -15366148.46447  21937863.023    21937873.733
       233.000         189.000
  20547666.529   -27351884.68749 -21288556.82248  20547666.067    20547675.945
       245.000         215.000
  22991428.140   -11208857.77949  -8677470.89046  22991426.806    22991439.497
       222.000         167.000
  23885437.563    -7497000.75449  -5829266.73445  23885437.236    23885454.050
       213.000         153.000
  22062419.701   -15772409.95349 -12258281.23647  22062418.995    22062430.547
       233.000         192.000
  22288558.964   -16253187.93549 -12316706.17346  22288558.292    22288569.971
       230.000         183.000
  22918021.531   -10221700.22049  -7945558.25546  22918020.405    22918034.372
       224.000         171.000
  20404662.116   -27471304.07149 -20320470.05848  20404662.156    20404671.571
       247.000         217.000
 02  2 11  1 12  0.0000000  0  9G26G30G23G18G 5G17G10G15G 6
  22811970.700   -17788870.60549 -13529947.88146  22811970.292    22811983.324
       222.000         167.000
  21953896.210   -20091708.67049 -15300492.60547  21953897.003    21953908.153
       234.000         189.000
  20544519.640   -27368421.53549 -21301442.60148  20544519.145    20544528.924
       245.000         215.000
  22972960.322   -11305905.58849  -8753092.28346  22972959.531    22972972.109
       222.000         167.000
  23905039.840    -7393990.79449  -5748999.36445  23905040.065    23905056.396
       213.000         154.000
  22054615.211   -15813422.28149 -12290238.78247  22054614.318    22054626.308
       233.000         192.000
  22305246.947   -16165492.14649 -12248371.79246  22305246.329    22305258.343
       230.000         184.000
  22906449.518   -10282510.93149  -7992943.04546  22906449.045    22906462.385
       223.000         171.000
  20399735.710   -27497192.33049 -20340642.68148  20399735.547    20399745.253
       246.000         217.000
 02  2 11  1 12 30.0000000  0  9G26G30G23G18G 5G17G10G15G 6
  22797499.384   -17864917.38049 -13589204.90546  22797498.710    22797511.897
       223.000         169.000
  21969985.508   -20007159.25849 -15234609.99947  21969985.935    21969997.429
       234.000         189.000
  20541470.434   -27384444.82449 -21313928.20148  20541469.926    20541479.795
       244.000         215.000
  22954539.555   -11402705.67949  -8828520.64346  22954537.764    22954551.608
       222.000         168.000
  23924641.961    -7290981.70649  -5668732.65545  23924642.565    23924658.173
       213.000         155.000
  22046837.371   -15854294.76149 -12322087.35547  22046836.533    22046848.437
       232.000         192.000
  22321988.836   -16077513.24749 -12179816.82346  22321988.359    22322000.026
       230.000         183.000
  22894904.476   -10343179.39449  -8040216.98846  22894903.738    22894917.572
       224.000         172.000
  20394879.151   -27522713.61049 -20360529.34148  20394878.999    20394888.512
       246.000         216.000
 02  2 11  1 13  0.0000000  0  9G26G30G23G18G 5G17G10G15G 6
  22783081.904   -17940680.84349 -13648241.17046  22783081.781    22783093.716
       223.000         169.000
  21986129.637   -19922321.53649 -15168502.74247  21986129.939    21986141.736
       233.000         189.000
  20538518.914   -27399954.72049 -21326013.75848  20538518.320    20538528.072
       244.000         215.000
  22936166.411   -11499255.83549  -8903754.26246  22936165.373    22936178.012
       222.000         169.000
  23944243.349    -7187975.93649  -5588468.54845  23944243.445    23944259.819
       214.000         155.000
  22039086.096   -15895027.55049 -12353827.07647  22039085.219    22039097.005
       233.000         192.000
  22338784.006   -15989253.85049 -12111043.27046  22338783.422    22338795.255
       230.000         182.000
  22883386.561   -10403705.72049  -8087380.17846  22883385.292    22883399.189
       224.000         172.000
  20390092.781   -27547866.03049 -20380128.57848  20390092.603    20390102.129
       246.000         216.000
 02  2 11  1 13 30.0000000  0  9G26G30G23G18G 5G17G10G15G 6
  22768718.896   -18016157.77849 -13707054.17646  22768718.724    22768730.372
       222.000         168.000
  22002327.967   -19837198.77649 -15102173.37947  22002328.535    22002339.606
       233.000         189.000
  20535665.005   -27414951.64349 -21337699.59148  20535664.445    20535674.228
       244.000         215.000
  22917841.211   -11595554.26149  -8978791.73246  22917840.529    22917853.528
       223.000         170.000
  23963843.677    -7084976.18649  -5508209.12445  23963843.606    23963860.039
       212.000         154.000
  22031361.264   -15935621.36249 -12385458.50947  22031360.646    22031372.494
       233.000         192.000
  22355631.982   -15900716.85349 -12042053.41746  22355631.249    22355643.955
       228.000         181.000
  22871895.572   -10464090.49949  -8134433.08346  22871894.577    22871908.542
       224.000         172.000
  20385376.844   -27572648.09249 -20399439.22348  20385376.597    20385386.129
       246.000         216.000
 02  2 11  1 14  0.0000000  0  9G26G30G23G18G 5G17G10G15G 6
  22754411.125   -18091344.73649 -13765641.22046  22754410.649    22754423.700
       221.000         167.000
  22018580.011   -19751793.94349 -15035624.21747  22018580.494    22018591.938
       232.000         188.000
  20532908.685   -27429435.82949 -21348985.89348  20532908.243    20532917.881
       244.000         215.000
  22899564.323   -11691598.98649  -9053631.50246  22899563.352    22899576.189
       223.000         170.000
  23983442.272    -6981985.06249  -5427956.42845  23983441.789    23983458.675
       209.000         152.000
  22023662.831   -15976076.69849 -12416982.04047  22023662.156    22023673.592
       233.000         192.000
  22372532.300   -15811905.03149 -11972849.41446  22372531.958    22372543.623
       228.000         181.000
  22860431.461   -10524334.08449  -8181375.95746  22860430.124    22860443.936
       223.000         171.000
  20380731.794   -27597057.81849 -20418459.73548  20380731.493    20380740.934
       246.000         216.000
 02  2 11  1 14 30.0000000  0  9G26G30G23G18G 5G17G10G15G 6
  22740159.199   -18166238.19849 -13823999.55546  22740158.516    22740172.254
       221.000         167.000
  22034885.158   -19666109.90949 -14968857.49946  22034885.636    22034897.482
       232.000         187.000
  20530249.924   -27443407.42549 -21359872.77248  20530249.414    20530259.125
       244.000         215.000
  22881336.112   -11787387.90849  -9128271.95046  22881335.431    22881347.322
       224.000         170.000
  24003038.807    -6879005.14449  -5347712.47645  24003037.873    24003054.591
       210.000         150.000
  22015990.557   -16016393.97649 -12448397.99047  22015989.927    22016001.720
       233.000         193.000
  22389484.376   -15722821.06249 -11903433.34446  22389483.513    22389495.178
       228.000         180.000
  22848994.202   -10584436.40149  -8228208.76246  22848992.981    22849007.168
       223.000         171.000
  20376157.910   -27621093.42049 -20437188.71748  20376157.770    20376167.338
       246.000         216.000
 02  2 11  1 15  0.0000000  0  9G26G30G23G18G 5G17G10G15G 6
  22725963.737   -18240834.98649 -13882126.72846  22725963.913    22725976.584
       222.000         169.000
  22051242.816   -19580150.00849 -14901875.81946  22051243.152    22051255.185
       232.000         187.000
  20527688.580   -27456867.23049 -21370360.86048  20527688.047    20527697.753
       244.000         215.000
  22863156.949   -11882919.28549  -9202711.71646  22863155.537    22863168.211
       224.000         171.000
  24022632.628    -6776039.25449  -5267479.43845  24022633.027    24022648.973
       210.000         150.000
  22008344.467   -16056573.96049 -12479706.96147  22008344.050    22008355.465
       234.000         193.000
  22406487.669   -15633468.12449 -11833807.69846  22406486.572    22406499.341
       227.000         180.000
  22837583.762   -10644397.97449  -8274931.88546  22837582.790    22837596.662
       222.000         171.000
  20371655.461   -27644753.51949 -20455625.10148  20371655.217    20371664.767
       246.000         216.000
 02  2 11  1 15 30.0000000  0  9G26G30G23G18G 5G17G10G15G 6
  22711825.462   -18315131.43049 -13940019.85746  22711825.131    22711838.452
       223.000         170.000
  22067652.440   -19493917.04449 -14834681.36046  22067653.042    22067664.485
       231.000         186.000
  20525224.560   -27469815.38549 -21380450.26048  20525224.143    20525233.700
       245.000         215.000
  22845027.136   -11978191.00549  -9276949.15946  22845026.427    22845038.834
       225.000         171.000
  24042223.268    -6673089.93649  -5187259.32045  24042223.535    24042240.339
       210.000         150.000
  22000724.516   -16096617.06949 -12510909.27247  22000724.196    22000735.208
       234.000         193.000
  22423541.572   -15543849.00249 -11763974.63946  22423540.656    22423553.063
       227.000         180.000
  22826199.995   -10704219.22049  -8321545.65746  22826199.281    22826213.152
       224.000         172.000
  20367224.879   -27668036.13049 -20473767.33548  20367224.614    20367234.038
       246.000         216.000
 02  2 11  1 16  0.0000000  0  9G26G30G23G18G 5G17G10G15G 6
  22697744.972   -18389124.28049 -13997676.42746  22697744.658    22697756.692
       222.000         171.000
  22084113.398   -19407414.09349 -14767276.53746  22084114.166    22084125.688
       230.000         186.000
  20522857.806   -27482252.46549 -21390141.42148  20522857.282    20522866.978
       245.000         215.000
  22826947.100   -12073201.15649  -9350982.79246  22826946.364    22826958.508
       225.000         172.000
  24061810.375    -6570159.79949  -5107054.15045  24061810.505    24061825.843
       208.000         149.000
  21993130.414   -16136523.73849 -12542005.26747  21993129.733    21993141.452
       234.000         193.000
  22440645.635   -15453966.37249 -11693936.23646  22440644.625    22440656.759
       227.000         180.000
  22814842.896   -10763900.40749  -8368050.29746  22814842.093    22814856.188
       224.000         172.000
  20362866.422   -27690939.59049 -20491614.12648  20362866.201    20362875.704
       246.000         216.000
 02  2 11  1 16 30.0000000  0  9G26G30G23G18G 5G17G10G15G 6
  22683722.861   -18462810.11349 -14055093.75946  22683721.746    22683735.328
       221.000         170.000
  22100625.227   -19320643.99249 -14699663.53146  22100625.985    22100637.303
       231.000         186.000
  20520588.288   -27494178.71049 -21399434.52848  20520587.703    20520597.442
       244.000         215.000
  22808917.199   -12167947.81649  -9424811.11446  22808916.366    22808929.351
       226.000         172.000
  24081393.257    -6467251.38149  -5026865.90245  24081392.889    24081408.777
       205.000         147.000
  21985562.187   -16176294.34549 -12572995.24347  21985561.293    21985573.171
       235.000         193.000
  22457799.335   -15363822.99749 -11623694.64846  22457798.450    22457811.265
       228.000         179.000
  22803512.487   -10823441.54849  -8414445.80046  22803511.018    22803525.925
       224.000         172.000
  20358580.443   -27713462.07949 -20509164.05548  20358580.098    20358589.620
       246.000         216.000
 02  2 11  1 17  0.0000000  0  9G26G30G23G18G 5G17G10G15G 6
  22669759.819   -18536185.14049 -14112268.91446  22669759.302    22669771.808
       221.000         169.000
  22117187.423   -19233609.40349 -14631844.43146  22117187.989    22117199.202
       232.000         186.000
  20518415.937   -27505594.02249 -21408329.50948  20518415.347    20518425.007
       246.000         215.000
  22790937.821   -12262428.75549  -9498432.38346  22790936.613    22790948.695
       226.000         172.000
  24100971.481    -6364366.94549  -4946696.35545  24100971.645    24100987.546
       203.000         143.000
  21978019.869   -16215929.05549 -12603879.32447  21978019.294    21978030.517
       235.000         193.000
  22475002.156   -15273421.44049 -11553251.89446  22475001.560    22475013.940
       228.000         179.000
  22792208.676   -10882842.74849  -8460732.26346  22792207.553    22792221.682
       222.000         172.000
  20354367.327   -27735601.64949 -20526415.60748  20354366.995    20354376.583
       245.000         215.000
 02  2 11  1 17 30.0000000  0  9G26G30G23G18G 5G17G10G15G 6
  22655856.538   -18609246.50849 -14169199.64946  22655856.187    22655868.432
       221.000         169.000
  22133799.219   -19146314.09349 -14563822.16646  22133799.519    22133811.583
       231.000         186.000
  20516340.622   -27516499.53149 -21416827.23948  20516340.123    20516349.830
       246.000         215.000
  22773009.405   -12356642.22349  -9571845.23346  22773008.184    22773020.504
       226.000         171.000
  24120544.761    -6261509.54049  -4866547.84645  24120545.184    24120561.619
       205.000         139.000
  21970503.254   -16255428.94149 -12634658.34547  21970502.418    21970514.063
       235.000         194.000
  22492253.619   -15182764.77149 -11482610.33146  22492253.087    22492265.263
       228.000         180.000
  22780931.229   -10942104.85749  -8506910.34046  22780930.230    22780944.204
       223.000         172.000
  20350227.298   -27757357.22549 -20543367.93648  20350227.041    20350236.654
       245.000         215.000
 02  2 11  1 18  0.0000000  0  9G26G30G23G18G 5G17G10G15G 6
  22642013.612   -18681990.58649 -14225883.16646  22642013.091    22642025.675
       222.000         170.000
  22150460.150   -19058760.60449 -14495598.73446  22150460.575    22150472.430
       231.000         185.000
  20514362.284   -27526895.51749 -21424927.94048  20514361.853    20514371.459
       246.000         215.000
  22755132.244   -12450586.40949  -9645048.25646  22755131.590    22755143.635
       227.000         172.000
  24140112.487    -6158681.48749  -4786422.22445  24140112.458    24140129.035
       206.000         137.000
  21963012.243   -16294794.33349 -12665332.55747  21963011.653    21963023.188
       236.000         194.000
  22509553.074   -15091856.00949 -11411772.34546  22509553.031    22509563.678
       228.000         180.000
  22769680.355   -11001227.77849  -8552979.95246  22769679.259    22769693.141
       224.000         173.000
  20346160.732   -27778726.85849 -20560019.53748  20346160.386    20346170.167
       245.000         215.000
 02  2 11  1 18 30.0000000  0  9G26G30G23G18G 5G17G10G15G 6
  22628231.726   -18754414.39049 -14282317.12046  22628231.661    22628243.449
       222.000         171.000
  22167169.497   -18970952.46949 -14427176.87446  22167169.688    22167182.174
       230.000         185.000
  20512480.751   -27536782.94349 -21432632.35648  20512480.235    20512489.849
       246.000         215.000
  22737306.707   -12544259.60649  -9718040.14846  22737306.170    22737316.783
       227.000         172.000
  24159673.897    -6055885.50149  -4706321.55645  24159674.365    24159690.637
       203.000         135.000
  21955546.583   -16334025.93449 -12695902.51647  21955545.802    21955557.241
       235.000         194.000
  22526899.957   -15000698.13449 -11340740.23246  22526899.712    22526910.346
       226.000         179.000
  22758455.868   -11060212.42249  -8598941.81746  22758455.239    22758469.268
       225.000         174.000
  20342167.895   -27799709.08949 -20576369.26348  20342167.570    20342177.163
       245.000         215.000
 02  2 11  1 19  0.0000000  0  9G26G30G23G18G 5G17G10G15G 6
  22614511.524   -18826513.88149 -14338498.36246  22614511.210    22614524.640
       222.000         171.000
  22183926.899   -18882891.89749 -14358558.32446  22183927.157    22183939.494
       230.000         185.000
  20510695.984   -27546161.59049 -21439940.32748  20510695.391    20510705.078
       246.000         215.000
  22719533.248   -12637659.16949  -9790818.78846  22719532.345    22719544.486
       227.000         172.000
  24179228.922    -5953123.53749  -4626247.41045  24179227.819    24179245.642
       203.000         134.000
  21948106.424   -16373123.78949 -12726368.25947  21948105.763    21948117.366
       235.000         194.000
  22544293.746   -14909293.06249 -11269515.50546  22544293.071    22544305.153
       227.000         177.000
  22747257.768   -11119058.37749  -8644795.62346  22747256.282    22747270.377
       225.000         175.000
  20338249.211   -27820301.56449 -20592415.28948  20338248.983    20338258.488
       246.000         215.000
 02  2 11  1 19 30.0000000  0  9G26G30G23G18G 5G17G10G15G 6
  22600853.621   -18898285.87249 -14394424.40846  22600853.325    22600865.446
       222.000         172.000
  22200731.703   -18794582.34249 -14289745.74846  22200732.203    22200743.712
       230.000         185.000
  20509007.891   -27555032.28049 -21446852.48348  20509007.350    20509016.930
       245.000         215.000
  22701812.074   -12730783.75849  -9863383.16646  22701811.223    22701822.930
       226.000         172.000
  24198776.993    -5850398.52749  -4546202.06845  24198776.326    24198792.778
       204.000         134.000
  21940691.591   -16412088.58049 -12756730.31647  21940690.846    21940702.304
       235.000         194.000
  22561734.019   -14817643.85049 -11198100.53846  22561733.707    22561745.459
       227.000         177.000
  22736085.863   -11177766.27349  -8690541.85746  22736084.786    22736098.158
       225.000         174.000
  20334404.969   -27840502.86649 -20608156.50248  20334404.715    20334414.249
       246.000         215.000
 02  2 11  1 20  0.0000000  0  9G26G30G23G18G 5G17G10G15G 6
  22587258.687   -18969726.91949 -14450092.56946  22587257.767    22587270.991
       223.000         172.000
  22217583.353   -18706026.47349 -14220741.24046  22217584.256    22217595.778
       231.000         185.000
  20507416.403   -27563395.28849 -21453369.04548  20507415.931    20507425.324
       246.000         215.000
  22684143.560   -12823631.03749  -9935731.46446  22684142.235    22684154.967
       227.000         173.000
  24218317.490    -5747712.78549  -4466187.33845  24218316.768    24218333.891
       205.000         136.000
  21933302.063   -16450920.47149 -12786988.81147  21933301.381    21933312.371
       236.000         195.000
  22579220.193   -14725753.23449 -11126497.46946  22579219.462    22579231.188
       226.000         176.000
  22724940.279   -11236335.97249  -8736180.40346  22724938.263    22724952.810
       224.000         174.000
  20330635.529   -27860311.30349 -20623591.58448  20330635.274    20330644.768
       246.000         216.000
 02  2 11  1 20 30.0000000  0  9G26G30G23G18G 5G17G10G15G 6
  22573727.340   -19040833.62949 -14505500.23046  22573726.964    22573739.946
       223.000         173.000
  22234481.325   -18617227.47549 -14151547.28546  22234482.118    22234493.122
       230.000         185.000
  20505921.377   -27571251.34649 -21459490.58448  20505920.836    20505930.494
       246.000         215.000
  22666528.240   -12916199.10249 -10007862.19446  22666526.790    22666539.110
       226.000         174.000
  24237850.040    -5645068.89649  -4386205.21945  24237849.806    24237866.370
       209.000         140.000
  21925937.726   -16489620.00649 -12817144.17547  21925936.920    21925948.210
       236.000         195.000
  22596751.760   -14633623.89049 -11054708.37646  22596751.385    22596763.336
       226.000         176.000
  22713820.903   -11294767.82349  -8781711.54946  22713819.770    22713833.216
       225.000         174.000
  20326941.148   -27879725.12749 -20638719.17848  20326940.992    20326950.377
       245.000         216.000
 02  2 11  1 21  0.0000000  0  9G26G30G23G18G 5G17G10G15G 6
  22560260.304   -19111602.91949 -14560644.96746  22560260.527    22560272.234
       224.000         174.000
  22251424.862   -18528188.73949 -14082166.51246  22251425.489    22251437.040
       230.000         184.000
  20504522.674   -27578601.33749 -21465217.78248  20504522.185    20504531.625
       245.000         215.000
  22648966.298   -13008486.48549 -10079774.20746  22648965.368    22648977.464
       227.000         174.000
  24257374.153    -5542469.88549  -4306258.06045  24257374.569    24257390.390
       213.000         144.000
  21918598.351   -16528188.03949 -12847197.07547  21918597.311    21918609.010
       236.000         195.000
  22614328.188   -14541259.01849 -10982735.75646  22614327.257    22614340.418
       225.000         176.000
  22702727.683   -11353062.52749  -8827135.81146  22702727.149    22702739.897
       225.000         174.000
  20323322.111   -27898742.88949 -20653538.14948  20323321.927    20323331.356
       245.000         216.000
 02  2 11  1 21 30.0000000  0  9G26G30G23G18G 5G17G10G15G 6
  22546858.149   -19182031.22749 -14615523.99846  22546857.825    22546869.912
       223.000         174.000
  22268413.544   -18438912.82449 -14012600.93146  22268413.978    22268425.888
       229.000         183.000
  20503220.220   -27585445.51549 -21470550.84548  20503219.676    20503229.307
       246.000         215.000
  22631458.228   -13100491.00349 -10151465.81246  22631457.278    22631469.549
       227.000         174.000
  24276889.303    -5439917.62149  -4226347.33445  24276889.469    24276905.792
       215.000         148.000
  21911283.971   -16566624.63649 -12877147.55647  21911283.664    21911294.713
       236.000         195.000
  22631948.926   -14448660.98049 -10910581.45646  22631947.829    22631960.799
       225.000         177.000
  22691660.581   -11411219.90049  -8872453.06646  22691659.861    22691672.304
       224.000         175.000
  20319778.892   -27917362.65749 -20668047.00048  20319778.770    20319788.051
       245.000         216.000
 02  2 11  1 22  0.0000000  0  9G26G30G23G18G 5G17G10G15G 6
  22533521.484   -19252115.25149 -14670134.77146  22533521.258    22533533.348
       224.000         174.000
  22285446.729   -18349402.92349 -13942853.02446  22285447.406    22285459.007
       229.000         183.000
  20502013.874   -27591784.71749 -21475490.41848  20502013.491    20502022.893
       245.000         215.000
  22614004.311   -13192211.06149 -10222935.74946  22614004.051    22614014.491
       226.000         174.000
  24296395.094    -5337414.84149  -4146475.16845  24296395.226    24296412.240
       216.000         150.000
  21903994.566   -16604930.56049 -12906996.21047  21903994.090    21904005.038
       236.000         195.000
  22649613.568   -14355832.68449 -10838247.73646  22649612.829    22649625.677
       226.000         177.000
  22680619.458   -11469240.55449  -8917663.79646  22680619.134    22680632.192
       225.000         175.000
  20316311.678   -27935582.91449 -20682244.54448  20316311.520    20316320.938
       245.000         216.000
 02  2 11  1 22 30.0000000  0  9G26G30G23G18G 5G17G10G15G 6
  22520250.963   -19321851.73749 -14724474.73346  22520250.615    22520262.598
       225.000         174.000
  22302523.882   -18259662.12049 -13872925.19546  22302524.394    22302536.559
       230.000         184.000
  20500903.421   -27597619.77749 -21480037.14948  20500902.970    20500912.288
       245.000         214.000
  22596604.887   -13283644.63449 -10294182.44746  22596603.107    22596616.227
       227.000         175.000
  24315891.036    -5234963.99449  -4066643.46345  24315890.819    24315908.138
       213.000         150.000
  21896729.896   -16643106.14949 -12936743.29847  21896729.190    21896740.362
       235.000         195.000
  22667321.476   -14262777.15749 -10765736.94946  22667320.850    22667332.912
       226.000         178.000
  22669604.277   -11527125.02149  -8962768.40946  22669603.260    22669616.869
       226.000         176.000
  20312920.770   -27953402.25749 -20696129.68448  20312920.748    20312929.862
       244.000         216.000
 02  2 11  1 23  0.0000000  0  9G26G30G23G18G 5G17G10G15G 6
  22507047.146   -19391237.48949 -14778541.40646  22507047.485    22507058.504
       224.000         174.000
  22319644.356   -18169693.65649 -13802819.97346  22319644.522    22319656.993
       230.000         184.000
  20499888.794   -27602951.38249 -21484191.58148  20499888.203    20499897.880
       245.000         214.000
  22579260.351   -13374790.03349 -10365204.59846  22579260.413    22579272.178
       228.000         177.000
  24335376.408    -5132567.77249  -3986854.34945  24335376.040    24335393.590
       211.000         150.000
  21889489.893   -16681152.06049 -12966389.35047  21889489.232    21889500.300
       235.000         195.000
  22685072.111   -14169497.17549 -10693051.26946  22685071.502    22685083.668
       227.000         178.000
  22658615.031   -11584873.52149  -9007767.07046  22658613.768    22658628.036
       225.000         177.000
  20309606.410   -27970819.20549 -20709701.27148  20309606.242    20309615.490
       244.000         216.000
 02  2 11  1 23 30.0000000  0  9G26G30G23G18G 5G17G10G15G 6
  22493910.795   -19460268.97949 -14832332.02846  22493910.850    22493922.363
       224.000         174.000
  22336807.670   -18079500.22549 -13732539.44846  22336808.389    22336820.233
       229.000         183.000
  20498969.881   -27607779.95449 -21487954.03948  20498969.369    20498978.850
       245.000         214.000
  22561971.043   -13465645.12149 -10436000.54146  22561970.453    22561982.218
       228.000         177.000
  24354851.030    -5030228.45149  -3907109.56045  24354851.007    24354867.926
       210.000         149.000
  21882274.497   -16719068.57949 -12995934.58247  21882273.977    21882284.627
       236.000         195.000
  22702864.983   -14075995.11049 -10620192.53046  22702864.184    22702876.829
       226.000         178.000
  22647651.616   -11642485.90149  -9052659.67146  22647650.628    22647664.099
       224.000         176.000
  20306368.982   -27987831.90649 -20722957.86148  20306368.873    20306377.904
       244.000         216.000
 02  2 11  1 24  0.0000000  0  9G26G30G23G18G 5G17G10G15G 6
  22480842.371   -19528942.94749 -14885844.06946  22480841.757    22480854.443
       224.000         174.000
  22354013.135   -17989084.92849 -13662086.03746  22354013.658    22354026.047
       228.000         183.000
  20498146.563   -27612106.28449 -21491325.13848  20498145.899    20498155.541
       245.000         214.000
  22544737.245   -13556208.33349 -10506569.04146  22544736.554    22544748.558
       228.000         178.000
  24374314.362    -4927948.53949  -3827411.06945  24374314.163    24374332.047
       208.000         148.000
  21875083.629   -16756856.30149 -13025379.45747  21875082.765    21875093.829
       236.000         195.000
  22720699.607   -13982273.48249 -10547162.70046  22720699.317    22720711.419
       227.000         177.000
  22636713.908   -11699962.61949  -9097446.55646  22636712.670    22636726.451
       224.000         176.000
  20303208.773   -28004438.87049 -20735898.29148  20303208.671    20303217.621
       244.000         216.000
 02  2 11  1 24 30.0000000  0  9G26G30G23G18G 5G17G10G15G 6
  22467842.665   -19597256.08849 -14939074.94046  22467842.276    22467854.607
       224.000         175.000
  22371260.286   -17898451.00949 -13591462.27446  22371260.898    22371273.037
       230.000         183.000
  20497418.662   -27615931.14249 -21494305.48048  20497418.033    20497427.721
       245.000         214.000
  22527559.357   -13646477.81449 -10576908.67146  22527558.146    22527569.912
       228.000         178.000
  24393765.855    -4825730.67149  -3747760.95145  24393765.208    24393782.599
       208.000         148.000
  21867917.231   -16794515.62849 -13054724.27847  21867916.616    21867927.654
       236.000         196.000
  22738575.531   -13888335.45749 -10473964.25346  22738574.862    22738586.476
       226.000         176.000
  22625802.092   -11757303.88849  -9142127.90046  22625801.544    22625814.834
       226.000         176.000
  20300126.111   -28020638.48249 -20748521.30248  20300125.965    20300134.880
       245.000         216.000
 02  2 11  1 25  0.0000000  0  9G26G30G23G18G 5G17G10G15G 6
  22454912.264   -19665205.47149 -14992022.37346  22454912.198    22454923.838
       225.000         176.000
  22388548.469   -17807601.55749 -13520670.55346  22388548.910    22388560.963
       229.000         183.000
  20496786.025   -27619255.31849 -21496895.68048  20496785.531    20496795.025
       245.000         214.000
  22510437.654   -13736452.07249 -10647018.25246  22510437.119    22510448.523
       229.000         178.000
  24413205.045    -4723577.42549  -3668161.17345  24413205.460    24413222.513
       205.000         146.000
  21860775.209   -16832047.03449 -13083969.42947  21860774.511    21860785.810
       236.000         196.000
  22756492.041   -13794184.05049 -10400599.53746  22756491.719    22756503.064
       225.000         175.000
  22614915.996   -11814510.30649  -9186704.15846  22614915.000    22614928.558
       227.000         176.000
  20297121.183   -28036429.20449 -20760825.70048  20297121.026    20297130.124
       244.000         216.000
 02  2 11  1 25 30.0000000  0  9G26G30G23G18G 5G17G10G15G 6
  22442051.852   -19732787.36049 -15044683.44446  22442051.941    22442063.565
       226.000         176.000
  22405877.122   -17716539.45949 -13449713.13946  22405877.933    22405889.611
       229.000         182.000
  20496248.545   -27622079.59749 -21499096.34848  20496247.943    20496257.305
       244.000         214.000
  22493372.525   -13826128.95649 -10716896.11446  22493371.193    22493382.651
       229.000         179.000
  24432631.475    -4621491.23949  -3588613.65745  24432630.602    24432649.013
       202.000         145.000
  21853657.381   -16869450.97949 -13113115.25347  21853656.538    21853668.059
       235.000         196.000
  22774448.597   -13699821.69949 -10327070.44646  22774447.818    22774459.472
       225.000         174.000
  22604055.505   -11871582.05449  -9231175.49446  22604054.569    22604067.928
       227.000         177.000
  20294194.412   -28051809.38949 -20772810.19948  20294194.272    20294202.876
       244.000         216.000
 02  2 11  1 26  0.0000000  0  9G26G30G23G18G 5G17G10G15G 6
  22429261.898   -19799998.57049 -15097055.67146  22429261.505    22429273.362
       225.000         175.000
  22423245.666   -17625267.76749 -13378592.40046  22423246.230    22423258.083
       229.000         181.000
  20495806.024   -27624404.69749 -21500908.04948  20495805.539    20495814.828
       245.000         214.000
  22476364.352   -13915506.53649 -10786540.75746  22476363.367    22476375.068
       229.000         180.000
  24452044.564    -4519474.38249  -3509120.13645  24452044.952    24452062.173
       202.000         142.000
  21846563.683   -16906727.91649 -13142162.11447  21846562.789    21846573.970
       235.000         196.000
  22792444.797   -13605250.98049 -10253378.98346  22792444.479    22792455.733
       223.000         173.000
  22593220.615   -11928519.40549  -9275542.09346  22593219.440    22593233.305
       227.000         177.000
  20291346.093   -28066777.30249 -20784473.44748  20291345.973    20291354.604
       244.000         216.000
 02  2 11  1 26 30.0000000  0  9G26G30G23G18G 5G17G10G15G 6
  22416543.116   -19866835.51649 -15149136.26346  22416542.870    22416554.040
       224.000         175.000
  22440653.502   -17533789.13649 -13307310.41846  22440653.619    22440665.888
       227.000         180.000
  20495458.409   -27626231.13449 -21502331.18148  20495457.990    20495467.263
       245.000         214.000
  22459413.541   -14004582.84049 -10855950.63146  22459412.652    22459423.747
       229.000         180.000
  24471444.363    -4417528.93749  -3429682.26945  24471444.521    24471461.363
       202.000         142.000
  21839494.253   -16943877.84349 -13171110.00647  21839493.563    21839504.380
       235.000         196.000
  22810480.117   -13510474.55249 -10179527.24046  22810479.094    22810491.973
       223.000         172.000
  22582411.213   -11985322.40649  -9319803.99446  22582410.243    22582423.589
       227.000         178.000
  20288576.553   -28081331.25849 -20795814.13648  20288576.281    20288585.080
       244.000         216.000
 02  2 11  1 27  0.0000000  0  9G26G30G23G18G 5G17G10G15G 6
  22403896.155   -19933295.11949 -15200922.82946  22403895.976    22403907.454
       225.000         175.000
  22458100.103   -17442106.73649 -13235869.66646  22458100.191    22458112.664
       226.000         179.000
  20495205.544   -27627559.89149 -21503366.51548  20495205.025    20495214.448
       245.000         214.000
  22442520.340   -14093356.13549 -10925124.40946  22442519.647    22442530.554
       230.000         180.000
  24490829.848    -4315657.65149  -3350302.20545  24490829.252    24490846.490
       200.000         141.000
  21832448.844   -16980901.39149 -13199959.43147  21832448.261    21832458.951
       235.000         196.000
  22828554.168   -13415495.10349 -10105517.29046  22828553.821    22828565.978
       224.000         172.000
  22571627.385   -12041991.21949  -9363961.34246  22571626.378    22571639.342
       227.000         178.000
  20285886.036   -28095469.79749 -20806831.12548  20285885.883    20285894.548
       245.000         216.000
 02  2 11  1 27 30.0000000  0  9G26G30G23G18G 5G17G10G15G 6
  22391321.503   -19999374.87849 -15252413.40546  22391321.511    22391332.843
       226.000         176.000
  22475584.689   -17350224.51649 -13164273.19746  22475585.136    22475596.954
       227.000         178.000
  20495047.048   -27628392.57949 -21504015.29148  20495046.435    20495055.909
       245.000         214.000
  22425685.006   -14181825.64049 -10994061.46746  22425683.872    22425695.342
       230.000         180.000
  24510200.606    -4213863.81549  -3270982.49045  24510200.581    24510217.854
       202.000         139.000
  21825427.238   -17017799.86549 -13228711.38247  21825426.582    21825437.440
       236.000         196.000
  22846666.098   -13320316.36749 -10031352.04946  22846665.692    22846677.621
       223.000         172.000
  22560868.837   -12098527.17249  -9408015.15646  22560868.176    22560880.805
       227.000         178.000
  20283274.725   -28109192.18149 -20817523.83548  20283274.541    20283283.293
       245.000         216.000
 02  2 11  1 28  0.0000000  0  9G26G30G23G18G 5G17G10G15G 6
  22378819.920   -20065070.48749 -15303604.65146  22378819.895    22378831.457
       226.000         177.000
  22493107.022   -17258144.33649 -13092522.47646  22493106.986    22493119.911
       227.000         179.000
  20494982.978   -27628728.90249 -21504277.29448  20494982.399    20494991.882
       245.000         214.000
  22408908.048   -14269988.19549 -11062759.35346  22408907.456    22408918.420
       230.000         180.000
  24529556.700    -4112148.52149  -3191723.96645  24529556.202    24529573.929
       201.000         138.000
  21818429.560   -17054572.51449 -13257365.28847  21818428.616    21818439.568
       235.000         196.000
  22864815.674   -13224939.69849  -9957032.57146  22864814.948    22864826.679
       223.000         172.000
  22550135.720   -12154929.26749  -9451964.66546  22550135.516    22550147.418
       227.000         177.000
  20280743.110   -28122495.72349 -20827890.17648  20280742.734    20280751.749
       244.000         215.000
 02  2 11  1 28 30.0000000  0  9G26G30G23G18G 5G17G10G15G 6
  22366392.019   -20130378.94649 -15354494.21346  22366392.149    22366403.719
       227.000         177.000
  22510666.367   -17165869.45149 -13020620.03346  22510667.119    22510679.189
       227.000         179.000
  20495013.105   -27628570.22349 -21504153.57748  20495012.438    20495022.038
       244.000         214.000
  22392189.752   -14357842.72049 -11131217.20946  22392188.870    22392200.557
       230.000         181.000
  24548897.124    -4010514.56249  -3112528.80645  24548896.053    24548914.710
       201.000         137.000
  21811455.677   -17091220.01549 -13285921.67447  21811454.754    21811465.613
       235.000         196.000
  22883002.336   -13129368.01349  -9882561.14246  22883001.408    22883014.154
       223.000         172.000
  22539427.947   -12211198.28749  -9495810.47146  22539426.600    22539439.146
       228.000         177.000
  20278291.386   -28135379.32649 -20837929.28948  20278291.121    20278299.770
       244.000         215.000
 02  2 11  1 29  0.0000000  0  9G26G30G23G18G 5G17G10G15G 6
  22354038.448   -20195296.99149 -15405079.56146  22354038.451    22354049.892
       227.000         177.000
  22528262.198   -17073402.94249 -12948568.28446  22528263.408    22528275.177
       227.000         179.000
  20495137.312   -27627917.25349 -21503644.70348  20495136.852    20495146.029
       244.000         214.000
  22375530.391   -14445387.41749 -11199433.64146  22375529.373    22375540.700
       230.000         180.000
  24568221.622    -3908964.22549  -3033398.82345  24568221.364    24568239.712
       201.000         136.000
  21804505.559   -17127742.81249 -13314380.88747  21804504.666    21804515.739
       236.000         197.000
  22901225.605   -13033603.92849  -9807939.77246  22901224.622    22901236.907
       225.000         173.000
  22528745.509   -12267334.36249  -9539552.69346  22528744.245    22528757.682
       228.000         178.000
  20275919.853   -28147841.43549 -20847639.97148  20275919.553    20275928.234
       244.000         215.000
 02  2 11  1 29 30.0000000  0  9G26G30G23G18G 5G17G10G15G 6
  22341759.673   -20259821.72249 -15455358.42546  22341760.121    22341770.890
       227.000         177.000
  22545893.875   -16980748.16849 -12876369.83646  22545894.082    22545906.812
       227.000         179.000
  20495355.301   -27626771.36849 -21502751.73748  20495354.801    20495364.060
       245.000         214.000
  22358930.243   -14532620.64749 -11267407.38046  22358929.415    22358940.408
       230.000         180.000
  24587529.669    -3807500.33449  -2954336.19545  24587529.767    24587546.402
       202.000         135.000
  21797578.976   -17164141.62149 -13342743.48547  21797578.380    21797588.890
       236.000         197.000
  22919484.900   -12937650.66149  -9733170.97746  22919485.071    22919496.593
       224.000         172.000
  22518088.257   -12323338.00149  -9583191.71446  22518087.313    22518099.602
       228.000         178.000
  20273628.770   -28159880.89049 -20857021.31248  20273628.419    20273637.255
       244.000         215.000
 02  2 11  1 30  0.0000000  0  9G26G30G23G18G 5G17G10G15G 6
  22329556.475   -20323949.54249 -15505328.00846  22329556.710    22329567.479
       227.000         178.000
  22563560.834   -16887907.75849 -12804026.73446  22563561.841    22563573.590
       226.000         177.000
  20495667.004   -27625133.07749 -21501475.08548  20495666.585    20495675.720
       245.000         214.000
  22342389.822   -14619540.24549 -11335136.72846  22342389.146    22342399.554
       231.000         181.000
  24606820.896    -3706124.69449  -2875342.34845  24606820.752    24606838.552
       202.000         135.000
  21790675.990   -17200416.57749 -13371009.57047  21790675.090    21790685.830
       236.000         197.000
  22937779.807   -12841510.23949  -9658256.35246  22937777.987    22937791.454
       223.000         173.000
  22507456.154   -12379209.27849  -9626727.59046  22507454.723    22507467.485
       227.000         178.000
  20271418.472   -28171495.72549 -20866071.78348  20271418.139    20271426.951
       244.000         215.000
 02  2 11  1 30 30.0000000  0  9G26G30G23G18G 5G17G10G15G 6
  22317429.340   -20387677.57149 -15554986.06046  22317429.355    22317440.547
       227.000         179.000
  22581262.393   -16794885.19049 -12731541.68746  22581262.937    22581275.058
       224.000         176.000
  20496072.174   -27623003.70649 -21499815.77248  20496071.815    20496080.878
       244.000         214.000
  22325909.361   -14706144.97649 -11402620.73746  22325908.895    22325919.098
       230.000         181.000
  24626095.008    -3604840.22649  -2796419.54345  24626095.069    24626112.859
       205.000         135.000
  21783796.441   -17236568.33849 -13399179.65547  21783795.572    21783806.480
       235.000         196.000
  22956109.633   -12745185.75049  -9583198.30846  22956109.126    22956121.043
       222.000         172.000
  22496849.094   -12434948.91749  -9670160.89646  22496848.276    22496860.446
       228.000         178.000
  20269289.183   -28182684.91849 -20874790.58648  20269288.983    20269297.719
       244.000         215.000
 02  2 11  1 31  0.0000000  0  9G26G30G23G18G 5G17G10G15G 6
  22305378.901   -20451002.44249 -15604329.95446  22305379.467    22305390.392
       227.000         179.000
  22598998.162   -16701683.08949 -12658916.74146  22598998.959    22599010.354
       225.000         175.000
  20496570.653   -27620383.94249 -21497774.33548  20496570.130    20496579.520
       245.000         214.000
  22309489.097   -14792432.98249 -11469857.95146  22309488.183    22309498.773
       231.000         181.000
  24645351.176    -3503649.17249  -2717569.50845  24645352.208    24645368.212
       205.000         136.000
  21776940.298   -17272597.18549 -13427253.96347  21776939.558    21776950.136
       236.000         197.000
  22974474.154   -12648679.57549  -9507998.69346  22974473.963    22974486.172
       223.000         171.000
  22486267.160   -12490556.70749  -9713491.45446  22486266.472    22486278.921
       228.000         179.000
  20267241.187   -28193446.73149 -20883176.36448  20267240.861    20267249.664
       244.000         215.000
 02  2 11  1 31 30.0000000  0 10G26G30G23G18G 5G17G10G15G22G 6
  22293405.058   -20513924.84949 -15653360.23446  22293405.037    22293415.954
       227.000         179.000
  22616766.900   -16608308.33849 -12586157.26446  22616768.077    22616780.064
       226.000         175.000
  20497161.486   -27617278.71249 -21495354.61148  20497160.871    20497170.331
       244.000         214.000
  22293128.734   -14878406.29449 -11536849.95546  22293127.849    22293138.654
       231.000         181.000
  24664588.364    -3402557.89149  -2638797.24245  24664588.001    24664605.270
       205.000         135.000
  21770106.778   -17308507.16449 -13455235.64747  21770105.939    21770116.427
       235.000         197.000
  22992872.070   -12551998.38649  -9432662.70246  22992871.416    22992883.299
       223.000         171.000
  22475709.521   -12546036.61449  -9756722.38046  22475708.291    22475720.719
       227.000         179.000
  24331919.563    -4775762.73049  -3144448.68345  24331917.994    24331934.456
       212.000         141.000
  20265274.100   -28203783.46049 -20891230.90648  20265273.863    20265282.565
       244.000         215.000
 02  2 11  1 32  0.0000000  0 10G26G30G23G18G 5G17G10G15G22G 6
  22281508.479   -20576441.19449 -15702074.10746  22281508.073    22281519.089
       228.000         179.000
  22634567.943   -16514763.74349 -12513265.43646  22634568.884    22634580.668
       226.000         175.000
  20497844.592   -27613688.56649 -21492557.03248  20497844.068    20497853.379
       244.000         214.000
  22276828.637   -14964063.09749 -11603595.32746  22276828.073    22276838.316
       231.000         182.000
  24683806.312    -3301568.26849  -2560104.17745  24683805.357    24683823.421
       206.000         136.000
  21763295.814   -17344298.46549 -13483124.85747  21763295.164    21763305.664
       236.000         197.000
  23011302.848   -12455144.63549  -9357192.24946  23011301.967    23011314.007
       220.000         169.000
  22465176.201   -12601388.79249  -9799853.76146  22465175.083    22465187.442
       228.000         179.000
  24321345.994    -4831326.07249  -3187744.50745  24321345.183    24321361.147
       215.000         141.000
  20263388.220   -28213693.32449 -20898952.82748  20263388.018    20263396.849
       244.000         215.000
 02  2 11  1 32 30.0000000  0  9G26G30G23G18G17G10G15G22G 6
  22269691.326   -20638540.26749 -15750462.82746  22269691.124    22269702.193
       227.000         179.000
  22652402.330   -16421044.17949 -12440237.27746  22652402.488    22652414.360
       226.000         175.000
  20498621.312   -27609606.49049 -21489376.13448  20498620.770    20498630.056
       244.000         214.000
  22260590.675   -15049393.37349 -11670086.27346  22260590.114    22260600.728
       233.000         183.000
  21756508.907   -17379963.44449 -13510915.63047  21756508.043    21756518.581
       235.000         197.000
  23029767.382   -12358112.72749  -9281582.98546  23029765.765    23029778.582
       221.000         168.000
  22454668.795   -12656605.39849  -9842879.50246  22454667.627    22454680.390
       228.000         179.000
  24310859.178    -4886433.22649  -3230684.84945  24310857.753    24310872.920
       212.000         140.000
  20261585.408   -28223166.91749 -20906334.79748  20261585.097    20261594.045
       243.000         215.000
 02  2 11  1 33  0.0000000  0  9G26G30G23G18G17G10G15G22G 6
  22257953.898   -20700220.23549 -15798524.97146  22257953.829    22257964.742
       227.000         179.000
  22670269.216   -16327153.88249 -12367076.07446  22670270.179    22670281.816
       226.000         175.000
  20499491.276   -27605034.76849 -21485813.69548  20499490.708    20499499.993
       244.000         214.000
  22244414.960   -15134396.79749 -11736322.52846  22244414.093    22244424.589
       233.000         184.000
  21749745.712   -17415503.66149 -13538609.18747  21749745.085    21749756.020
       235.000         197.000
  23048265.138   -12260906.57949  -9205837.93746  23048264.489    23048276.618
       223.000         168.000
  22444186.804   -12711687.89949  -9885800.75746  22444186.343    22444197.965
       228.000         178.000
  24300459.261    -4941083.76249  -3273269.42545  24300457.473    24300474.501
       214.000         138.000
  20259865.639   -28232204.03049 -20913376.65448  20259865.427    20259874.303
       243.000         215.000
 02  2 11  1 33 30.0000000  0  9G26G30G23G18G17G10G15G22G 6
  22246296.004   -20761482.01649 -15846261.24946  22246295.290    22246307.166
       226.000         178.000
  22688167.128   -16233100.10849 -12293787.47746  22688167.518    22688179.207
       226.000         176.000
  20500453.381   -27599978.58149 -21481873.75048  20500452.892    20500462.095
       244.000         213.000
  22228301.017   -15219075.74049 -11802305.94446  22228300.038    22228310.742
       232.000         184.000
  21743005.375   -17450923.64049 -13566209.05747  21743004.641    21743015.082
       236.000         197.000
  23066794.852   -12163532.64649  -9129962.12946  23066794.061    23066805.545
       223.000         168.000
  22433729.418   -12766640.90649  -9928621.10546  22433728.323    22433740.520
       226.000         178.000
  24290145.900    -4995280.46349  -3315500.34245  24290144.733    24290160.083
       215.000         140.000
  20258228.405   -28240807.37549 -20920080.50648  20258228.170    20258237.049
       243.000         215.000
 02  2 11  1 34  0.0000000  0  9G26G30G23G18G17G10G15G22G 6
  22234718.305   -20822322.12949 -15893668.94646  22234717.306    22234729.363
       226.000         178.000
  22706095.649   -16138885.28649 -12220373.41246  22706095.707    22706108.374
       225.000         177.000
  20501507.574   -27594438.59449 -21477556.81848  20501506.902    20501516.362
       243.000         213.000
  22212249.129   -15303428.19849 -11868034.95546  22212248.880    22212258.662
       234.000         184.000
  21736288.013   -17486223.36649 -13593715.21947  21736287.431    21736297.602
       236.000         197.000
  23085355.965   -12065993.39449  -9053957.51046  23085355.861    23085366.813
       222.000         167.000
  22423296.754   -12821464.07649  -9971340.28946  22423295.336    22423308.289
       226.000         178.000
  24279918.996    -5049021.24449  -3357375.99945  24279916.953    24279934.160
       214.000         138.000
  20256674.078   -28248975.15849 -20926444.95748  20256673.807    20256682.800
       243.000         215.000
 02  2 11  1 34 30.0000000  0  9G26G30G23G18G17G10G15G22G 6
  22223221.441   -20882737.33249 -15940745.54846  22223220.984    22223232.225
       226.000         178.000
  22724054.215   -16044512.51249 -12146836.26346  22724054.744    22724067.548
       226.000         177.000
  20502653.620   -27588415.81649 -21472863.68648  20502653.069    20502662.328
       243.000         213.000
  22196259.732   -15387452.42949 -11933508.20646  22196258.670    22196269.579
       234.000         185.000
  21729593.456   -17521403.15649 -13621127.92747  21729592.466    21729603.017
       236.000         197.000
  23103948.084   -11968291.24149  -8977825.95646  23103947.580    23103958.541
       222.000         167.000
  22412888.736   -12876157.78449 -10013958.58246  22412887.591    22412900.095
       228.000         179.000
  24269779.318    -5102304.65649  -3398895.27845  24269777.583    24269793.467
       212.000         136.000
  20255202.878   -28256706.03049 -20932468.95948  20255202.635    20255211.639
       244.000         215.000
 02  2 11  1 35  0.0000000  0  9G26G30G23G18G17G10G15G22G 6
  22211806.105   -20942724.66349 -15987488.74646  22211805.787    22211816.907
       227.000         178.000
  22742042.269   -15949984.72549 -12073178.31946  22742042.472    22742055.449
       224.000         176.000
  20503891.308   -27581911.46949 -21467795.30448  20503890.882    20503899.908
       242.000         213.000
  22180333.042   -15471147.06149 -11998724.62846  22180331.896    22180342.478
       232.000         185.000
  21722921.665   -17556463.32049 -13648447.42647  21722921.125    21722931.001
       236.000         198.000
  23122570.715   -11870428.82749  -8901569.51746  23122569.758    23122581.844
       222.000         166.000
  22402505.329   -12930722.01449 -10056475.98846  22402504.039    22402516.693
       227.000         179.000
  24259726.914    -5155129.19649  -3440056.98345  24259725.721    24259741.168
       212.000         138.000
  20253815.130   -28263998.56949 -20938151.40248  20253814.956    20253823.886
       244.000         215.000
 02  2 11  1 35 30.0000000  0  9G26G30G23G18G17G10G15G22G 6
  22200472.796   -21002280.89149 -16033896.02146  22200472.673    22200483.922
       227.000         179.000
  22760059.298   -15855305.08549 -11999402.05846  22760059.759    22760071.481
       224.000         175.000
  20505220.451   -27574926.60749 -21462352.49048  20505219.922    20505229.191
       243.000         213.000
  22164469.350   -15554510.33049 -12063682.85046  22164468.378    22164478.674
       233.000         185.000
  21716272.508   -17591404.25949 -13675674.02047  21716271.908    21716282.100
       236.000         198.000
  23141223.285   -11772408.49449  -8825190.02446  23141222.155    23141235.296
       220.000         166.000
  22392146.563   -12985156.82649 -10098892.54846  22392145.520    22392158.220
       227.000         179.000
  24249762.139    -5207493.33849  -3480859.92345  24249760.590    24249775.749
       212.000         138.000
  20252511.038   -28270851.42249 -20943491.23248  20252510.948    20252519.924
       244.000         215.000
 02  2 11  1 36  0.0000000  0  9G26G30G23G18G17G10G15G22G 6
  22189222.138   -21061402.92349 -16079964.95646  22189221.881    22189233.456
       227.000         179.000
  22778104.595   -15760476.46049 -11925509.70346  22778104.596    22778117.103
       223.000         173.000
  20506640.802   -27567462.30349 -21456536.08348  20506640.248    20506649.451
       243.000         213.000
  22148669.130   -15637540.33349 -12128381.37246  22148668.416    22148679.013
       233.000         185.000
  21709646.029   -17626226.20249 -13702807.88647  21709645.535    21709655.602
       236.000         198.000
  23159905.423   -11674232.85949  -8748689.53246  23159904.981    23159916.519
       221.000         167.000
  22381812.294   -13039462.87149 -10141208.77746  22381811.075    22381823.499
       227.000         179.000
  24239885.289    -5259395.79049  -3521303.10645  24239884.347    24239899.242
       212.000         139.000
  20251290.879   -28277263.16449 -20948487.33648  20251290.883    20251299.508
       244.000         215.000
 02  2 11  1 36 30.0000000  0  9G26G30G23G18G17G10G15G22G 6
  22178054.671   -21120087.74949 -16125693.22346  22178054.552    22178065.514
       227.000         179.000
  22796177.718   -15665501.82249 -11851503.55946  22796177.974    22796191.168
       223.000         173.000
  20508152.177   -27559519.79649 -21450347.04948  20508151.742    20508160.746
       242.000         213.000
  22132932.553   -15720235.79849 -12192819.22146  22132931.710    22132942.279
       234.000         186.000
  21703042.093   -17660929.76549 -13729849.51347  21703041.527    21703051.727
       236.000         198.000
  23178616.588   -11575904.81649  -8672070.26746  23178615.508    23178627.577
       221.000         167.000
  22371502.536   -13093640.18949 -10183424.68746  22371501.722    22371513.279
       229.000         179.000
  24230096.492    -5310835.18949  -3561385.46845  24230095.134    24230111.722
       213.000         141.000
  20250154.959   -28283232.50349 -20953138.71248  20250154.700    20250163.541
       243.000         215.000
 02  2 11  1 37  0.0000000  0  9G26G30G23G18G17G10G15G22G 6
  22166970.920   -21178332.63849 -16171078.69346  22166971.405    22166981.874
       228.000         180.000
  22814277.937   -15570384.50649 -11777386.25346  22814278.544    22814290.913
       223.000         173.000
  20509754.267   -27551100.44049 -21443786.44448  20509753.683    20509762.896
       242.000         213.000
  22117259.877   -15802595.45149 -12256995.40446  22117259.130    22117269.578
       234.000         187.000
  21696460.535   -17695515.51849 -13756799.34247  21696459.913    21696470.322
       236.000         198.000
  23197356.203   -11477427.11449  -8595334.39746  23197355.295    23197367.775
       220.000         167.000
  22361217.270   -13147689.23549 -10225540.66046  22361216.232    22361228.626
       228.000         180.000
  24220396.114    -5361810.35849  -3601106.11345  24220394.959    24220409.736
       211.000         141.000
  20249103.420   -28288758.30949 -20957444.48248  20249103.238    20249111.956
       244.000         215.000
 02  2 11  1 37 30.0000000  0  9G26G30G23G18G17G10G15G22G 6
  22155971.551   -21236134.31649 -16216118.80146  22155971.510    22155982.395
       228.000         181.000
  22832404.792   -15475127.25249 -11703159.89546  22832405.674    22832417.521
       224.000         172.000
  20511446.952   -27542205.14249 -21436854.97348  20511446.431    20511455.468
       243.000         213.000
  22101651.517   -15884617.27049 -12320908.32746  22101650.885    22101661.135
       233.000         187.000
  21689901.438   -17729983.39449 -13783657.32247  21689901.054    21689911.216
       237.000         199.000
  23216123.963   -11378801.73849  -8518483.44346  23216123.142    23216135.324
       219.000         167.000
  22350956.392   -13201609.97349 -10267556.64546  22350955.116    22350967.986
       229.000         180.000
  24210784.282    -5412319.65949  -3640463.72445  24210781.425    24210798.654
       211.000         140.000
  20248136.555   -28293838.96349 -20961403.37348  20248136.407    20248145.120
       244.000         215.000
 02  2 11  1 38  0.0000000  0  9G26G30G23G18G17G10G15G22G 6
  22145057.055   -21293489.60249 -16260811.07046  22145056.576    22145067.923
       228.000         181.000
  22850557.780   -15379733.00549 -11628826.78546  22850558.048    22850570.640
       224.000         173.000
  20513229.954   -27532835.16849 -21429553.62348  20513229.537    20513238.337
       243.000         213.000
  22086107.699   -15966299.72749 -12384556.82146  22086107.276    22086117.147
       234.000         187.000
  21683364.664   -17764333.85049 -13810423.80347  21683363.840    21683374.113
       237.000         199.000
  23234919.303   -11280031.46549  -8441519.60746  23234918.571    23234930.672
       219.000         167.000
  22340719.794   -13255402.99049 -10309473.10246  22340718.732    22340730.413
       228.000         180.000
  24201261.359    -5462361.56049  -3679457.14845  24201260.106    24201276.237
       211.000         138.000
  20247254.627   -28298473.26849 -20965014.46348  20247254.627    20247263.146
       244.000         215.000
 02  2 11  1 38 30.0000000  0  9G26G30G23G18G17G10G15G22G 6
  22134227.995   -21350395.73749 -16305153.35746  22134227.893    22134238.464
       228.000         181.000
  22868736.270   -15284204.92449 -11554389.38746  22868736.983    22868749.663
       224.000         173.000
  20515103.028   -27522991.91349 -21421883.48748  20515102.400    20515111.516
       242.000         213.000
  22070628.776   -16047641.36949 -12447939.74046  22070627.792    22070638.392
       233.000         187.000
  21676850.221   -17798567.12149 -13837098.97447  21676849.559    21676859.631
       236.000         199.000
  23253741.610   -11181119.15949  -8364445.08646  23253740.980    23253753.210
       218.000         166.000
  22330507.442   -13309068.51049 -10351290.20746  22330506.782    22330517.618
       229.000         180.000
  24191827.572    -5511934.98449  -3718085.54245  24191825.368    24191841.334
       209.000         138.000
  20246457.901   -28302659.97149 -20968276.77248  20246457.749    20246466.490
       244.000         215.000
 02  2 11  1 39  0.0000000  0  9G26G30G23G18G17G10G15G22G 6
  22123485.050   -21406849.53749 -16349143.19346  22123484.860    22123495.346
       229.000         182.000
  22886939.664   -15188545.86749 -11479849.93746  22886940.141    22886952.629
       222.000         172.000
  20517065.915   -27512676.49249 -21413845.42848  20517065.561    20517074.436
       242.000         213.000
  22055214.986   -16128640.52449 -12511055.79646  22055214.173    22055224.258
       233.000         187.000
  21670357.975   -17832683.69549 -13863683.21147  21670357.224    21670367.535
       237.000         199.000
  23272590.599   -11082066.91649  -8287261.53546  23272589.861    23272601.923
       218.000         166.000
  22320319.315   -13362606.53249 -10393007.97246  22320318.575    22320330.116
       229.000         180.000
  24182483.205    -5561038.55349  -3756347.78545  24182481.646    24182498.081
       209.000         141.000
  20245746.635   -28306397.70049 -20971189.23348  20245746.581    20245755.111
       244.000         215.000
 02  2 11  1 39 30.0000000  0  9G26G30G23G18G17G10G15G22G 6
  22112828.750   -21462848.26449 -16392778.42046  22112828.767    22112839.186
       230.000         182.000
  22905167.343   -15092758.87749 -11405210.79046  22905167.822    22905181.079
       222.000         172.000
  20519118.436   -27501890.26749 -21405440.50848  20519117.970    20519126.992
       242.000         213.000
  22039866.622   -16209295.89849 -12573903.96146  22039865.788    22039876.290
       232.000         187.000
  21663887.884   -17866683.95649 -13890176.81747  21663887.133    21663897.419
       237.000         199.000
  23291465.718   -10982877.40549  -8209971.00246  23291465.304    23291477.307
       217.000         165.000
  22310155.452   -13416017.51349 -10434626.73146  22310154.322    22310165.877
       229.000         181.000
  24173228.488    -5609670.89549  -3794242.85945  24173226.693    24173242.498
       209.000         141.000
  20245120.967   -28309685.38849 -20973751.01248  20245120.824    20245129.549
       244.000         215.000
 02  2 11  1 40  0.0000000  0  9G26G30G23G18G17G10G15G22G 6
  22102259.711   -21518388.68449 -16436056.53146  22102259.674    22102270.219
       229.000         183.000
  22923418.783   -14996846.76949 -11330474.17746  22923419.607    22923432.015
       220.000         171.000
  20521260.264   -27490634.42849 -21396669.65548  20521259.688    20521268.767
       242.000         213.000
  22024584.001   -16289605.90649 -12636483.01147  22024583.118    22024593.242
       233.000         188.000
  21657439.921   -17900567.95449 -13916579.82647  21657439.317    21657449.491
       238.000         199.000
  23310366.433   -10883553.08749  -8132575.43146  23310365.810    23310378.580
       217.000         164.000
  22300015.733   -13469301.56649 -10476146.60246  22300014.771    22300026.597
       229.000         181.000
  24164063.712    -5657830.76449  -3831769.75545  24164062.368    24164077.691
       208.000         141.000
  20244581.206   -28312521.56249 -20975960.96248  20244581.048    20244589.675
       244.000         215.000
 02  2 11  1 40 30.0000000  0  9G26G30G23G18G17G10G15G22G 6
  22091778.298   -21573468.22049 -16478975.51146  22091778.270    22091788.986
       229.000         183.000
  22941693.366   -14900813.13249 -11255642.85046  22941694.146    22941705.760
       222.000         171.000
  20523491.200   -27478910.50749 -21387534.06548  20523490.773    20523499.715
       243.000         213.000
  22009367.300   -16369569.40549 -12698792.05847  22009366.762    22009377.243
       234.000         189.000
  21651013.918   -17934336.37449 -13942892.77447  21651013.086    21651023.290
       236.000         199.000
  23329292.256   -10784097.02249  -8055077.22046  23329291.348    23329304.471
       216.000         164.000
  22289900.041   -13522459.17849 -10517567.94446  22289899.384    22289910.669
       230.000         182.000
  24154989.252    -5705517.11149  -3868927.67745  24154988.010    24155003.212
       207.000         141.000
  20244127.526   -28314905.45749 -20977818.48348  20244127.312    20244135.983
       244.000         215.000
 02  2 11  1 41  0.0000000  0  9G26G30G23G18G17G10G15G22G 6
  22081385.227   -21628083.87749 -16521533.02346  22081384.885    22081395.961
       229.000         184.000
  22959990.660   -14804660.69649 -11180718.94746  22959991.259    22960003.146
       224.000         171.000
  20525810.980   -27466719.73849 -21378034.69748  20525810.447    20525819.570
       242.000         213.000
  21994216.914   -16449184.68649 -12760829.77547  21994216.421    21994225.913
       233.000         189.000
  21644609.780   -17967989.68849 -13969116.03647  21644608.739    21644619.164
       236.000         199.000
  23348242.720   -10684511.42449  -7977478.06246  23348242.158    23348254.395
       218.000         165.000
  22279808.315   -13575490.53249 -10558890.90546  22279806.811    22279819.273
       229.000         181.000
  24146004.818    -5752728.80349  -3905715.74845  24146004.189    24146017.994
       207.000         141.000
  20243760.201   -28316835.65249 -20979322.48148  20243760.097    20243768.667
       243.000         215.000
 02  2 11  1 41 30.0000000  0  9G26G30G23G18G17G10G15G22G 6
  22071080.942   -21682232.57549 -16563726.66046  22071080.089    22071091.555
       229.000         184.000
  22978310.076   -14708392.38949 -11105704.75446  22978310.766    22978322.406
       224.000         171.000
  20528219.341   -27454063.33849 -21368172.50248  20528218.770    20528227.788
       242.000         213.000
  21979133.065   -16528450.13449 -12822594.89147  21979132.093    21979142.292
       234.000         188.000
  21638227.556   -18001527.93949 -13995249.63947  21638226.997    21638237.182
       236.000         199.000
  23367217.398   -10584798.65449  -7899779.81146  23367217.522    23367229.646
       219.000         165.000
  22269740.581   -13628395.73049 -10600115.55846  22269739.450    22269751.962
       231.000         182.000
  24137111.219    -5799464.37149  -3942132.84045  24137110.606    24137124.757
       205.000         140.000
  20243479.415   -28318310.89949 -20980471.96948  20243479.281    20243487.803
       244.000         215.000
 02  2 11  1 42  0.0000000  0  9G26G30G23G18G17G10G15G22G 6
  22060865.850   -21735912.45749 -16605554.99346  22060865.591    22060876.283
       229.000         184.000
  22996650.763   -14612012.07349 -11030603.27646  22996650.900    22996663.533
       222.000         170.000
  20530715.887   -27440943.53449 -21357949.21348  20530715.441    20530724.527
       242.000         213.000
  21964115.817   -16607365.36649 -12884087.11647  21964115.130    21964125.528
       234.000         189.000
  21631866.999   -18034952.33749 -14021294.52147  21631866.301    21631876.409
       237.000         199.000
  23386215.688   -10484962.04349  -7821985.05646  23386215.310    23386227.949
       220.000         166.000
  22259696.749   -13681175.94449 -10641242.82346  22259695.713    22259706.857
       230.000         182.000
  24128308.199    -5845723.55549  -3978178.70045  24128307.171    24128322.388
       205.000         142.000
  20243285.252   -28319331.11349 -20981266.88848  20243285.135    20243293.631
       244.000         215.000
 02  2 11  1 42 30.0000000  0  9G26G30G23G18G17G10G15G22G 6
  22050740.747   -21789119.52049 -16647014.89646  22050740.250    22050751.505
       229.000         184.000
  23015012.289   -14515521.62449 -10955415.98846  23015012.888    23015025.388
       223.000         169.000
  20533300.593   -27427360.55249 -21347365.01248  20533300.012    20533308.918
       242.000         213.000
  21949165.849   -16685927.54849 -12945304.24047  21949164.989    21949175.379
       235.000         190.000
  21625528.297   -18068262.05249 -14047250.04247  21625527.429    21625537.767
       237.000         200.000
  23405237.321   -10385003.06749  -7744094.94846  23405236.932    23405249.559
       221.000         166.000
  22249676.873   -13733830.19749 -10682271.93546  22249676.080    22249687.339
       230.000         183.000
  24119596.257    -5891504.00749  -4013851.56645  24119594.662    24119610.442
       204.000         143.000
  20243178.135   -28319893.84849 -20981705.33248  20243178.019    20243186.414
       244.000         215.000
 02  2 11  1 43  0.0000000  0  9G26G30G23G18G17G10G15G22G 6
  22040706.164   -21841851.25849 -16688104.41646  22040706.257    22040716.130
       230.000         185.000
  23033394.165   -14418924.45049 -10880145.52746  23033394.543    23033406.650
       223.000         168.000
  20535973.105   -27413316.13649 -21336421.25248  20535972.752    20535981.584
       242.000         213.000
  21934283.269   -16764135.68549 -13006245.48647  21934282.542    21934292.447
       235.000         190.000
  21619211.333   -18101457.74849 -14073116.72147  21619210.802    21619220.852
       237.000         200.000
  23424281.751   -10284924.58849  -7666111.73946  23424281.727    23424293.054
       222.000         166.000
  22239680.844   -13786359.10149 -10723203.38346  22239680.400    22239691.496
       231.000         184.000
  24110975.583    -5936804.92549  -4049150.74845  24110975.029    24110989.983
       205.000         143.000
  20243158.188   -28319998.33749 -20981786.70048  20243157.963    20243166.651
       244.000         215.000
 02  2 11  1 43 30.0000000  0  9G26G30G23G18G17G10G15G22G 6
  22030762.587   -21894104.77149 -16728821.29046  22030762.471    22030772.178
       230.000         184.000
  23051795.919   -14322223.32149 -10804794.05846  23051795.924    23051808.459
       222.000         168.000
  20538733.213   -27398811.61749 -21325118.97348  20538732.791    20538741.434
       242.000         213.000
  21919468.240   -16841988.43749 -13066909.79647  21919467.668    21919477.396
       235.000         190.000
  21612915.952   -18134539.84149 -14098894.87147  21612915.280    21612925.320
       237.000         200.000
  23443348.412   -10184729.05049  -7588037.28546  23443348.138    23443359.628
       221.000         164.000
  22229708.621   -13838762.97449 -10764037.40146  22229708.043    22229719.189
       230.000         184.000
  24102446.435    -5981625.09449  -4084075.35045  24102446.174    24102461.522
       204.000         144.000
  20243225.690   -28319643.39349 -20981510.07348  20243225.447    20243233.939
       244.000         215.000
 02  2 11  1 44  0.0000000  0  9G26G30G23G18G17G10G15G22G 6
  22020910.548   -21945876.94949 -16769163.09346  22020910.511    22020921.090
       230.000         184.000
  23070216.858   -14225420.97049 -10729363.71546  23070217.031    23070228.877
       221.000         167.000
  20541580.606   -27383848.21049 -21313459.11648  20541579.950    20541588.792
       242.000         213.000
  21904721.102   -16919484.36749 -13127296.07747  21904720.248    21904730.335
       235.000         190.000
  21606642.185   -18167508.15749 -14124584.36747  21606641.583    21606651.447
       237.000         200.000
  23462436.933   -10084418.40649  -7509873.15046  23462436.583    23462448.056
       219.000         163.000
  22219760.193   -13891041.60649 -10804773.83546  22219759.611    22219771.308
       232.000         184.000
  24094008.915    -6025963.25849  -4118624.35245  24094006.476    24094022.685
       203.000         143.000
  20243380.929   -28318827.49349 -20980874.26048  20243380.739    20243389.273
       244.000         215.000
 02  2 11  1 44 30.0000000  0  9G26G30G23G18G17G10G15G22G 6
  22011150.642   -21997165.06749 -16809127.71046  22011150.438    22011160.721
       230.000         185.000
  23088656.375   -14128520.54149 -10653856.96446  23088656.396    23088669.378
       219.000         165.000
  20544514.998   -27368427.53649 -21301442.95047  20544514.349    20544523.388
       242.000         212.000
  21890042.249   -16996621.61649 -13187402.86147  21890041.600    21890051.351
       235.000         191.000
  21600389.979   -18200363.17549 -14150185.57947  21600389.202    21600399.581
       237.000         200.000
  23481546.830    -9983995.19649  -7431621.29645  23481545.894    23481558.740
       218.000         161.000
  22209835.570   -13943195.42549 -10845413.01346  22209834.412    22209845.802
       231.000         184.000
  24085663.361    -6069818.25349  -4152796.86645  24085661.933    24085677.152
       203.000         143.000
  20243624.023   -28317549.80649 -20979878.61548  20243624.021    20243632.457
       244.000         215.000
 02  2 11  1 45  0.0000000  0  9G26G30G23G18G17G10G15G22G 6
  22001483.294   -22047966.74749 -16848713.27246  22001482.581    22001493.802
       230.000         185.000
  23107113.976   -14031525.18049 -10578276.22546  23107114.917    23107127.166
       220.000         164.000
  20547536.060   -27352551.38549 -21289071.86147  20547535.447    20547544.462
       242.000         212.000
  21875431.842   -17073399.15249 -13247229.34647  21875431.334    21875440.880
       236.000         191.000
  21594159.253   -18233105.46949 -14175698.95747  21594158.675    21594168.470
       237.000         200.000
  23500677.577    -9883462.46949  -7353284.10945  23500676.400    23500688.628
       217.000         159.000
  22199934.521   -13995224.78149 -10885955.20846  22199933.376    22199945.241
       231.000         184.000
  24077410.002    -6113189.45749  -4186592.40845  24077408.557    24077423.918
       201.000         143.000
  20243955.196   -28315809.45049 -20978522.44748  20243955.082    20243963.543
       244.000         215.000
 02  2 11  1 45 30.0000000  0 10G26G30G23G18G17G10G15G22G 6G21
  21991908.723   -22098281.01749 -16887919.04346  21991908.828    21991918.633
       230.000         185.000
  23125588.792   -13934439.81649 -10502625.36146  23125589.867    23125601.901
       220.000         165.000
  20550643.221   -27336222.90649 -21276348.31048  20550642.796    20550651.669
       242.000         213.000
  21860889.764   -17149817.62649 -13306776.04347  21860889.001    21860898.938
       235.000         191.000
  21587949.573   -18265737.18349 -14201126.16647  21587949.314    21587958.847
       238.000         200.000
  23519828.367    -9782824.47949  -7274864.90645  23519827.862    23519839.348
       216.000         158.000
  22190056.810   -14047131.80749 -10926402.07946  22190056.054    22190067.537
       230.000         185.000
  24069248.524    -6156077.53649  -4220011.50445  24069246.437    24069261.839
       203.000         143.000
  20244374.213   -28313607.13049 -20976806.30448  20244374.041    20244382.603
       244.000         215.000
  24842698.417    -5782166.49349  -4491614.08945  24842697.249    24842716.859
       213.000         143.000
 02  2 11  1 46  0.0000000  0 10G26G30G23G18G17G10G15G22G 6G21
  21982426.815   -22148108.30849 -16926745.34646  21982426.933    21982436.619
       230.000         185.000
  23144079.508   -13837270.84949 -10426909.35646  23144080.526    23144092.667
       220.000         165.000
  20553835.566   -27319446.80349 -21263275.96148  20553835.286    20553843.966
       242.000         213.000
  21846415.607   -17225879.18249 -13366044.63647  21846414.872    21846424.501
       235.000         191.000
  21581760.300   -18298261.90349 -14226470.00047  21581759.709    21581769.339
       238.000         201.000
  23538998.032    -9682086.88549  -7196368.09145  23538998.151    23539008.965
       215.000         157.000
  22180201.707   -14098920.13649 -10966756.46646  22180201.096    22180212.262
       231.000         185.000
  24061178.558    -6198484.69149  -4253055.84545  24061177.254    24061192.968
       202.000         144.000
  20244880.723   -28310945.23849 -20974732.05948  20244880.721    20244889.133
       244.000         215.000
  24825484.007    -5872626.98849  -4562102.31045  24825482.866    24825500.473
       215.000         140.000
 02  2 11  1 46 30.0000000  0 10G26G30G23G18G17G10G15G22G 6G21
  21973039.668   -22197437.43649 -16965183.48146  21973039.501    21973049.187
       230.000         185.000
  23162587.216   -13740012.55549 -10351123.73546  23162587.794    23162599.888
       219.000         165.000
  20557114.466   -27302216.04349 -21249849.33248  20557114.056    20557122.791
       243.000         213.000
  21832011.274   -17301573.87749 -13425027.34947  21832010.893    21832020.045
       236.000         192.000
  21575592.942   -18330671.33549 -14251723.99747  21575592.438    21575602.154
       237.000         201.000
  23558187.920    -9581243.71049  -7117788.99145  23558187.356    23558199.009
       215.000         158.000
  22170370.789   -14150581.39849 -11007011.83546  22170369.822    22170381.236
       231.000         186.000
  24053201.963    -6240401.45049  -4285718.05645  24053201.665    24053216.437
       207.000         147.000
  20245476.509   -28307814.08549 -20972292.15248  20245476.258    20245484.922
       243.000         215.000
  24808300.390    -5962925.54149  -4632464.40045  24808299.632    24808319.327
       214.000         137.000
 02  2 11  1 47  0.0000000  0 10G26G30G23G18G17G10G15G22G 6G21
  21963747.614   -22246267.14249 -17003232.45946  21963747.344    21963757.544
       230.000         185.000
  23181111.013   -13642669.19449 -10275271.85046  23181110.981    23181124.521
       219.000         165.000
  20560479.301   -27284533.51649 -21236070.67748  20560478.687    20560487.494
       242.000         213.000
  21817676.803   -17376901.61949 -13483724.12947  21817675.897    21817685.465
       236.000         192.000
  21569447.143   -18362967.19549 -14276889.49547  21569446.453    21569456.470
       237.000         201.000
  23577397.181    -9480298.72549  -7039130.57145  23577396.378    23577408.382
       217.000         158.000
  22160563.747   -14202117.20549 -11047169.45846  22160562.442    22160574.032
       231.000         186.000
  24045318.604    -6281828.31249  -4317998.53945  24045317.693    24045332.954
       206.000         147.000
  20246161.519   -28304214.03949 -20969486.87548  20246161.374    20246169.855
       243.000         214.000
  24791147.559    -6053062.06749  -4702700.23945  24791145.567    24791164.763
       215.000         133.000
 02  2 11  1 47 30.0000000  0 10G26G30G23G18G17G10G15G22G 6G21
  21954550.871   -22294595.54049 -17040890.80746  21954550.551    21954560.599
       230.000         185.000
  23199650.345   -13545244.76649 -10199356.79146  23199651.286    23199663.727
       220.000         165.000
  20563929.640   -27266401.56149 -21221941.81948  20563929.028    20563937.856
       242.000         213.000
  21803412.128   -17451862.25249 -13542134.84247  21803411.292    21803421.044
       236.000         193.000
  21563322.758   -18395150.65149 -14301967.40847  21563321.783    21563331.713
       237.000         201.000
  23596625.119    -9379255.14649  -6960395.32045  23596624.857    23596636.260
       214.000         158.000
  22150780.274   -14253528.83549 -11087230.30846  22150779.494    22150790.204
       231.000         186.000
  24037528.423    -6322764.99249  -4349897.05545  24037527.736    24037541.705
       208.000         147.000
  20246935.744   -28300145.12349 -20966316.24448  20246935.648    20246943.993
       243.000         214.000
  24774025.670    -6143035.90049  -4772809.34044  24774025.589    24774044.282
       213.000         131.000
 02  2 11  1 48  0.0000000  0 10G26G30G23G18G17G10G15G22G 6G21
  21945450.003   -22342420.31249 -17078156.72646  21945449.901    21945460.103
       230.000         185.000
  23218204.529   -13447742.37249 -10123380.98046  23218204.691    23218219.015
       220.000         166.000
  20567465.122   -27247822.17549 -21207464.31147  20567464.661    20567473.249
       242.000         212.000
  21789217.485   -17526454.69549 -13600258.65647  21789216.839    21789226.407
       236.000         193.000
  21557219.640   -18427222.13249 -14326958.06647  21557219.088    21557228.696
       238.000         201.000
  23615871.272    -9278115.68149  -6881585.36545  23615870.873    23615882.082
       215.000         158.000
  22141020.412   -14304816.59149 -11127194.63746  22141019.601    22141030.879
       231.000         186.000
  24029831.780    -6363210.86349  -4381413.14445  24029830.954    24029845.605
       209.000         149.000
  20247799.407   -28295606.50449 -20962779.61248  20247799.260    20247807.765
       244.000         215.000
  24756935.100    -6232845.85949  -4842790.72545  24756932.532    24756952.224
       212.000         133.000
 02  2 11  1 48 30.0000000  0 10G26G30G23G18G17G10G15G22G 6G21
  21936445.337   -22389739.37249 -17115028.58446  21936444.855    21936454.744
       231.000         186.000
  23236772.882   -13350165.56649 -10047347.17946  23236773.566    23236786.323
       220.000         167.000
  20571085.382   -27228797.21449 -21192639.60547  20571084.804    20571093.501
       242.000         212.000
  21775093.213   -17600677.93149 -13658094.78447  21775092.747    21775101.819
       236.000         193.000
  21551137.704   -18459182.51449 -14351862.15947  21551136.868    21551146.720
       238.000         201.000
  23635135.215    -9176883.09049  -6802702.82645  23635133.528    23635147.568
       215.000         157.000
  22131284.053   -14355981.00249 -11167062.85446  22131283.151    22131293.968
       232.000         186.000
  24022228.479    -6403165.51849  -4412546.44945  24022227.318    24022241.905
       211.000         150.000
  20248752.469   -28290597.77049 -20958876.65448  20248752.270    20248760.837
       243.000         214.000
  24739875.962    -6322491.03949  -4912643.68645  24739873.832    24739894.446
       210.000         137.000
 02  2 11  1 49  0.0000000  0 10G26G30G23G18G17G10G15G22G 6G21
  21927537.503   -22436550.05349 -17151504.30346  21927537.362    21927547.192
       229.000         186.000
  23255354.704   -13252517.37749  -9971257.75346  23255354.943    23255367.983
       220.000         167.000
  20574790.152   -27209328.42149 -21177469.05347  20574789.699    20574798.294
       242.000         212.000
  21761039.338   -17674530.81249 -13715642.31847  21761038.507    21761048.022
       236.000         193.000
  21545076.869   -18491032.11049 -14376679.92147  21545076.054    21545085.694
       238.000         201.000
  23654416.354    -9075559.83249  -6723749.64545  23654415.549    23654427.961
       216.000         156.000
  22121571.112   -14407022.53049 -11206835.31346  22121570.146    22121581.274
       232.000         186.000
  24014718.799    -6442628.17149  -4443296.38445  24014717.577    24014732.814
       212.000         151.000
  20249795.192   -28285118.00049 -20954606.65648  20249795.009    20249803.508
       243.000         214.000
  24722848.223    -6411970.39449  -4982367.44545  24722846.340    24722865.626
       209.000         137.000
 02  2 11  1 49 30.0000000  0 10G26G30G23G18G17G10G15G22G 6G21
  21918726.872   -22482849.57649 -17187581.72146  21918726.401    21918736.347
       230.000         186.000
  23273949.616   -13154800.61249  -9895114.89946  23273950.349    23273962.790
       218.000         165.000
  20578579.088   -27189417.21649 -21161953.76748  20578578.686    20578587.123
       242.000         213.000
  21747056.150   -17748012.00749 -13772900.22447  21747055.557    21747065.106
       236.000         193.000
  21539037.110   -18522770.96949 -14401411.40047  21539036.495    21539046.176
       238.000         201.000
  23673714.367    -8974148.22049  -6644727.60145  23673713.549    23673725.714
       215.000         155.000
  22111881.437   -14457941.33149 -11246512.15046  22111880.674    22111891.535
       231.000         186.000
  24007303.047    -6481597.69949  -4473662.06245  24007302.061    24007316.248
       214.000         152.000
  20250927.731   -28279166.25149 -20949968.87948  20250927.505    20250936.213
       243.000         214.000
  24705852.346    -6501282.24849  -5051960.71345  24705851.225    24705869.363
       205.000         139.000
 02  2 11  1 50  0.0000000  0 10G26G30G23G18G17G10G15G22G 6G21
  21910013.935   -22528635.90649 -17223259.24646  21910013.743    21910023.749
       229.000         186.000
  23292556.994   -13057018.45349  -9818921.09646  23292557.448    23292570.515
       218.000         164.000
  20582451.823   -27169065.60749 -21146095.30348  20582451.315    20582460.236
       242.000         213.000
  21733143.879   -17821120.68149 -13829867.84747  21733143.298    21733152.805
       237.000         194.000
  21533018.271   -18554399.87349 -14426057.19747  21533017.712    21533027.375
       238.000         201.000
  23693028.685    -8872650.95549  -6565638.82945  23693027.259    23693039.728
       216.000         155.000
  22102215.065   -14508737.88949 -11286093.71646  22102213.806    22102224.799
       231.000         186.000
  23999981.165    -6520073.69749  -4503643.18145  23999980.499    23999994.733
       212.000         152.000
  20252150.187   -28272742.02249 -20944962.93648  20252149.968    20252158.661
       244.000         214.000
  24688888.495    -6590426.09149  -5121423.06945  24688886.839    24688906.272
       200.000         138.000
 02  2 11  1 50 30.0000000  0 10G26G30G23G18G17G10G15G22G 6G21
  21901399.171   -22573906.09649 -17258534.59946  21901398.967    21901408.653
       230.000         186.000
  23311176.280   -12959173.59049  -9742678.43946  23311176.748    23311189.649
       218.000         164.000
  20586408.116   -27148274.93249 -21129894.71348  20586407.377    20586416.355
       242.000         213.000
  21719302.824   -17893855.27949 -13886544.00047  21719302.480    21719311.970
       237.000         195.000
  21527020.347   -18585918.68349 -14450617.21547  21527019.884    21527029.332
       238.000         201.000
  23712358.908    -8771070.21249  -6486485.01145  23712357.756    23712368.989
       214.000         153.000
  22092571.906   -14559412.06049 -11325579.92946  22092571.161    22092581.981
       231.000         186.000
  23992753.384    -6558054.91349  -4533238.75245  23992752.173    23992767.030
       214.000         153.000
  20253462.833   -28265843.89449 -20939587.72548  20253462.759    20253471.159
       244.000         214.000
  24671957.001    -6679399.77649  -5190752.80745  24671955.491    24671973.376
       198.000         136.000
 02  2 11  1 51  0.0000000  0 10G26G30G23G18G17G10G15G22G 6G21
  21892883.060   -22618657.87449 -17293406.00146  21892883.152    21892892.558
       230.000         186.000
  23329806.959   -12861269.29949  -9666389.45646  23329808.909    23329820.158
       219.000         165.000
  20590447.565   -27127047.07249 -21113353.45747  20590447.020    20590455.757
       242.000         212.000
  21705533.146   -17966214.99149 -13942928.02547  21705532.503    21705541.598
       237.000         195.000
  21521043.281   -18617327.90849 -14475091.84047  21521042.442    21521052.419
       238.000         201.000
  23731704.491    -8669408.67849  -6407268.23445  23731703.753    23731715.712
       214.000         152.000
  22082952.051   -14609964.28249 -11364971.11546  22082950.821    22082962.131
       231.000         186.000
  23985619.965    -6595540.83249  -4562448.37945  23985618.702    23985633.940
       213.000         154.000
  20254865.758   -28258471.37849 -20933842.85848  20254865.668    20254873.922
       244.000         215.000
  24655058.398    -6768201.81448  -5259948.82745  24655056.430    24655076.012
       192.000         133.000
 02  2 11  1 51 30.0000000  0 10G26G30G23G18G17G10G15G22G 6G21
  21884466.151   -22662888.55649 -17327871.34646  21884466.149    21884475.621
       230.000         186.000
  23348448.364   -12763308.41349  -9590056.37646  23348448.146    23348461.426
       218.000         164.000
  20594569.965   -27105383.48049 -21096472.67847  20594569.436    20594577.990
       242.000         212.000
  21691835.006   -18038198.47649 -13999018.88647  21691834.475    21691843.464
       237.000         195.000
  21515087.008   -18648627.76749 -14499481.24647  21515086.106    21515095.892
       237.000         201.000
  23751064.988    -8567668.35049  -6327990.06145  23751063.931    23751077.198
       212.000         151.000
  22073355.297   -14660394.93649 -11404267.56946  22073353.925    22073365.142
       231.000         186.000
  23978580.836    -6632530.70449  -4591271.47545  23978579.755    23978594.325
       216.000         154.000
  20256359.154   -28250623.58549 -20927727.65048  20256359.144    20256367.343
       244.000         215.000
  24638192.357    -6856831.61048  -5329010.58545  24638189.566    24638209.828
       193.000         132.000
 02  2 11  1 52  0.0000000  0 10G26G30G23G18G17G10G15G22G 6G21
  21876148.821   -22706595.66649 -17361928.71746  21876148.258    21876158.789
       229.000         185.000
  23367099.972   -12665293.67949  -9513681.34146  23367100.123    23367113.020
       218.000         163.000
  20598775.032   -27083285.59849 -21079253.49147  20598774.655    20598782.963
       242.000         212.000
  21678208.748   -18109804.32649 -14054815.48947  21678208.249    21678217.013
       238.000         196.000
  21509151.591   -18679818.15549 -14523785.34747  21509150.905    21509160.410
       238.000         201.000
  23770440.133    -8465851.49049  -6248652.26345  23770439.337    23770451.988
       213.000         151.000
  22063781.684   -14710703.99849 -11443469.28346  22063780.832    22063791.054
       232.000         187.000
  23971636.438    -6669023.57949  -4619707.30945  23971635.242    23971649.040
       214.000         155.000
  20257943.182   -28242299.41349 -20921241.23648  20257943.038    20257951.488
       244.000         215.000
  24621359.481    -6945287.43149  -5397936.81545  24621359.188    24621376.556
       202.000         137.000
 02  2 11  1 52 30.0000000  0 10G26G30G23G18G17G10G15G22G 6G21
  21867931.607   -22749776.66649 -17395576.13246  21867931.666    21867941.295
       230.000         185.000
  23385761.291   -12567228.22749  -9437266.79145  23385761.574    23385774.776
       217.000         162.000
  20603062.382   -27060755.39849 -21061697.43647  20603062.077    20603070.292
       242.000         212.000
  21664654.575   -18181031.48849 -14110317.00947  21664653.762    21664662.844
       237.000         195.000
  21503236.922   -18710899.54649 -14548004.51847  21503236.329    21503245.766
       238.000         201.000
  23789829.289    -8363960.89149  -6169257.00445  23789828.744    23789840.375
       215.000         153.000
  22054231.176   -14760891.71049 -11482576.43646  22054230.674    22054240.724
       231.000         186.000
  23964786.701    -6705018.59049  -4647755.17845  23964785.794    23964800.765
       214.000         155.000
  20259617.977   -28233498.26249 -20914383.15248  20259617.858    20259626.068
       244.000         215.000
  24604560.014    -7033568.10249  -5466726.58445  24604559.898    24604576.839
       204.000         140.000
 02  2 11  1 53  0.0000000  0 10G26G30G23G18G17G10G15G22G 6G21
  21859815.037   -22792428.96249 -17428811.57646  21859814.785    21859824.619
       231.000         186.000
  23404431.725   -12469114.66649  -9360814.75445  23404432.618    23404445.606
       219.000         162.000
  20607431.722   -27037794.23349 -21043805.56647  20607431.252    20607439.673
       242.000         212.000
  21651172.671   -18251878.75849 -14165522.51047  21651171.976    21651180.981
       238.000         195.000
  21497342.988   -18741872.14649 -14572138.92347  21497342.320    21497351.919
       238.000         201.000
  23809232.109    -8261998.33249  -6089805.67445  23809232.271    23809243.516
       214.000         155.000
  22044703.768   -14810958.22449 -11521589.15046  22044702.880    22044713.059
       231.000         186.000
  23958031.776    -6740514.97849  -4675414.52645  23958030.601    23958045.098
       216.000         155.000
  20261383.724   -28224219.01149 -20907152.52548  20261383.636    20261391.910
       244.000         215.000
  24587794.119    -7121671.82649  -5535378.47645  24587793.315    24587810.598
       208.000         145.000
 02  2 11  1 53 30.0000000  0 10G26G30G23G18G17G10G15G22G 6G21
  21851799.482   -22834550.57149 -17461633.48846  21851799.474    21851809.176
       230.000         186.000
  23423110.778   -12370956.38949  -9284327.86345  23423111.727    23423124.252
       219.000         162.000
  20611882.625   -27014404.18849 -21025579.50047  20611881.941    20611890.742
       242.000         212.000
  21637763.170   -18322345.45949 -14220431.46647  21637762.679    21637771.340
       238.000         196.000
  21491469.743   -18772736.24749 -14596188.78247  21491469.265    21491478.501
       238.000         202.000
  23828648.136    -8159966.59049  -6010300.43145  23828648.210    23828660.158
       215.000         155.000
  22035199.317   -14860903.81349 -11560507.63546  22035198.410    22035208.673
       231.000         187.000
  23951371.875    -6775512.43649  -4702685.09745  23951371.041    23951385.086
       215.000         155.000
  20263240.501   -28214461.41149 -20899549.15648  20263240.221    20263248.813
       244.000         215.000
  24571062.091    -7209597.69549  -5603891.77745  24571060.729    24571079.233
       209.000         147.000
 02  2 11  1 54  0.0000000  0 10G26G30G23G18G17G10G15G22G 6G21
  21843885.415   -22876138.82049 -17494039.80246  21843885.613    21843894.647
       231.000         187.000
  23441797.813   -12272755.92449  -9207808.09746  23441798.690    23441810.894
       219.000         163.000
  20616414.837   -26990586.72749 -21007020.38347  20616414.143    20616423.062
       242.000         212.000
  21624426.427   -18392429.94749 -14275042.59547  21624425.572    21624434.767
       238.000         197.000
  21485617.063   -18803491.89149 -14620154.12847  21485616.327    21485625.933
       238.000         202.000
  23848076.999    -8057867.45749  -5930742.67845  23848076.200    23848088.784
       217.000         157.000
  22025717.804   -14910728.62449 -11599332.01446  22025717.143    22025728.210
       231.000         186.000
  23944807.105    -6810009.92249  -4729566.08445  23944805.946    23944819.943
       216.000         155.000
  20265188.521   -28204224.36849 -20891572.19448  20265188.392    20265196.531
       244.000         215.000
  24554364.128    -7297344.41549  -5672265.46945  24554363.368    24554381.040
       210.000         149.000
 02  2 11  1 54 30.0000000  0 10G26G30G23G18G17G10G15G22G 6G21
  21836073.330   -22917191.22349 -17526028.56046  21836073.201    21836082.694
       230.000         187.000
  23460492.250   -12174516.40549  -9131257.91346  23460492.879    23460505.233
       219.000         163.000
  20621028.076   -26966343.57249 -20988129.55347  20621027.470    20621036.210
       242.000         212.000
  21611162.559   -18462131.26949 -14329355.14147  21611161.674    21611170.817
       238.000         197.000
  21479784.980   -18834139.30849 -14644035.14247  21479784.525    21479793.925
       238.000         202.000
  23867518.161    -7955703.67449  -5851134.54445  23867517.561    23867530.152
       217.000         158.000
  22016259.297   -14960432.58449 -11638062.22246  22016258.571    22016269.605
       231.000         187.000
  23938337.502    -6844006.85049  -4756057.02345  23938336.395    23938350.516
       217.000         155.000
  20267227.927   -28193507.07249 -20883221.01548  20267227.730    20267236.106
       244.000         214.000
  24537700.507    -7384910.73049  -5740498.55645  24537699.554    24537717.017
       210.000         150.000
 02  2 11  1 55  0.0000000  0 10G26G30G23G18G17G10G15G22G 6G21
  21828363.608   -22957705.69749 -17557598.16146  21828363.558    21828373.050
       231.000         187.000
  23479193.623   -12076240.59049  -9054679.43846  23479194.382    23479207.421
       220.000         164.000
  20625722.043   -26941676.48749 -20968908.39547  20625721.830    20625730.142
       242.000         212.000
  21597971.738   -18531448.63749 -14383368.50647  21597971.166    21597980.073
       238.000         197.000
  21473973.384   -18864678.88549 -14667832.12147  21473972.508    21473981.928
       238.000         202.000
  23886971.171    -7853477.55649  -5771477.82945  23886970.375    23886982.855
       219.000         160.000
  22006823.768   -15010015.89049 -11676698.41646  22006822.814    22006833.134
       232.000         187.000
  23931963.333    -6877502.73449  -4782157.56245  23931962.477    23931976.480
       216.000         155.000
  20269358.840   -28182308.87049 -20874495.10348  20269358.565    20269367.121
       244.000         214.000
  24521071.499    -7472295.62349  -5808590.27645  24521070.456    24521088.373
       210.000         149.000
 02  2 11  1 55 30.0000000  0 10G26G30G23G18G17G10G15G22G 6G21
  21820756.777   -22997679.43149 -17588746.39746  21820756.595    21820766.194
       231.000         187.000
  23497901.305   -11977931.13849  -8978074.74846  23497901.791    23497915.130
       219.000         163.000
  20630496.447   -26916586.92149 -20949358.03348  20630496.145    20630504.533
       242.000         213.000
  21584854.419   -18600380.19049 -14437081.23947  21584853.957    21584862.570
       238.000         197.000
  21468182.340   -18895110.50449 -14691544.97747  21468181.747    21468191.330
       238.000         202.000
  23906435.575    -7751191.07549  -5691774.07945  23906434.850    23906446.816
       218.000         160.000
  21997411.251   -15059478.54449 -11715240.58746  21997410.260    21997421.084
       231.000         187.000
  23925684.711    -6910496.51149  -4807866.85045  23925683.534    23925698.033
       217.000         154.000
  20271581.404   -28170628.76549 -20865393.68148  20271581.106    20271589.556
       243.000         214.000
  24504477.153    -7559497.67249  -5876539.50345  24504475.984    24504493.110
       207.000         147.000
 02  2 11  1 56  0.0000000  0 10G26G30G23G18G17G10G15G22G 6G21
  21813253.268   -23037109.99949 -17619471.39446  21813253.539    21813262.627
       231.000         187.000
  23516614.901   -11879590.95749  -8901446.11545  23516615.286    23516628.705
       218.000         162.000
  20635350.947   -26891076.42249 -20929479.67647  20635350.504    20635358.735
       242.000         212.000
  21571810.649   -18668925.16649 -14490492.74947  21571809.897    21571818.787
       238.000         198.000
  21462411.858   -18925434.14849 -14715173.70147  21462411.102    21462420.695
       238.000         202.000
  23925911.186    -7648846.26249  -5612024.86645  23925909.907    23925922.806
       220.000         160.000
  21988021.619   -15108820.69449 -11753688.86846  21988020.970    21988030.800
       232.000         187.000
  23919501.760    -6942987.33149  -4833184.21345  23919502.023    23919514.678
       216.000         153.000
  20273895.885   -28158465.93349 -20855916.10848  20273895.624    20273903.835
       244.000         214.000
  24487917.983    -7646514.99749  -5944344.78245  24487916.888    24487934.667
       207.000         144.000
 02  2 11  1 56 30.0000000  0 10G26G30G23G18G17G10G15G22G 6G21
  21805853.551   -23075995.26349 -17649771.48346  21805853.282    21805863.159
       231.000         187.000
  23535333.773   -11781222.87349  -8824795.73545  23535334.387    23535347.013
       217.000         160.000
  20640285.082   -26865147.06049 -20909274.92947  20640284.368    20640292.799
       241.000         212.000
  21558840.623   -18737082.30849 -14543602.03947  21558839.736    21558848.819
       238.000         198.000
  21456661.872   -18955650.21149 -14738718.59447  21456661.143    21456670.628
       238.000         202.000
  23945397.358    -7546445.56249  -5532232.11145  23945396.807    23945408.571
       217.000         159.000
  21978654.852   -15158042.80149 -11792043.60546  21978653.775    21978664.519
       232.000         187.000
  23913414.680    -6974974.98949  -4858109.49845  23913413.808    23913426.223
       216.000         153.000
  20276302.338   -28145819.79549 -20846061.93548  20276302.208    20276310.415
       243.000         214.000
  24471394.123    -7733346.73049  -6012005.44045  24471392.747    24471410.327
       207.000         143.000
 02  2 11  1 57  0.0000000  0 10G26G30G23G18G17G10G15G22G 6G21
  21798558.022   -23114333.07049 -17679644.98547  21798557.892    21798567.259
       232.000         188.000
  23554057.337   -11682829.94249  -8748125.99645  23554057.265    23554072.282
       216.000         159.000
  20645298.515   -26838800.63149 -20888745.19047  20645297.708    20645306.429
       241.000         212.000
  21545944.583   -18804850.84249 -14596408.51647  21545943.714    21545952.428
       238.000         198.000
  21450932.340   -18985758.85149 -14762179.77847  21450931.689    21450940.819
       238.000         202.000
  23964893.713    -7443991.15749  -5452397.49045  23964892.940    23964905.187
       218.000         159.000
  21969310.933   -15207144.90449 -11830304.82846  21969309.963    21969320.018
       231.000         187.000
  23907423.317    -7006458.88149  -4882642.24145  23907421.646    23907435.688
       216.000         153.000
  20278800.845   -28132689.77149 -20835830.70848  20278800.648    20278808.975
       244.000         214.000
  24454905.623    -7819992.04349  -6079520.81645  24454904.102    24454921.625
       206.000         142.000
 02  2 11  1 57 30.0000000  0 10G26G30G23G18G17G10G15G22G 6G21
  21791367.111   -23152120.93749 -17709089.95547  21791366.861    21791376.531
       231.000         188.000
  23572785.188   -11584414.78849  -8671438.95745  23572785.450    23572798.854
       214.000         157.000
  20650391.043   -26812038.68249 -20867891.67047  20650390.462    20650399.116
       241.000         212.000
  21533122.700   -18872229.60549 -14648911.28547  21533121.920    21533131.023
       238.000         198.000
  21445223.247   -19015760.13649 -14785557.31247  21445222.681    21445231.963
       239.000         203.000
  23984399.794    -7341485.23549  -5372522.72845  23984399.176    23984411.253
       215.000         157.000
  21959989.830   -15256126.86349 -11868472.43046  21959988.876    21959999.297
       232.000         187.000
  23901528.005    -7037438.27249  -4906781.88145  23901527.067    23901540.223
       216.000         153.000
  20281391.615   -28119075.11449 -20825221.84848  20281391.485    20281399.485
       244.000         214.000
  24438453.028    -7906448.84149  -6146889.29745  24438451.702    24438467.873
       209.000         142.000
 02  2 11  1 58  0.0000000  0 10G26G30G23G18G17G10G15G22G 6G21
  21784281.274   -23189356.91549 -17738104.88647  21784281.326    21784290.897
       231.000         188.000
  23591516.609   -11485980.55649  -8594737.03845  23591516.813    23591531.136
       215.000         157.000
  20655562.373   -26784863.17849 -20846715.90247  20655562.092    20655570.637
       242.000         212.000
  21520375.101   -18939217.79449 -14701109.71047  21520374.445    21520383.152
       239.000         198.000
  21439534.499   -19045654.43849 -14808851.48547  21439533.820    21439543.084
       239.000         203.000
  24003915.243    -7238930.06049  -5292609.59745  24003915.095    24003927.636
       213.000         154.000
  21950691.491   -15304989.16049 -11906546.79546  21950690.723    21950700.573
       232.000         187.000
  23895728.817    -7067912.79049  -4930528.09345  23895727.882    23895741.551
       217.000         152.000
  20284074.660   -28104975.50449 -20814235.10548  20284074.567    20284082.695
       244.000         214.000
  24422036.638    -7992716.44249  -6214110.37245  24422036.356    24422052.778
       210.000         143.000
 02  2 11  1 58 30.0000000  0 10G26G30G23G18G17G10G15G22G 6G21
  21777300.902   -23226038.72849 -17766688.00947  21777300.688    21777310.671
       231.000         188.000
  23610251.222   -11387529.96049  -8518022.37545  23610251.893    23610264.590
       214.000         155.000
  20660812.082   -26757275.98349 -20825219.33648  20660811.968    20660820.138
       243.000         213.000
  21507702.049   -19005814.47049 -14753003.06047  21507701.618    21507709.921
       239.000         199.000
  21433866.023   -19075441.89949 -14832062.40247  21433865.464    21433874.564
       238.000         202.000
  24023439.785    -7136327.97149  -5212659.93145  24023438.839    24023450.793
       210.000         152.000
  21941415.969   -15353731.95349 -11944528.03947  21941414.815    21941425.151
       232.000         188.000
  23890025.678    -7097882.14949  -4953880.67145  23890024.570    23890037.920
       215.000         153.000
  20286850.111   -28090390.23349 -20802869.92248  20286850.076    20286858.060
       244.000         214.000
  24405656.398    -8078793.75949  -6281183.17045  24405654.857    24405672.035
       211.000         144.000
 02  2 11  1 59  0.0000000  0 10G26G30G23G18G17G10G15G22G 6G21
  21770426.407   -23262164.05049 -17794837.49547  21770426.208    21770435.773
       231.000         188.000
  23628988.300   -11289065.84649  -8441297.16345  23628988.891    23629002.079
       214.000         154.000
  20666139.811   -26729278.68549 -20803403.21048  20666139.369    20666147.688
       243.000         213.000
  21495103.768   -19072018.33149 -14804590.32447  21495103.290    21495111.583
       239.000         199.000
  21428217.895   -19105122.35649 -14855189.94347  21428217.104    21428226.430
       238.000         202.000
  24042972.743    -7033681.06749  -5132675.34045  24042970.918    24042984.664
       207.000         148.000
  21932163.147   -15402355.24049 -11982416.16247  21932161.930    21932172.194
       232.000         188.000
  23884418.817    -7127345.54049  -4976838.99745  23884418.061    23884431.048
       214.000         152.000
  20289718.126   -28075318.58949 -20791125.74548  20289717.861    20289726.286
       244.000         214.000
  24389312.567    -8164679.30049  -6348106.53145  24389311.011    24389327.904
       212.000         146.000
 02  2 11  1 59 30.0000000  0 10G26G30G23G18G17G10G15G22G 6G21
  21763658.217   -23297730.73749 -17822551.68547  21763658.243    21763667.512
       232.000         189.000
  23647727.472   -11190590.99949  -8364563.58145  23647728.138    23647741.188
       213.000         153.000
  20671545.172   -26700873.22949 -20781269.03747  20671544.478    20671552.964
       242.000         212.000
  21482580.368   -19137828.62949 -14855870.91747  21482579.370    21482588.247
       238.000         199.000
  21422590.058   -19134696.25649 -14878234.45547  21422589.340    21422598.531
       238.000         202.000
  24062513.810    -6930991.61749  -5052657.58245  24062513.309    24062525.200
       208.000         146.000
  21922933.032   -15450859.23649 -12020211.33647  21922931.800    21922942.486
       232.000         188.000
  23878908.369    -7156302.57949  -4999402.75845  23878907.127    23878921.576
       215.000         151.000
  20292678.799   -28059759.99449 -20779002.12748  20292678.731    20292686.857
       244.000         214.000
  24373005.523    -8250372.11849  -6414879.73545  24373004.400    24373020.397
       213.000         148.000
 02  2 11  2  0  0.0000000  0 10G26G30G23G18G17G10G15G22G 6G21
  21756996.717   -23332736.72249 -17849828.96047  21756996.585    21757005.662
       231.000         189.000
  23666468.121   -11092108.45549  -8287824.00845  23666468.105    23666482.116
       212.000         153.000
  20677027.764   -26672061.39949 -20758818.20747  20677026.902    20677035.340
       241.000         212.000
  21470131.986   -19203244.37049 -14906844.06847  21470130.998    21470140.104
       238.000         199.000
  21416982.545   -19164163.71449 -14901196.02747  21416981.992    21416991.019
       239.000         202.000
  24082062.673    -6828261.51349  -4972608.16445  24082062.715    24082074.334
       209.000         146.000
  21913725.578   -15499244.02149 -12057913.61147  21913724.514    21913735.077
       232.000         188.000
  23873494.288    -7184752.91549  -5021571.70045  23873493.324    23873506.794
       214.000         150.000
  20295732.228   -28043713.98649 -20766498.71248  20295731.997    20295740.107
       244.000         214.000
  24356735.382    -8335871.07849  -6481501.89645  24356733.764    24356750.259
       214.000         149.000
 02  2 11  2  0 30.0000000  0 10G26G30G23G18G17G10G15G22G 6G21
  21750442.260   -23367180.16049 -17876667.89147  21750442.372    21750451.001
       232.000         189.000
  23685209.719   -10993621.16849  -8211080.74145  23685209.930    23685223.107
       212.000         153.000
  20682587.255   -26642845.45649 -20736052.48647  20682586.733    20682595.269
       242.000         211.000
  21457758.874   -19268265.01749 -14957509.35247  21457758.293    21457766.970
       239.000         200.000
  21411395.227   -19193525.14049 -14924074.97247  21411394.520    21411403.945
       239.000         203.000
  24101618.779    -6725493.66449  -4892529.30845  24101618.297    24101630.143
       210.000         145.000
  21904540.716   -15547510.24649 -12095523.51547  21904539.743    21904550.182
       233.000         189.000
  23868176.720    -7212696.34549  -5043345.65645  23868174.826    23868189.156
       213.000         149.000
  20298878.457   -28027180.23849 -20753615.23748  20298878.349    20298886.332
       244.000         214.000
  24340502.354    -8421175.18649  -6547972.24045  24340501.172    24340517.053
       211.000         148.000
 02  2 11  2  1  0.0000000  0 10G26G30G23G18G17G10G15G22G 6G21
  21743995.281   -23401058.71749 -17903066.66247  21743995.065    21744004.337
       232.000         190.000
  23703951.666   -10895131.68249  -8134335.75745  23703952.085    23703966.046
       213.000         155.000
  20688223.485   -26613226.81449 -20712972.97147  20688223.071    20688231.311
       242.000         212.000
  21445461.221   -19332889.07249 -15007865.60947  21445460.657    21445468.921
       239.000         200.000
  21405828.155   -19222780.15549 -14946871.00547  21405827.374    21405836.752
       239.000         203.000
  24121181.771    -6622689.78049  -4812422.38045  24121181.553    24121193.336
       210.000         145.000
  21895378.518   -15595657.60249 -12133040.79647  21895377.695    21895387.534
       234.000         189.000
  23862955.732    -7240132.30249  -5064724.13745  23862955.080    23862967.854
       213.000         150.000
  20302117.680   -28010157.85849 -20740351.01248  20302117.576    20302125.648
       244.000         214.000
  24324306.656    -8506282.85549  -6614289.53345  24324305.963    24324321.733
       207.000         145.000
 02  2 11  2  1 30.0000000  0 10G26G30G23G18G17G10G15G22G 6G21
  21737656.256   -23434370.04249 -17929023.43247  21737656.284    21737664.957
       232.000         190.000
  23722693.533   -10796642.81449  -8057591.26545  23722693.851    23722707.412
       215.000         158.000
  20693936.038   -26583207.12949 -20689580.96047  20693935.646    20693943.962
       242.000         212.000
  21433239.177   -19397115.77649 -15057912.24447  21433238.628    21433246.934
       239.000         200.000
  21400281.278   -19251928.94749 -14969584.26547  21400280.494    21400289.626
       239.000         203.000
  24140751.228    -6519851.86349  -4732288.93645  24140750.446    24140763.287
       210.000         144.000
  21886238.907   -15643686.07949 -12170465.44247  21886237.683    21886247.769
       234.000         189.000
  23857831.488    -7267060.18649  -5085706.73645  23857829.588    23857843.922
       213.000         150.000
  20305450.020   -27992646.10549 -20726705.45648  20305449.800    20305457.943
       243.000         214.000
  24308148.434    -8591192.77249  -6680452.73445  24308146.910    24308163.734
       207.000         142.000
 02  2 11  2  2  0.0000000  0 10G26G30G23G18G17G10G15G22G 6G21
  21731425.514   -23467112.30549 -17954536.78547  21731425.307    21731434.806
       232.000         190.000
  23741434.788   -10698157.41949  -7980849.46845  23741435.196    23741448.665
       214.000         159.000
  20699724.575   -26552788.23749 -20665877.87947  20699724.129    20699732.419
       243.000         212.000
  21421092.937   -19460944.05049 -15107648.41647  21421092.146    21421100.486
       239.000         200.000
  21394754.570   -19280971.59049 -14992214.82147  21394753.760    21394763.270
       239.000         203.000
  24160326.803    -6416982.11049  -4652130.66345  24160325.814    24160337.941
       207.000         143.000
  21877121.863   -15691595.86749 -12207797.60047  21877120.724    21877130.955
       233.000         190.000
  23852803.838    -7293479.49349  -5106293.04445  23852802.548    23852816.717
       213.000         149.000
  20308875.604   -27974644.45149 -20712678.16048  20308875.378    20308883.609
       243.000         214.000
  24292027.973    -8675904.07349  -6746461.16745  24292025.001    24292042.899
       205.000         140.000
 02  2 11  2  2 30.0000000  0 10G26G30G23G18G17G10G15G22G 6G21
  21725303.492   -23499283.08449 -17979604.82047  21725303.605    21725312.606
       233.000         190.000
  23760174.903   -10599677.79749  -7904112.18745  23760175.313    23760188.490
       214.000         159.000
  20705588.659   -26521971.96849 -20641865.15247  20705588.220    20705596.443
       241.000         212.000
  21409022.693   -19524372.95049 -15157073.38747  21409022.142    21409030.495
       239.000         200.000
  21389248.082   -19309907.94849 -15014762.55747  21389247.442    21389256.506
       238.000         203.000
  24179907.969    -6314082.22149  -4571948.93245  24179907.928    24179917.719
       207.000         140.000
  21868027.452   -15739386.64549 -12245037.02847  21868026.610    21868036.834
       233.000         190.000
  23847873.100    -7319389.94349  -5126482.85745  23847873.061    23847885.890
       212.000         148.000
  20312394.506   -27956152.39449 -20698268.73148  20312394.552    20312402.504
       244.000         214.000
  24275945.736    -8760415.33749  -6812313.75045  24275944.373    24275960.610
       208.000         139.000
 02  2 11  2  3  0.0000000  0 10G26G30G23G18G17G10G15G22G 6G21
  21719290.660   -23530880.64249 -18004226.19747  21719290.758    21719299.947
       233.000         190.000
  23778913.364   -10501207.06549  -7827381.81845  23778914.110    23778927.557
       214.000         159.000
  20711527.947   -26490760.38649 -20617544.38947  20711527.408    20711535.843
       241.000         212.000
  21397028.610   -19587401.70249 -15206186.55547  21397027.896    21397036.113
       239.000         200.000
  21383761.735   -19338738.32649 -15037227.71747  21383761.030    21383770.091
       237.000         203.000
  24199494.337    -6211154.65549  -4491745.62845  24199493.579    24199504.591
       210.000         139.000
  21858955.613   -15787058.85649 -12282184.06947  21858954.711    21858964.587
       233.000         190.000
  23843039.280    -7344791.34749  -5146276.00145  23843038.338    23843050.899
       210.000         146.000
  20316006.781   -27937169.71949 -20683477.00448  20316006.631    20316014.832
       244.000         214.000
  24259901.778    -8844725.78149  -6878009.85445  24259900.830    24259916.379
       208.000         140.000
 02  2 11  2  3 30.0000000  0 10G26G30G23G18G17G10G15G22G 6G21
  21713387.189   -23561903.25649 -18028399.55447  21713387.335    21713396.349
       233.000         190.000
  23797649.512   -10402748.41849  -7750660.86245  23797650.509    23797662.859
       216.000         158.000
  20717542.057   -26459155.64449 -20592917.27047  20717541.454    20717550.058
       242.000         212.000
  21385110.764   -19650029.64849 -15254987.40247  21385110.006    21385118.571
       239.000         201.000
  21378295.487   -19367463.09649 -15059610.58047  21378295.034    21378303.869
       238.000         203.000
  24219085.688    -6108201.62649  -4411522.45545  24219083.877    24219095.935
       211.000         139.000
  21849906.291   -15834612.83349 -12319238.97847  21849905.295    21849915.127
       233.000         190.000
  23838302.179    -7369683.67649  -5165672.45045  23838300.598    23838315.615
       211.000         146.000
  20319712.444   -27917696.15549 -20668302.76448  20319712.306    20319720.369
       244.000         214.000
  24243896.308    -8928833.97849  -6943548.35645  24243895.301    24243910.648
       209.000         140.000
 02  2 11  2  4  0.0000000  0 10G26G30G23G18G17G10G15G22G 6G21
  21707593.528   -23592348.77649 -18052123.23947  21707593.965    21707602.733
       233.000         190.000
  23816382.920   -10304304.35049  -7673951.25545  23816383.641    23816396.376
       217.000         158.000
  20723630.708   -26427159.36949 -20567985.06347  20723630.299    20723638.592
       242.000         212.000
  21373269.435   -19712255.82349 -15303475.19347  21373268.774    21373276.952
       239.000         201.000
  21372849.414   -19396082.08449 -15081911.02047  21372849.035    21372857.796
       239.000         203.000
  24238681.431    -6005225.09449  -4331280.96445  24238681.730    24238692.527
       213.000         140.000
  21840879.508   -15882048.37049 -12356201.60647  21840878.245    21840888.880
       233.000         190.000
  23833662.285    -7394066.46449  -5184671.88445  23833662.809    23833674.923
       211.000         145.000
  20323511.642   -27897731.04449 -20652745.50048  20323511.576    20323519.672
       243.000         214.000
  24227929.398    -9012739.08849  -7008928.61645  24227927.785    24227944.154
       209.000         142.000
 02  2 11  2  4 30.0000000  0 10G26G30G23G18G17G10G15G22G 6G21
  21701909.945   -23622215.95049 -18075396.26347  21701909.661    21701918.919
       234.000         190.000
  23835112.859   -10205878.14349  -7597255.56245  23835113.714    23835126.098
       217.000         157.000
  20729793.408   -26394774.08949 -20542749.73747  20729792.983    20729801.132
       242.000         212.000
  21361504.549   -19774080.01949 -15351649.74547  21361503.809    21361512.195
       239.000         201.000
  21367423.404   -19424595.89549 -15104129.49847  21367422.911    21367432.125
       239.000         203.000
  24258281.292    -5902227.80649  -4251023.30345  24258280.332    24258293.559
       214.000         143.000
  21831875.107   -15929366.28249 -12393072.58047  21831874.218    21831884.027
       234.000         190.000
  23829119.220    -7417939.92149  -5203274.41545  23829118.255    23829131.302
       211.000         144.000
  20327404.336   -27877274.53149 -20636805.32748  20327404.141    20327412.229
       243.000         213.000
  24212001.245    -9096440.40749  -7074150.10445  24211999.871    24212015.584
       210.000         144.000
 02  2 11  2  5  0.0000000  0 10G26G30G23G18G17G10G15G22G 6G21
  21696336.968   -23651502.07249 -18098216.52347  21696336.759    21696345.654
       234.000         190.000
  23853839.024   -10107471.81349  -7520575.35345  23853839.531    23853852.710
       217.000         158.000
  20736029.927   -26362000.89749 -20517212.14247  20736029.416    20736037.827
       243.000         212.000
  21349816.455   -19835500.65249 -15399509.83647  21349815.950    21349824.323
       239.000         201.000
  21362017.543   -19453003.91249 -15126265.54047  21362017.173    21362026.014
       240.000         204.000
  24277884.790    -5799211.07149  -4170750.51145  24277884.660    24277895.511
       215.000         145.000
  21822893.270   -15976565.80049 -12429851.29547  21822892.586    21822902.050
       233.000         190.000
  23824673.179    -7441303.20849  -5221479.40945  23824671.823    23824684.645
       210.000         144.000
  20331390.737   -27856325.64949 -20620481.49048  20331390.601    20331398.755
       243.000         213.000
  24196112.267    -9179935.94549  -7139211.22645  24196111.441    24196126.003
       211.000         146.000
 02  2 11  2  5 30.0000000  0 10G26G30G23G18G17G10G15G22G 6G21
  21690874.834   -23680205.26249 -18120582.55547  21690874.900    21690883.482
       233.000         191.000
  23872560.784   -10009088.32649  -7443912.93445  23872561.570    23872574.725
       214.000         158.000
  20742339.855   -26328841.79649 -20491373.83847  20742339.267    20742347.721
       242.000         212.000
  21338205.354   -19896516.97449 -15447054.88647  21338204.748    21338212.937
       240.000         202.000
  21356631.756   -19481306.27849 -15148319.25647  21356631.342    21356640.224
       239.000         204.000
  24297491.562    -5696177.14549  -4090464.30845  24297490.547    24297503.448
       214.000         147.000
  21813933.901   -16023647.08249 -12466537.88347  21813933.078    21813942.540
       234.000         191.000
  23820324.255    -7464156.10349  -5239286.69945  23820322.314    23820336.306
       207.000         143.000
  20335470.930   -27834883.99649 -20603773.67848  20335470.777    20335478.752
       243.000         213.000
  24180262.745    -9263224.97449  -7204111.42645  24180261.563    24180277.223
       212.000         147.000
 02  2 11  2  6  0.0000000  0 10G26G30G23G18G17G10G15G22G 6G21
  21685524.080   -23708323.35249 -18142492.66047  21685524.234    21685532.913
       233.000         191.000
  23891277.708    -9910729.95349  -7367270.11045  23891278.782    23891291.247
       214.000         156.000
  20748722.905   -26295298.36849 -20465236.06047  20748722.448    20748730.908
       242.000         212.000
  21326671.377   -19957127.77549 -15494283.94747  21326671.043    21326679.044
       240.000         202.000
  21351266.151   -19509502.62949 -15170290.36547  21351265.566    21351274.369
       238.000         204.000
  24317101.198    -5593127.26649  -4010165.69945  24317099.792    24317112.712
       216.000         150.000
  21804997.115   -16070609.68349 -12503131.98747  21804996.115    21805006.143
       233.000         191.000
  23816072.543    -7486498.07849  -5256695.87745  23816071.437    23816084.457
       209.000         143.000
  20339645.005   -27812948.89849 -20586681.36448  20339644.907    20339653.006
       243.000         213.000
  24164452.666    -9346306.06649  -7268849.58445  24164451.408    24164466.826
       212.000         148.000
 02  2 11  2  6 30.0000000  0 10G26G30G23G18G17G10G15G22G 6G21
  21680284.950   -23735854.83049 -18163945.65447  21680284.821    21680293.517
       232.000         191.000
  23909989.279    -9812399.63249  -7290649.14845  23909989.369    23910003.197
       210.000         155.000
  20755178.703   -26261372.83749 -20438800.54047  20755177.999    20755186.741
       241.000         212.000
  21315214.693   -20017332.75449 -15541196.78047  21315214.354    21315222.305
       241.000         202.000
  21345920.566   -19537593.33849 -15192179.15247  21345919.967    21345928.952
       239.000         204.000
  24336713.506    -5490064.10749  -3929856.71745  24336712.245    24336725.412
       215.000         152.000
  21796082.743   -16117454.19149 -12539634.07347  21796081.757    21796091.547
       234.000         191.000
  23811918.088    -7508329.27749  -5273707.06445  23811917.153    23811930.465
       206.000         143.000
  20343912.969   -27790520.40849 -20569204.58748  20343912.842    20343920.871
       243.000         213.000
  24148682.318    -9429178.20849  -7333424.93645  24148680.856    24148697.734
       213.000         149.000
 02  2 11  2  7  0.0000000  0 10G26G30G23G18G17G10G15G22G 6G21
  21675157.730   -23762797.91749 -18184940.16847  21675157.830    21675166.687
       233.000         191.000
  23928695.075    -9714100.25049  -7214052.31445  23928695.819    23928709.374
       208.000         153.000
  20761706.787   -26227067.16449 -20412068.80247  20761706.400    20761714.760
       242.000         212.000
  21303835.356   -20077130.95949 -15587792.65047  21303834.922    21303842.720
       241.000         203.000
  21340595.125   -19565578.32149 -15213985.56247  21340594.484    21340603.548
       238.000         203.000
  24356327.974    -5386989.71749  -3849539.00945  24356327.126    24356339.369
       215.000         155.000
  21787190.887   -16164180.74349 -12576044.25147  21787190.122    21787200.231
       234.000         192.000
  23807860.763    -7529649.58449  -5290320.14345  23807859.522    23807872.609
       209.000         143.000
  20348274.893   -27767598.17049 -20551343.07348  20348274.822    20348282.826
       243.000         213.000
  24132951.935    -9511840.64149  -7397836.86245  24132950.326    24132966.327
       212.000         150.000
 02  2 11  2  7 30.0000000  0 10G26G30G23G18G17G10G15G22G 6G21
  21670142.776   -23789151.12949 -18205475.03847  21670142.872    21670151.406
       233.000         191.000
  23947394.355    -9615834.93649  -7137482.02645  23947394.953    23947408.635
       208.000         152.000
  20768306.815   -26192383.59049 -20385042.59947  20768306.301    20768314.602
       242.000         212.000
  21292533.437   -20136522.30549 -15634071.48647  21292532.776    21292540.969
       240.000         202.000
  21335289.675   -19593457.99649 -15235709.90947  21335288.877    21335297.932
       239.000         203.000
  24375944.161    -5283906.28149  -3769214.24045  24375943.296    24375956.091
       214.000         156.000
  21778321.415   -16210789.70349 -12612362.80447  21778320.522    21778330.375
       234.000         192.000
  23803900.806    -7550459.21549  -5306535.29345  23803899.293    23803911.478
       207.000         143.000
  20352730.788   -27744182.18849 -20533096.82348  20352730.728    20352738.807
       243.000         213.000
  24117261.611    -9594292.42249  -7462084.65145  24117260.658    24117275.635
       214.000         151.000
 02  2 11  2  8  0.0000000  0 10G26G30G23G18G17G10G15G22G 6G21
  21665240.461   -23814912.59549 -18225548.82247  21665240.336    21665249.473
       233.000         191.000
  23966086.747    -9517605.98149  -7060940.06945  23966087.313    23966101.515
       211.000         153.000
  20774978.412   -26157323.91449 -20357723.33247  20774978.062    20774986.195
       242.000         211.000
  21281309.142   -20195505.65349 -15680032.40747  21281308.487    21281316.328
       241.000         202.000
  21330004.365   -19621232.28049 -15257352.13747  21330003.836    21330012.647
       240.000         203.000
  24395561.641    -5180815.63549  -3688883.87045  24395560.695    24395573.798
       213.000         156.000
  21769474.359   -16257280.76549 -12648589.49647  21769473.617    21769483.332
       234.000         192.000
  23800038.014    -7570757.82549  -5322352.27545  23800037.517    23800050.557
       208.000         143.000
  20357280.741   -27720271.89149 -20514465.39648  20357280.648    20357288.720
       243.000         213.000
  24101611.635    -9676532.25049  -7526167.28145  24101609.903    24101625.432
       215.000         153.000
 02  2 11  2  8 30.0000000  0 10G26G30G23G18G17G10G15G22G 6G21
  21660451.091   -23840080.39849 -18245159.99747  21660450.672    21660459.805
       233.000         191.000
  23984771.696    -9419416.29449  -6984428.69245  23984772.837    23984786.413
       212.000         153.000
  20781721.248   -26121890.03649 -20330112.47747  20781720.754    20781729.054
       242.000         211.000
  21270162.767   -20254080.05849 -15725674.66547  21270162.143    21270170.064
       241.000         202.000
  21324739.128   -19648901.05049 -15278912.14647  21324738.581    21324747.322
       240.000         204.000
  24415180.092    -5077719.71149  -3608549.39345  24415179.653    24415191.055
       211.000         155.000
  21760649.768   -16303653.90849 -12684724.30047  21760649.016    21760658.351
       234.000         192.000
  23796272.442    -7590545.44649  -5337771.06545  23796271.284    23796284.112
       207.000         143.000
  20361924.831   -27695867.07349 -20495448.62448  20361924.643    20361932.755
       244.000         213.000
  24086002.182    -9758559.27349  -7590084.09445  24086001.028    24086015.916
       216.000         154.000
 02  2 11  2  9  0.0000000  0 10G26G30G23G18G17G10G15G22G 6G21
  21655774.981   -23864652.92849 -18264307.33547  21655775.019    21655783.755
       233.000         191.000
  24003448.685    -9321268.34149  -6907949.83345  24003448.918    24003463.362
       212.000         152.000
  20788534.944   -26086083.80249 -20302211.47747  20788534.527    20788542.482
       242.000         211.000
  21259094.215   -20312245.02849 -15770997.88647  21259093.266    21259101.693
       240.000         203.000
  21319493.950   -19676464.25849 -15300389.89747  21319493.502    21319502.282
       239.000         204.000
  24434799.188    -4974620.36949  -3528212.22845  24434798.131    24434810.700
       208.000         152.000
  21751847.632   -16349909.07349 -12720767.17347  21751846.480    21751856.404
       234.000         192.000
  23792604.036    -7609821.81349  -5352791.45445  23792603.593    23792616.148
       208.000         143.000
  20366663.077   -27670967.34049 -20476046.20748  20366662.983    20366670.968
       243.000         213.000
  24070433.390    -9840372.17949  -7653834.05545  24070432.087    24070447.291
       216.000         154.000
 02  2 11  2  9 30.0000000  0 10G26G30G23G18G17G10G15G22G 6G21
  21651212.567   -23888628.30749 -18282989.34547  21651212.358    21651221.554
       233.000         191.000
  24022117.287    -9223164.64349  -6831505.44745  24022118.164    24022131.567
       213.000         151.000
  20795419.098   -26049907.00249 -20274021.72247  20795418.391    20795426.713
       242.000         211.000
  21248103.709   -20369999.62549 -15816001.33647  21248103.024    21248111.127
       241.000         203.000
  21314268.957   -19703921.65949 -15321785.20247  21314268.479    21314277.139
       241.000         204.000
  24454418.544    -4871519.78149  -3447874.11145  24454417.539    24454430.929
       207.000         151.000
  21743067.913   -16396046.20349 -12756718.07447  21743067.268    21743076.769
       234.000         192.000
  23789033.015    -7628586.64749  -5367413.26145  23789031.746    23789045.314
       205.000         143.000
  20371495.577   -27645572.35349 -20456257.87948  20371495.517    20371503.594
       244.000         213.000
  24054905.555    -9921969.67849  -7717416.17345  24054904.126    24054918.766
       212.000         153.000
 02  2 11  2 10  0.0000000  0 10G26G30G23G18G17G10G15G22G 6G21
  21646763.979   -23912005.51549 -18301205.25747  21646763.887    21646772.853
       233.000         191.000
  24040776.813    -9125108.63849  -6755098.22345  24040776.976    24040791.340
       210.000         150.000
  20802373.279   -26013362.29349 -20245545.28247  20802372.617    20802381.128
       241.000         211.000
  21237191.421   -20427343.76449 -15860684.95347  21237190.849    21237198.954
       242.000         204.000
  21309063.947   -19731273.95749 -15343098.60547  21309063.512    21309072.291
       240.000         204.000
  24474037.605    -4768420.40549  -3367536.93945  24474036.707    24474048.814
       201.000         148.000
  21734310.573   -16442066.04849 -12792577.58747  21734309.461    21734318.976
       234.000         192.000
  23785559.265    -7646840.75349  -5381637.09645  23785558.560    23785571.273
       207.000         143.000
  20376422.249   -27619682.64249 -20436084.05448  20376422.186    20376429.970
       243.000         213.000
  24039418.786   -10003351.47849  -7780830.21345  24039417.478    24039433.223
       212.000         152.000
 02  2 11  2 10 30.0000000  0 10G26G30G23G18G17G10G15G22G 6G21
  21642429.644   -23934782.19349 -18318953.22747  21642429.668    21642438.238
       233.000         191.000
  24059426.839    -9027102.16849  -6678729.60345  24059427.575    24059441.544
       209.000         149.000
  20809397.195   -25976450.99749 -20216783.18647  20809396.724    20809404.983
       242.000         211.000
  21226357.499   -20484276.19649 -15905047.76047  21226356.919    21226364.716
       242.000         204.000
  21303879.116   -19758520.32749 -15364329.46847  21303878.572    21303887.318
       241.000         204.000
  24493656.058    -4665323.28149  -3287201.52745  24493655.425    24493667.494
       199.000         142.000
  21725575.641   -16487967.85449 -12828345.11247  21725574.887    21725584.093
       234.000         192.000
  23782182.783    -7664583.29749  -5395462.30245  23782181.638    23782196.069
       208.000         144.000
  20381443.192   -27593297.22749 -20415523.96348  20381442.961    20381451.116
       243.000         213.000
  24023973.455   -10084515.75049  -7844074.73445  24023972.290    24023986.991
       213.000         151.000
 02  2 11  2 11  0.0000000  0 10G26G30G23G18G17G10G15G22G 6G21
  21638209.836   -23956957.03849 -18336232.23047  21638209.879    21638218.401
       233.000         191.000
  24078066.876    -8929148.21049  -6602401.93445  24078067.351    24078081.390
       209.000         148.000
  20816490.472   -25939175.38049 -20187737.20847  20816490.084    20816498.467
       242.000         211.000
  21215601.927   -20540796.50249 -15949089.42747  21215601.205    21215609.079
       242.000         204.000
  21298714.377   -19785661.03749 -15385478.00347  21298713.867    21298722.614
       241.000         205.000
  24513273.830    -4562230.37549  -3206869.42845  24513272.704    24513288.085
       197.000         138.000
  21716863.151   -16533751.77749 -12864020.78247  21716862.409    21716871.796
       234.000         192.000
  23778903.703    -7681814.61149  -5408889.15645  23778902.778    23778916.157
       208.000         144.000
  20386558.458   -27566416.20549 -20394577.69048  20386558.439    20386566.212
       243.000         213.000
  24008569.722   -10165461.71949  -7907149.17045  24008568.594    24008582.967
       212.000         151.000
 02  2 11  2 11 30.0000000  0 10G26G30G23G18G17G10G15G22G 6G21
  21634104.753   -23978528.95249 -18353041.41447  21634104.731    21634113.654
       233.000         191.000
  24096696.312    -8831249.78649  -6526117.51145  24096696.904    24096711.131
       210.000         145.000
  20823652.662   -25901537.80249 -20158409.18447  20823652.276    20823660.409
       242.000         211.000
  21204924.841   -20596904.33049 -15992809.69147  21204924.306    21204931.741
       242.000         204.000
  21293569.674   -19812696.43549 -15406544.47547  21293569.219    21293578.068
       240.000         205.000
  24532890.603    -4459144.36449  -3126542.70545  24532890.194    24532903.521
       201.000         139.000
  21708172.995   -16579418.20349 -12899604.90247  21708172.325    21708181.785
       234.000         192.000
  23775721.741    -7698535.12949  -5421917.97345  23775720.421    23775733.807
       209.000         145.000
  20391767.985   -27539039.91649 -20373245.49548  20391767.843    20391775.637
       243.000         213.000
  23993207.547   -10246188.99949  -7970053.19345  23993206.869    23993220.468
       215.000         152.000
 02  2 11  2 12  0.0000000  0 10G26G30G23G18G17G10G15G22G 6G21
  21630114.709   -23999496.49749 -18369379.67447  21630114.673    21630123.527
       233.000         191.000
  24115314.704    -8733409.73449  -6449878.61045  24115314.645    24115328.353
       209.000         143.000
  20830883.386   -25863540.25549 -20128800.66447  20830883.150    20830890.963
       242.000         211.000
  21194326.379   -20652599.34649 -16036208.27347  21194325.714    21194333.571
       241.000         204.000
  21288444.920   -19839626.65249 -15427528.98747  21288444.057    21288453.046
       240.000         204.000
  24552505.568    -4356067.08749  -3046222.77845  24552505.914    24552518.432
       201.000         139.000
  21699505.299   -16624967.02849 -12935097.38747  21699504.336    21699514.155
       234.000         193.000
  23772637.071    -7714745.01149  -5434548.90545  23772636.067    23772648.974
       208.000         145.000
  20397071.713   -27511168.18949 -20351527.24147  20397071.561    20397079.584
       243.000         212.000
  23977887.267   -10326696.75749  -8032786.17645  23977886.605    23977900.004
       216.000         152.000
 02  2 11  2 12 30.0000000  0 10G26G30G23G18G17G10G15G22G 6G21
  21626240.001   -24019857.80049 -18385245.53847  21626240.036    21626248.885
       233.000         191.000
  24133921.648    -8635630.41449  -6373687.00245  24133922.493    24133936.105
       211.000         143.000
  20838182.219   -25825184.54749 -20098913.05947  20838181.717    20838189.832
       242.000         211.000
  21183806.601   -20707880.62649 -16079284.46947  21183805.966    21183813.735
       241.000         204.000
  21283340.234   -19866451.42849 -15448431.34247  21283339.551    21283348.376
       239.000         204.000
  24572118.610    -4253000.44849  -2965911.11045  24572117.587    24572129.469
       203.000         140.000
  21690859.909   -16670398.43849 -12970498.37947  21690858.921    21690868.484
       235.000         193.000
  23769649.565    -7730444.31349  -5446781.98545  23769648.095    23769661.555
       206.000         147.000
  20402469.844   -27482800.65449 -20329422.64947  20402469.894    20402477.740
       243.000         212.000
  23962608.982   -10406983.61649  -8095347.02645  23962608.401    23962621.560
       215.000         153.000
 02  2 11  2 13  0.0000000  0 10G26G30G23G18G17G10G15G22G 6G21
  21622480.898   -24039611.51849 -18400637.95447  21622480.938    21622489.445
       233.000         192.000
  24152516.474    -8537914.44649  -6297544.75545  24152516.761    24152530.161
       213.000         144.000
  20845548.729   -25786472.83149 -20068748.04447  20845548.187    20845556.175
       241.000         210.000
  21173365.630   -20762747.69449 -16122037.90647  21173365.094    21173372.756
       242.000         205.000
  21278255.610   -19893170.63749 -15469251.43547  21278254.891    21278263.673
       240.000         204.000
  24591729.187    -4149946.07549  -2885608.98845  24591728.780    24591740.210
       207.000         140.000
  21682236.950   -16715712.21149 -13005807.70447  21682236.080    21682245.685
       235.000         193.000
  23766759.066    -7745632.92649  -5458617.11645  23766757.796    23766771.610
       208.000         147.000
  20407962.310   -27453937.21549 -20306931.63747  20407962.122    20407970.280
       243.000         212.000
  23947372.823   -10487048.71749  -8157735.07145  23947371.959    23947385.466
       215.000         152.000
 02  2 11  2 13 30.0000000  0 10G26G30G23G18G17G10G15G22G 6G21
  21618837.793   -24058755.96049 -18415555.60047  21618837.830    21618846.012
       233.000         191.000
  24171098.814    -8440264.31549  -6221453.80645  24171099.726    24171112.739
       212.000         145.000
  20852982.648   -25747406.76149 -20038306.90847  20852982.141    20852990.354
       241.000         210.000
  21163003.713   -20817199.55849 -16164467.80747  21163003.308    21163010.789
       242.000         205.000
  21273191.224   -19919783.83549 -15489988.92447  21273190.707    21273199.408
       240.000         204.000
  24611337.024    -4046905.78949  -2805317.84545  24611336.886    24611348.298
       208.000         139.000
  21673636.365   -16760908.11849 -13041025.18247  21673635.724    21673645.053
       235.000         193.000
  23763965.894    -7760310.95349  -5470054.40845  23763964.989    23763977.666
       209.000         147.000
  20413549.211   -27424577.65349 -20284054.03647  20413549.204    20413557.199
       243.000         212.000
  23932179.051   -10566890.95349  -8219949.44345  23932177.248    23932191.034
       213.000         151.000
 02  2 11  2 14  0.0000000  0 10G26G30G23G18G17G10G15G22G 6G21
  21615310.829   -24077289.59849 -18429997.30747  21615310.652    21615319.199
       233.000         191.000
  24189668.019    -8342682.56249  -6145416.13845  24189668.031    24189682.816
       214.000         144.000
  20860483.706   -25707988.35549 -20007591.23047  20860483.278    20860491.359
       242.000         210.000
  21152720.949   -20871235.60449 -16206573.70147  21152720.426    21152728.049
       242.000         206.000
  21268147.001   -19946291.25749 -15510643.98747  21268146.459    21268155.113
       240.000         205.000
  24630941.867    -3943881.45849  -2725039.15945  24630941.544    24630953.669
       211.000         140.000
  21665058.202   -16805986.09549 -13076150.76747  21665057.373    21665066.679
       235.000         193.000
  23761269.818    -7774478.52749  -5481093.94345  23761268.356    23761281.700
       208.000         148.000
  20419230.566   -27394721.81149 -20260789.72747  20419230.481    20419238.537
       243.000         212.000
  23917027.823   -10646509.75849  -8281989.72645  23917026.517    23917041.738
       213.000         150.000
 02  2 11  2 14 30.0000000  0 10G26G30G23G18G17G10G15G22G 6G21
  21611900.358   -24095211.18649 -18443962.09547  21611900.273    21611908.971
       234.000         191.000
  24208223.834    -8245171.91949  -6069433.89245  24208224.165    24208238.119
       213.000         144.000
  20868051.424   -25668219.61949 -19976602.56547  20868050.879    20868059.237
       242.000         210.000
  21142517.248   -20924855.80249 -16248355.55947  21142516.720    21142524.163
       242.000         206.000
  21263123.002   -19972692.48249 -15531216.29747  21263122.417    21263131.479
       240.000         205.000
  24650543.483    -3840874.79149  -2644774.19845  24650544.223    24650555.868
       212.000         138.000
  21656502.558   -16850946.07849 -13111184.41147  21656502.076    21656510.912
       236.000         193.000
  23758670.871    -7788135.71749  -5491735.77345  23758670.175    23758682.515
       210.000         149.000
  20425006.349   -27364369.74249 -20237138.75047  20425006.432    20425014.289
       243.000         212.000
  23901919.336   -10725903.76749  -8343854.83145  23901918.176    23901933.129
       213.000         150.000
 02  2 11  2 15  0.0000000  0 10G26G30G23G18G17G10G15G22G 6G21
  21608606.655   -24112519.47749 -18457448.99047  21608606.573    21608615.356
       234.000         192.000
  24226765.515    -8147734.93249  -5993509.03445  24226765.699    24226778.500
       210.000         144.000
  20875685.391   -25628102.88549 -19945342.73447  20875685.064    20875693.147
       241.000         210.000
  21132392.802   -20978059.68749 -16289813.01647  21132392.219    21132399.761
       241.000         206.000
  21258119.146   -19998987.77449 -15551706.05747  21258118.371    21258127.126
       240.000         205.000
  24670141.320    -3737887.84949  -2564524.58945  24670141.177    24670152.143
       213.000         134.000
  21647969.295   -16895788.35149 -13146126.33647  21647968.813    21647977.518
       235.000         193.000
  23756168.895    -7801282.99849  -5501980.26445  23756167.507    23756181.480
       209.000         150.000
  20430876.540   -27333521.66349 -20213101.26547  20430876.459    20430884.560
       242.000         212.000
  23886853.869   -10805072.02849  -8405544.03745  23886853.006    23886866.444
       213.000         151.000
 02  2 11  2 15 30.0000000  0 10G26G30G23G18G17G10G15G22G 6G21
  21605429.947   -24129212.94149 -18470456.79847  21605429.822    21605438.295
       233.000         192.000
  24245292.620    -8050374.20749  -5917643.61745  24245293.622    24245306.758
       211.000         144.000
  20883385.199   -25587639.96449 -19913813.15147  20883384.873    20883392.925
       241.000         210.000
  21122347.774   -21030846.33149 -16330945.34847  21122346.983    21122354.700
       240.000         206.000
  21253135.517   -20025176.72049 -15572112.95447  21253135.101    21253143.513
       241.000         205.000
  24689735.002    -3634922.19849  -2484291.59145  24689734.113    24689746.331
       210.000         133.000
  21639458.439   -16940512.54549 -13180976.25747  21639457.735    21639466.702
       235.000         194.000
  23753763.915    -7813920.37049  -5511827.43045  23753762.602    23753775.550
       211.000         150.000
  20436841.164   -27302177.41049 -20188677.15147  20436841.039    20436849.073
       242.000         212.000
  23871831.554   -10884013.80349  -8467056.76045  23871830.705    23871844.327
       214.000         153.000
 02  2 11  2 16  0.0000000  0 10G26G30G23G18G17G10G15G22G 6G21
  21602370.449   -24145290.44849 -18482984.63347  21602370.290    21602379.270
       233.000         192.000
  24263804.796    -7953092.49849  -5841839.76945  24263805.267    24263818.715
       213.000         146.000
  20891150.473   -25546832.95149 -19882015.44647  20891149.978    20891158.245
       241.000         210.000
  21112382.121   -21083215.38749 -16371752.28947  21112381.283    21112389.107
       240.000         205.000
  21248172.039   -20051259.65049 -15592437.25047  21248171.617    21248179.799
       240.000         205.000
  24709324.166    -3531980.04549  -2404076.89345  24709322.732    24709334.197
       215.000         133.000
  21630970.062   -16985118.85049 -13215734.30847  21630968.992    21630978.618
       235.000         194.000
  23751455.928    -7826048.33549  -5521277.66945  23751455.639    23751467.568
       211.000         151.000
  20442900.126   -27270337.22149 -20163866.59847  20442900.025    20442908.018
       243.000         211.000
  23856852.471   -10962728.20949  -8528392.32345  23856851.276    23856865.020
       216.000         155.000
 02  2 11  2 16 30.0000000  0 10G26G30G23G18G17G10G15G22G 6G21
  21599428.397   -24160750.74849 -18495031.54247  21599428.697    21599436.798
       234.000         192.000
  24282301.388    -7855892.46549  -5766099.56845  24282302.462    24282315.825
       212.000         147.000
  20898980.783   -25505684.01349 -19849951.30547  20898980.347    20898988.598
       241.000         210.000
  21102496.021   -21135166.39849 -16412233.48247  21102495.446    21102502.955
       240.000         205.000
  21243228.813   -20077236.24749 -15612678.68647  21243228.309    21243236.624
       241.000         205.000
  24728908.596    -3429063.12949  -2323881.82445  24728908.683    24728921.075
       213.000         133.000
  21622504.090   -17029607.23149 -13250400.47847  21622503.512    21622512.591
       235.000         194.000
  23749244.830    -7837667.31049  -5530331.26645  23749244.520    23749256.182
       211.000         152.000
  20449053.484   -27238001.09149 -20138669.59947  20449053.415    20449061.439
       242.000         211.000
  23841916.674   -11041214.48149  -8589550.12545  23841915.345    23841928.603
       217.000         156.000
 02  2 11  2 17  0.0000000  0  9G26G30G23G18G17G15G22G 6G21
  21596604.336   -24175590.99149 -18506595.28047  21596604.772    21596612.718
       233.000         192.000
  24300782.268    -7758774.82049  -5690423.55445  24300783.737    24300796.209
       214.000         148.000
  20906876.108   -25464193.60649 -19817621.08647  20906875.681    20906883.899
       241.000         209.000
  21092689.893   -21186697.45949 -16452387.44447  21092689.445    21092696.672
       242.000         206.000
  21238306.140   -20103104.68949 -15632835.84547  21238305.387    21238314.292
       239.000         205.000
  21614060.911   -17073976.03849 -13284973.46747  21614060.217    21614069.260
       235.000         195.000
  23747130.889    -7848775.69649  -5538987.02745  23747130.024    23747142.227
       212.000         152.000
  20455301.503   -27205167.46849 -20113084.93947  20455301.240    20455309.543
       242.000         211.000
  23827024.996   -11119469.76249  -8650527.92845  23827024.144    23827037.597
       217.000         157.000
 02  2 11  2 17 30.0000000  0  9G26G30G23G18G17G15G22G 6G21
  21593898.127   -24189811.98549 -18517676.48147  21593898.185    21593906.635
       234.000         192.000
  24319246.595    -7661744.23249  -5614815.38045  24319246.846    24319260.326
       214.000         149.000
  20914835.643   -25422365.72849 -19785027.90047  20914835.321    20914843.390
       241.000         210.000
  21082963.461   -21237810.10049 -16492215.36247  21082963.038    21082970.266
       242.000         207.000
  21233403.612   -20128867.00149 -15652910.30447  21233403.061    21233411.702
       239.000         204.000
  21605640.151   -17118227.21049 -13319454.79447  21605639.497    21605648.609
       236.000         195.000
  23745113.723    -7859375.82349  -5547246.72145  23745113.350    23745125.143
       212.000         152.000
  20461643.743   -27171838.48449 -20087114.28247  20461643.559    20461651.739
       242.000         211.000
  23812177.051   -11197495.25449  -8711326.69245  23812175.604    23812189.558
       217.000         156.000
 02  2 11  2 18  0.0000000  0  9G26G30G23G18G17G15G22G 6G21
  21591309.996   -24203412.14449 -18528273.92447  21591310.047    21591318.434
       234.000         192.000
  24337693.953    -7564803.11649  -5539276.93345  24337695.414    24337708.305
       213.000         150.000
  20922859.089   -25380202.26949 -19752173.22347  20922858.726    20922866.839
       241.000         210.000
  21073316.727   -21288503.64349 -16531716.71447  21073315.927    21073323.575
       241.000         207.000
  21228521.356   -20154522.86249 -15672901.82247  21228520.641    21228529.520
       239.000         204.000
  21597241.802   -17162360.40349 -13353844.19947  21597241.051    21597249.999
       236.000         195.000
  23743193.100    -7869468.09549  -5555110.68745  23743192.130    23743204.566
       211.000         152.000
  20468080.292   -27138014.15949 -20060757.64747  20468080.103    20468087.997
       242.000         211.000
  23797372.864   -11275290.42249  -8771945.96445  23797372.122    23797384.801
       213.000         155.000
